[[{"header":{"parameterUnit":"m.s-1","parameterCategory":1,"la1":30.6,"la2":28.766,"lo1":-90.7593,"lo2":-88.6598,"dy":0.0162,"dx":0.0183,"nx":116,"ny":114,"refTime":"2024-06-17T06:00:00:Z","depth":0,"parameterNumber":2,"parameterNumberName":"U-component_of_WINDS"},"data":[0.0,0.0,0.0,0.0,0.0,0.0,0.0,0.0,0.0,0.0,0.0,0.0,0.0,0.0,0.0,0.0,0.0,0.0,0.0,0.0,0.0,0.0,0.0,0.0,0.0,0.0,0.0,0.0,0.0,0.0,0.0,0.0,0.0,0.0,0.0,0.0,0.0,0.0,0.0,0.0,0.0,0.0,0.0,0.0,0.0,0.0,0.0,0.0,0.0,0.0,0.0,0.0,0.0,0.0,0.0,0.0,0.0,0.0,0.0,0.0,0.0,0.0,0.0,0.0,0.0,0.0,0.0,0.0,0.0,0.0,0.0,0.0,0.0,0.0,0.0,0.0,0.0,0.0,0.0,0.0,0.0,0.0,0.0,0.0,0.0,0.0,0.0,0.0,0.0,0.0,0.0,0.0,0.0,0.0,0.0,0.0,0.0,0.0,0.0,0.0,0.0,0.0,0.0,0.0,0.0,0.0,0.0,0.0,0.0,0.0,0.0,0.0,0.0,0.0,0.0,0.0,0.0,0.0,0.0,0.0,0.0,0.0,0.0,0.0,0.0,0.0,0.0,0.0,0.0,0.0,0.0,0.0,0.0,0.0,0.0,0.0,0.0,0.0,0.0,0.0,0.0,0.0,0.0,0.0,0.0,0.0,0.0,0.0,0.0,0.0,0.0,0.0,0.0,0.0,0.0,0.0,0.0,0.0,0.0,0.0,0.0,0.0,0.0,0.0,0.0,0.0,0.0,0.0,0.0,0.0,0.0,0.0,0.0,0.0,0.0,0.0,0.0,0.0,0.0,0.0,0.0,0.0,0.0,0.0,0.0,0.0,0.0,0.0,0.0,0.0,0.0,0.0,0.0,0.0,0.0,0.0,0.0,0.0,0.0,0.0,0.0,0.0,0.0,0.0,0.0,0.0,0.0,0.0,0.0,0.0,0.0,0.0,0.0,0.0,0.0,0.0,0.0,0.0,0.0,0.0,0.0,0.0,0.0,0.0,0.0,0.0,0.0,0.0,0.0,0.0,0.0,0.0,0.0,0.0,0.0,0.0,0.0,0.0,0.0,0.0,0.0,0.0,0.0,0.0,0.0,0.0,0.0,0.0,0.0,0.0,0.0,0.0,0.0,0.0,0.0,0.0,0.0,0.0,0.0,0.0,0.0,0.0,0.0,0.0,0.0,0.0,0.0,0.0,0.0,0.0,0.0,0.0,0.0,0.0,0.0,0.0,0.0,0.0,0.0,0.0,0.0,0.0,0.0,0.0,0.0,0.0,0.0,0.0,0.0,0.0,0.0,0.0,0.0,0.0,0.0,0.0,0.0,0.0,0.0,0.0,0.0,0.0,0.0,0.0,0.0,0.0,0.0,0.0,0.0,0.0,0.0,0.0,0.0,0.0,0.0,0.0,0.0,0.0,0.0,0.0,0.0,0.0,0.0,0.0,0.0,0.0,0.0,0.0,0.0,0.0,0.0,0.0,0.0,0.0,0.0,0.0,0.0,0.0,0.0,0.0,0.0,0.0,0.0,0.0,0.0,0.0,0.0,0.0,0.0,0.0,0.0,0.0,0.0,0.0,0.0,0.0,0.0,0.0,0.0,0.0,0.0,0.0,0.0,0.0,0.0,0.0,0.0,0.0,0.0,0.0,0.0,0.0,0.0,0.0,0.0,0.0,0.0,0.0,0.0,0.0,0.0,0.0,0.0,0.0,0.0,0.0,0.0,0.0,0.0,0.0,0.0,0.0,0.0,0.0,0.0,0.0,0.0,0.0,0.0,0.0,0.0,0.0,0.0,0.0,0.0,0.0,0.0,0.0,0.0,0.0,0.0,0.0,0.0,0.0,0.0,0.0,0.0,0.0,0.0,0.0,0.0,0.0,0.0,0.0,0.0,0.0,0.0,0.0,0.0,0.0,0.0,0.0,0.0,0.0,0.0,0.0,0.0,0.0,0.0,0.0,0.0,0.0,0.0,0.0,0.0,0.0,0.0,0.0,0.0,0.0,0.0,0.0,0.0,0.0,0.0,0.0,0.0,0.0,0.0,0.0,0.0,0.0,0.0,0.0,0.0,0.0,0.0,0.0,0.0,0.0,0.0,0.0,0.0,0.0,0.0,0.0,0.0,0.0,0.0,0.0,0.0,0.0,0.0,0.0,0.0,0.0,0.0,0.0,0.0,0.0,0.0,0.0,0.0,0.0,0.0,0.0,0.0,0.0,0.0,0.0,0.0,0.0,0.0,0.0,0.0,0.0,0.0,0.0,0.0,0.0,0.0,0.0,0.0,0.0,0.0,0.0,0.0,0.0,0.0,0.0,0.0,0.0,0.0,0.0,0.0,0.0,0.0,0.0,0.0,0.0,0.0,0.0,0.0,0.0,0.0,0.0,0.0,0.0,0.0,0.0,0.0,0.0,0.0,0.0,0.0,0.0,0.0,0.0,0.0,0.0,0.0,0.0,0.0,0.0,0.0,0.0,0.0,0.0,0.0,0.0,0.0,0.0,0.0,0.0,0.0,0.0,0.0,0.0,0.0,0.0,0.0,0.0,0.0,0.0,0.0,0.0,0.0,0.0,0.0,0.0,0.0,0.0,0.0,0.0,0.0,0.0,0.0,0.0,0.0,0.0,0.0,0.0,0.0,0.0,0.0,0.0,0.0,0.0,0.0,0.0,0.0,0.0,0.0,0.0,0.0,0.0,0.0,0.0,0.0,0.0,0.0,0.0,0.0,0.0,0.0,0.0,0.0,0.0,0.0,0.0,0.0,0.0,0.0,0.0,0.0,0.0,0.0,0.0,0.0,0.0,0.0,0.0,0.0,0.0,0.0,0.0,0.0,0.0,0.0,0.0,0.0,0.0,0.0,0.0,0.0,0.0,0.0,0.0,0.0,0.0,0.0,0.0,0.0,0.0,0.0,0.0,0.0,0.0,0.0,0.0,0.0,0.0,0.0,0.0,0.0,0.0,0.0,0.0,0.0,0.0,0.0,0.0,0.0,0.0,0.0,0.0,0.0,0.0,0.0,0.0,0.0,0.0,0.0,0.0,0.0,0.0,0.0,0.0,0.0,0.0,0.0,0.0,0.0,0.0,0.0,0.0,0.0,0.0,0.0,0.0,0.0,0.0,0.0,0.0,0.0,0.0,0.0,0.0,0.0,0.0,0.0,0.0,0.0,0.0,0.0,0.0,0.0,0.0,0.0,0.0,0.0,0.0,0.0,0.0,0.0,0.0,0.0,0.0,0.0,0.0,0.0,0.0,0.0,0.0,0.0,0.0,0.0,0.0,0.0,0.0,0.0,0.0,0.0,0.0,0.0,0.0,0.0,0.0,0.0,0.0,0.0,0.0,0.0,0.0,0.0,0.0,0.0,0.0,0.0,0.0,0.0,0.0,0.0,0.0,0.0,0.0,0.0,0.0,0.0,0.0,0.0,0.0,0.0,0.0,0.0,0.0,0.0,0.0,0.0,0.0,0.0,0.0,0.0,0.0,0.0,0.0,0.0,0.0,0.0,0.0,0.0,0.0,0.0,0.0,0.0,0.0,0.0,0.0,0.0,0.0,0.0,0.0,0.0,0.0,0.0,0.0,0.0,0.0,0.0,0.0,0.0,0.0,0.0,0.0,0.0,0.0,0.0,0.0,0.0,0.0,0.0,0.0,0.0,0.0,0.0,0.0,0.0,0.0,0.0,0.0,0.0,0.0,0.0,0.0,0.0,0.0,0.0,0.0,0.0,0.0,0.0,0.0,0.0,0.0,0.0,0.0,0.0,0.0,0.0,0.0,0.0,0.0,0.0,0.0,0.0,0.0,0.0,0.0,0.0,0.0,0.0,0.0,0.0,0.0,0.0,0.0,0.0,0.0,0.0,0.0,0.0,0.0,0.0,0.0,0.0,0.0,0.0,0.0,0.0,0.0,0.0,0.0,0.0,0.0,0.0,0.0,0.0,0.0,0.0,0.0,0.0,0.0,0.0,0.0,0.0,0.0,0.0,0.0,0.0,0.0,0.0,0.0,0.0,0.0,0.0,0.0,0.0,0.0,0.0,0.0,0.0,0.0,0.0,0.0,0.0,0.0,0.0,0.0,0.0,0.0,0.0,0.0,0.0,0.0,0.0,0.0,0.0,0.0,0.0,0.0,0.0,0.0,0.0,0.0,0.0,0.0,0.0,0.0,0.0,0.0,0.0,0.0,0.0,0.0,0.0,0.0,0.0,0.0,0.0,0.0,0.0,0.0,0.0,0.0,0.0,0.0,0.0,0.0,0.0,0.0,0.0,0.0,0.0,0.0,0.0,0.0,0.0,0.0,0.0,0.0,0.0,0.0,0.0,0.0,0.0,0.0,0.0,0.0,0.0,0.0,0.0,0.0,0.0,0.0,0.0,0.0,0.0,0.0,0.0,0.0,0.0,0.0,0.0,0.0,0.0,0.0,0.0,0.0,0.0,0.0,0.0,0.0,0.0,0.0,0.0,0.0,0.0,0.0,0.0,0.0,0.0,0.0,0.0,0.0,0.0,0.0,0.0,0.0,0.0,0.0,0.0,0.0,0.0,0.0,0.0,0.0,0.0,0.0,0.0,0.0,0.0,0.0,0.0,0.0,0.0,0.0,0.0,0.0,0.0,0.0,0.0,0.0,0.0,0.0,0.0,0.0,0.0,0.0,0.0,0.0,0.0,0.0,0.0,0.0,0.0,0.0,0.0,0.0,0.0,0.0,0.0,0.0,0.0,0.0,0.0,0.0,0.0,0.0,0.0,0.0,0.0,0.0,0.0,0.0,0.0,0.0,0.0,0.0,0.0,0.0,0.0,0.0,0.0,0.0,0.0,0.0,0.0,0.0,0.0,0.0,0.0,0.0,0.0,0.0,0.0,0.0,0.0,0.0,0.0,0.0,0.0,0.0,0.0,0.0,0.0,0.0,0.0,0.0,0.0,0.0,0.0,0.0,0.0,0.0,0.0,0.0,0.0,0.0,0.0,0.0,0.0,0.0,0.0,0.0,0.0,0.0,0.0,0.0,0.0,0.0,0.0,0.0,0.0,0.0,0.0,0.0,0.0,0.0,0.0,0.0,0.0,0.0,0.0,0.0,0.0,0.0,0.0,0.0,0.0,0.0,0.0,0.0,0.0,0.0,0.0,0.0,0.0,0.0,0.0,0.0,0.0,0.0,0.0,0.0,0.0,0.0,0.0,0.0,0.0,0.0,0.0,0.0,0.0,0.0,0.0,0.0,0.0,0.0,0.0,0.0,0.0,0.0,0.0,0.0,0.0,0.0,0.0,0.0,0.0,0.0,0.0,0.0,0.0,0.0,0.0,0.0,0.0,0.0,0.0,0.0,0.0,0.0,0.0,0.0,0.0,0.0,0.0,0.0,0.0,0.0,0.0,0.0,0.0,0.0,0.0,0.0,0.0,0.0,0.0,0.0,0.0,0.0,0.0,0.0,0.0,0.0,0.0,0.0,0.0,0.0,0.0,0.0,0.0,0.0,0.0,0.0,0.0,0.0,0.0,0.0,0.0,0.0,0.0,0.0,0.0,0.0,0.0,0.0,0.0,0.0,0.0,0.0,0.0,0.0,0.0,0.0,0.0,0.0,0.0,0.0,0.0,0.0,0.0,0.0,0.0,0.0,0.0,0.0,0.0,0.0,0.0,0.0,0.0,0.0,0.0,0.0,0.0,0.0,0.0,0.0,0.0,0.0,0.0,0.0,0.0,0.0,0.0,0.0,0.0,0.0,0.0,0.0,0.0,0.0,0.0,0.0,0.0,0.0,0.0,0.0,0.0,0.0,0.0,0.0,0.0,0.0,0.0,0.0,0.0,0.0,0.0,0.0,0.0,0.0,0.0,0.0,0.0,0.0,0.0,0.0,0.0,0.0,0.0,0.0,0.0,0.0,0.0,0.0,0.0,0.0,0.0,0.0,0.0,0.0,0.0,0.0,0.0,0.0,0.0,0.0,0.0,0.0,0.0,0.0,0.0,0.0,0.0,0.0,0.0,0.0,0.0,0.0,0.0,0.0,0.0,0.0,0.0,0.0,0.0,0.0,0.0,0.0,0.0,0.0,0.0,0.0,0.0,0.0,0.0,0.0,0.0,0.0,0.0,0.0,0.0,0.0,0.0,0.0,0.0,0.0,-1.3311,0.0,0.0,0.0,0.0,0.0,0.0,0.0,0.0,0.0,0.0,0.0,0.0,0.0,0.0,0.0,0.0,0.0,0.0,0.0,0.0,0.0,0.0,0.0,0.0,-0.6926,-0.6868,-0.7046,-0.7104,-0.7114,-0.7061,-0.7061,-0.707,-0.7114,-0.707,-0.708,-0.712,-0.708,-0.7335,-0.7875,-0.7919,-0.8488,-0.9504,-0.861,-0.8025,-0.7763,0.0,0.0,0.0,0.0,0.0,0.0,0.0,0.0,0.0,0.0,0.0,0.0,0.0,0.0,0.0,0.0,0.0,0.0,0.0,0.0,0.0,0.0,0.0,0.0,0.0,0.0,0.0,0.0,0.0,0.0,0.0,0.0,0.0,0.0,0.0,0.0,0.0,0.0,0.0,0.0,0.0,0.0,0.0,0.0,0.0,0.0,0.0,0.0,0.0,0.0,0.0,0.0,0.0,0.0,0.0,0.0,0.0,0.0,0.0,0.0,0.0,0.0,0.0,0.0,0.0,0.0,0.0,0.0,0.0,0.0,0.0,-1.4834,0.0,0.0,0.0,0.0,0.0,0.0,0.0,0.0,0.0,0.0,0.0,0.0,0.0,0.0,0.0,0.0,0.0,0.0,0.0,0.0,0.0,-0.6874,-0.7876,-0.7549,-0.7445,-0.8018,-0.7994,-0.7969,-0.8055,-0.7958,-0.7956,-0.7989,-0.7945,-0.7932,-0.7998,-0.804,-0.832,-0.8863,-0.9436,-1.0182,-1.1098,-1.123,-1.1295,-1.1215,-1.0591,0.0,0.0,0.0,0.0,0.0,0.0,0.0,0.0,0.0,0.0,0.0,0.0,0.0,0.0,0.0,0.0,0.0,0.0,0.0,0.0,0.0,0.0,0.0,0.0,0.0,0.0,0.0,0.0,0.0,0.0,0.0,0.0,0.0,0.0,0.0,0.0,0.0,0.0,0.0,0.0,0.0,0.0,0.0,0.0,0.0,0.0,0.0,0.0,0.0,0.0,0.0,0.0,0.0,0.0,0.0,0.0,0.0,0.0,0.0,0.0,0.0,0.0,0.0,-2.1656,-2.2004,-2.2004,-2.2004,-2.2004,-2.1917,-2.0378,-1.8956,-1.7621,0.0,0.0,0.0,0.0,0.0,0.0,0.0,0.0,0.0,0.0,0.0,0.0,0.0,0.0,0.0,0.0,0.0,0.0,0.0,0.0,-0.6889,-0.7892,-0.758,-0.7663,-0.8607,-0.8313,-0.8251,-0.8656,-0.8255,-0.7998,-0.7998,-0.7932,-0.7934,-0.8003,-0.8438,-0.8937,-0.9472,-1.1834,-1.3277,-1.3885,-1.4833,-1.5187,-1.4938,-1.172,-1.0726,-1.1343,0.0,0.0,0.0,0.0,0.0,0.0,0.0,0.0,0.0,0.0,0.0,0.0,0.0,0.0,0.0,0.0,0.0,0.0,0.0,0.0,0.0,0.0,0.0,0.0,0.0,0.0,0.0,0.0,0.0,0.0,0.0,0.0,0.0,0.0,0.0,0.0,0.0,0.0,0.0,0.0,0.0,-1.0507,-1.1188,0.0,0.0,0.0,0.0,0.0,0.0,0.0,0.0,0.0,0.0,0.0,0.0,0.0,0.0,-2.1481,-2.32,-2.4099,-2.4215,-2.5429,-2.6036,-2.6036,-2.6036,-2.6036,-2.6036,-2.5749,0.0,-1.9653,-1.8898,0.0,0.0,0.0,0.0,0.0,0.0,0.0,0.0,0.0,0.0,0.0,0.0,0.0,0.0,0.0,0.0,0.0,0.0,0.0,0.0,0.0,-0.8812,-0.912,-1.0177,-1.0353,-1.0202,-0.974,-0.9804,-0.9573,-0.8985,-0.89,-0.9046,-0.944,-0.9659,-1.0536,-1.2068,-1.3692,-1.5012,-1.5973,-1.6308,-1.6631,-1.6827,-1.4841,-1.3688,-1.3119,-1.1271,0.0,0.0,0.0,0.0,0.0,0.0,0.0,0.0,0.0,0.0,0.0,0.0,0.0,0.0,0.0,0.0,0.0,0.0,0.0,0.0,0.0,0.0,0.0,0.0,0.0,0.0,0.0,0.0,0.0,0.0,0.0,0.0,0.0,0.0,0.0,0.0,0.0,0.0,0.0,-1.0256,-1.1736,-1.2027,-1.2898,-1.3107,0.0,0.0,0.0,0.0,0.0,0.0,0.0,0.0,0.0,-2.1682,-2.2276,-2.3426,-2.5172,-2.6013,-2.6622,-2.6997,-2.7578,-2.7866,-2.7866,-2.7866,-2.7866,-2.7866,-2.7866,-2.6533,-2.4244,-2.2497,-2.1046,-1.9798,0.0,0.0,0.0,0.0,0.0,-1.8949,0.0,0.0,0.0,0.0,0.0,0.0,0.0,0.0,0.0,0.0,0.0,0.0,-0.981,-1.0097,-1.067,-1.1731,-1.2077,-1.1913,-1.114,-1.1121,-1.0757,-0.9969,-0.9853,-1.0063,-1.0581,-1.1122,-1.2457,-1.465,-1.5504,-1.6493,-1.7615,-1.7551,-1.7774,-1.8167,-1.7603,-1.6508,-1.5018,-1.3264,-1.2282,-1.1776,0.0,0.0,0.0,0.0,0.0,0.0,0.0,0.0,0.0,0.0,0.0,0.0,0.0,0.0,0.0,0.0,0.0,0.0,0.0,0.0,0.0,0.0,0.0,0.0,0.0,0.0,0.0,0.0,0.0,0.0,0.0,0.0,0.0,0.0,0.0,0.0,0.0,-1.1751,-1.324,-1.324,-1.4839,-1.5341,0.0,0.0,0.0,0.0,0.0,0.0,-1.9268,-2.0979,-2.2807,-2.4723,-2.4957,-2.5961,-2.7909,-2.825,-2.8596,-2.8915,-2.9088,-2.9203,-2.9203,-2.9203,-2.9203,-2.9203,-2.9203,-2.8797,-2.7985,-2.5633,-2.3978,-2.2904,-2.2236,-2.1975,-2.2062,-2.2556,-2.2366,-2.204,0.0,0.0,0.0,0.0,0.0,0.0,0.0,0.0,0.0,0.0,0.0,-0.8807,-1.0383,-1.1057,-1.1858,-1.293,-1.2564,-1.249,-1.293,-1.1504,-1.0606,-1.0557,-1.0486,-1.0511,-1.0596,-1.2664,-1.4593,-1.6375,-1.7364,-1.8163,-1.8734,-1.9231,-1.9401,-1.9322,-1.8883,-1.824,-1.7289,-1.509,-1.4156,-1.3987,-1.2396,0.0,0.0,0.0,0.0,0.0,0.0,0.0,0.0,0.0,0.0,0.0,0.0,0.0,0.0,0.0,0.0,0.0,0.0,0.0,0.0,0.0,0.0,0.0,0.0,0.0,0.0,0.0,0.0,0.0,0.0,0.0,0.0,0.0,0.0,0.0,0.0,0.0,0.0,-1.5517,-1.7453,0.0,0.0,0.0,0.0,-1.8706,-2.005,-2.1486,-2.2954,-2.3987,-2.5439,-2.744,-2.8081,-2.8434,-2.8549,-2.9806,-3.0152,-2.9569,-3.0181,-3.051,-3.051,-3.051,-3.051,-3.051,-3.051,-3.0103,-2.9349,-2.7432,-2.6239,-2.5546,-2.4853,-2.465,-2.4704,-2.4733,-2.4704,-2.4597,0.0,0.0,0.0,-0.6404,-0.666,-0.7052,-0.767,-0.7594,-0.7845,-0.8776,-0.9119,-0.9779,-1.1051,-1.2039,-1.3031,-1.4168,-1.4093,-1.3706,-1.3146,-1.2531,-1.2042,-1.1703,-1.1672,-1.2175,-1.3348,-1.5196,-1.6801,-1.8105,-1.9108,-1.9931,-2.0561,-2.0652,-2.07,-2.0754,-2.0501,-2.0248,-1.9795,-1.716,-1.5602,-1.4833,-1.3569,-1.2375,0.0,0.0,0.0,0.0,0.0,0.0,0.0,0.0,0.0,0.0,0.0,0.0,0.0,0.0,0.0,0.0,0.0,0.0,0.0,0.0,0.0,0.0,0.0,0.0,0.0,0.0,0.0,0.0,0.0,0.0,0.0,0.0,0.0,0.0,0.0,0.0,0.0,-1.7779,-1.976,0.0,-1.9083,-2.0191,-2.09,-2.0614,-2.2387,-2.3733,-2.4245,-2.5271,-2.6361,-2.7542,-2.8197,-2.8761,-2.9223,-3.0151,-3.0477,-3.0266,-3.0477,-3.0598,-3.0598,-3.0598,-3.0598,-3.0598,-3.0598,-3.0481,-3.019,-2.9522,-2.8622,-2.7663,-2.7403,-2.7316,-2.7372,-2.7372,-2.7316,-2.7316,-0.6367,-0.6334,0.0,-0.6413,-0.6829,-0.7342,-0.7938,-0.8044,-0.8396,-0.9329,-0.9864,-1.0669,-1.193,-1.309,-1.4161,-1.5085,-1.4984,-1.4563,-1.3756,-1.3163,-1.2714,-1.2348,-1.2714,-1.3799,-1.5688,-1.7197,-1.848,-1.9585,-2.0409,-2.1059,-2.1493,-2.1409,-2.1409,-2.1493,-2.1409,-2.1353,-2.1228,-1.9331,-1.7721,-1.6328,-1.5249,-1.4132,-1.2954,0.0,0.0,0.0,0.0,0.0,0.0,0.0,0.0,0.0,0.0,0.0,0.0,0.0,0.0,0.0,0.0,0.0,0.0,0.0,0.0,0.0,0.0,0.0,0.0,0.0,0.0,0.0,0.0,0.0,0.0,0.0,0.0,0.0,0.0,0.0,-1.9459,-1.9785,-2.1791,-2.2573,-2.1066,-2.2272,-2.3075,-2.2899,-2.428,-2.5274,-2.567,-2.6396,-2.7193,-2.8067,-2.8512,-2.8951,-2.9443,-3.0147,-3.0255,-2.981,-3.0029,-3.0069,-2.9901,-3.0146,-3.0266,-3.0296,-3.0507,-3.0598,-3.0598,-3.0598,-2.9985,-2.903,-2.9262,-2.9348,-2.9348,-2.9348,-2.9203,-2.8942,-0.6307,-0.6367,-0.6376,-0.6316,-0.6801,-0.7417,-0.8003,-0.8055,-0.8678,-1.0455,-1.0691,-1.134,-1.3048,-1.4237,-1.511,-1.5668,-1.5211,-1.4884,-1.4884,-1.3333,-1.2438,-1.2488,-1.3644,-1.5255,-1.7423,-1.853,-1.9635,-2.0742,-2.1295,-2.1543,-2.1543,-2.1543,-2.1543,-2.1543,-2.1543,-2.1543,-2.1543,-2.1543,-2.0482,-1.8709,-1.7549,-1.6438,-1.5319,0.0,0.0,0.0,0.0,0.0,0.0,0.0,0.0,0.0,0.0,0.0,0.0,0.0,0.0,0.0,0.0,0.0,0.0,0.0,0.0,0.0,0.0,0.0,0.0,0.0,0.0,0.0,0.0,0.0,0.0,0.0,0.0,0.0,-1.8304,-2.0188,-2.1568,-2.1619,-2.3552,-2.4399,-2.3321,-2.4224,-2.5109,-2.5611,-2.5661,-2.6222,-2.743,-2.7411,-2.7936,-2.9214,-2.9161,-2.909,-2.909,-2.9827,-2.9568,-2.836,-2.9013,-2.9083,-2.8578,-2.9275,-2.9617,-2.962,-3.0325,-3.0567,-3.0538,-3.0568,-3.0174,-2.9623,-3.0326,-3.0627,-3.0597,-3.0627,-3.0219,-2.9435,-0.6367,-0.6334,-0.6334,-0.6376,-0.7114,-0.7765,-0.7932,-0.8318,-0.9059,-1.0377,-1.0606,-1.145,-1.3627,-1.4481,-1.5286,-1.6195,-1.5417,-1.4884,-1.4884,-1.3709,-1.3516,-1.4739,-1.6647,-1.8129,-1.9108,-2.0238,-2.1167,-2.187,-2.2422,-2.2644,-2.2644,-2.2644,-2.2644,-2.2644,-2.2644,-2.2644,-2.2644,-2.258,-2.1994,-2.0993,-1.9006,-1.7844,-1.7029,0.0,0.0,0.0,0.0,0.0,0.0,0.0,0.0,0.0,0.0,0.0,0.0,0.0,0.0,0.0,0.0,0.0,0.0,0.0,0.0,0.0,0.0,0.0,0.0,0.0,0.0,0.0,0.0,0.0,0.0,0.0,-1.9484,-2.1041,-2.0639,-2.2146,-2.3602,-2.4381,-2.5418,-2.5921,-2.5619,-2.6189,-2.6666,-2.6816,-2.7193,-2.7566,-2.7906,-2.7904,-2.8052,-2.8421,-2.887,-2.909,-2.909,-2.9827,-3.0023,-2.969,-2.9861,-2.9882,-2.9754,-2.9956,-2.981,-2.9405,-3.0143,-2.9922,-2.9097,-2.9654,-2.9439,-2.8907,-3.0115,-3.0555,-3.0583,-3.105,-3.084,-3.0205,-0.6343,-0.6325,-0.6388,-0.6656,-0.7369,-0.7971,-0.8235,-0.8766,-0.9558,-1.0761,-1.0909,-1.1703,-1.3871,-1.4318,-1.4851,-1.5743,-1.5261,-1.4783,-1.4576,-1.4155,-1.4764,-1.6672,-1.818,-1.9459,-2.0489,-2.1368,-2.2221,-2.3025,-2.3321,-2.3572,-2.3822,-2.3822,-2.3822,-2.3797,-2.3572,-2.3471,-2.3446,-2.313,-2.277,-2.2312,-2.0686,-1.9747,-1.9081,-1.711,-1.6348,-1.6173,-1.5,-1.3876,-1.298,-1.2902,0.0,0.0,0.0,0.0,0.0,0.0,0.0,0.0,0.0,0.0,0.0,0.0,0.0,0.0,0.0,0.0,0.0,0.0,0.0,0.0,0.0,0.0,0.0,0.0,-2.2046,-2.3577,-2.3251,-2.4054,-2.4983,-2.5862,-2.6499,-2.6851,-2.6851,-2.7293,-2.762,-2.762,-2.7921,-2.8097,-2.8097,-2.8323,-2.8448,-2.8448,-2.9057,-2.9406,-2.9406,-2.9845,-3.0026,-3.0026,-3.0026,-3.0026,-3.0063,-3.0325,-3.0281,0.0,-3.0426,-3.009,-2.9252,-2.9403,-2.893,0.0,0.0,0.0,0.0,0.0,-3.0276,-2.9901,-0.6307,-0.6355,-0.6547,-0.7013,-0.76,-0.8175,-0.8694,-0.9239,-1.0035,-1.13,-1.1363,-1.2011,-1.386,-1.3969,-1.4175,-1.4833,-1.4884,-1.4727,-1.4299,-1.4903,-1.6191,-1.8204,-1.8983,-2.0061,-2.1543,-2.2171,-2.3,-2.4004,-2.4054,-2.433,-2.48,-2.48,-2.48,-2.4775,-2.4305,-2.4079,-2.4054,-2.3521,-2.318,-2.2928,-2.2337,-2.177,-2.1036,-1.8954,-1.8487,-1.8685,-1.6854,-1.5622,-1.4805,-1.47,0.0,0.0,0.0,0.0,0.0,0.0,0.0,0.0,0.0,0.0,0.0,0.0,0.0,0.0,0.0,0.0,0.0,0.0,0.0,0.0,0.0,0.0,0.0,0.0,-2.4406,-2.5862,-2.5787,-2.5837,-2.6038,-2.6524,-2.7027,-2.7293,-2.7369,-2.7871,-2.8197,-2.8197,-2.8247,-2.8323,-2.8373,0.0,0.0,0.0,0.0,-2.988,-2.988,-2.988,-2.9854,-2.9804,-2.9854,-2.988,-2.9918,-3.056,-3.0839,-3.0799,-3.099,-3.0717,-3.0127,-2.9658,-2.8704,-2.762,-2.8237,-2.8536,-2.8682,-2.93,-2.9331,0.0,-0.6298,-0.6648,-0.6983,-0.7085,-0.7899,-0.8585,-0.8706,-0.9176,-0.9926,-1.1119,-1.1241,-1.1899,-1.374,-1.3914,-1.4175,-1.4833,-1.4884,-1.5035,-1.5387,-1.6748,-1.7953,-1.8807,-2.0638,-2.182,-2.2146,-2.315,-2.3778,-2.4004,-2.4431,-2.4675,-2.48,-2.48,-2.48,-2.4775,-2.4675,-2.4625,-2.4625,-2.4429,-2.4009,-2.3524,-2.3393,-2.2688,-2.1584,-2.0608,-1.9772,-1.9092,-1.8698,-1.7823,-1.6857,-1.6927,-1.656,-1.5928,-1.5501,-1.467,0.0,0.0,0.0,0.0,0.0,0.0,0.0,0.0,0.0,0.0,0.0,0.0,0.0,0.0,0.0,0.0,0.0,0.0,0.0,-2.3602,-2.5887,-2.7469,-2.7017,-2.7344,-2.7494,-2.7168,-2.7253,-2.7444,-2.7896,-2.8448,-2.8737,-2.8737,-2.9202,-2.9654,-3.0105,-2.9804,0.0,-3.0884,-3.0608,-3.0457,-3.0457,-3.0457,-3.0231,-2.9804,0.0,0.0,-3.0457,-3.1044,-3.1034,-3.0669,-3.1254,-3.0891,-2.9922,-3.0355,-2.9497,-2.8007,-2.8325,-2.8759,-2.9454,-3.0514,-3.0191,-2.9336,-0.6941,-0.7063,-0.726,-0.7761,-0.8333,-0.879,-0.9067,-0.9318,-0.9826,-1.0685,-1.0994,-1.1623,-1.2909,-1.3236,-1.3526,-1.3963,-1.4312,-1.5079,-1.6468,-1.7576,-1.8807,-2.0188,-2.1568,-2.2573,-2.315,-2.3703,-2.4255,-2.4808,-2.5084,-2.536,-2.5636,-2.5636,-2.5636,-2.5636,-2.5335,-2.5209,-2.5184,-2.4836,-2.4489,-2.4126,-2.3821,-2.3282,-2.2561,-2.1692,-2.1003,-2.0437,-1.9818,-1.9087,-1.8359,-1.8067,-1.7678,-1.7213,-1.6675,-1.5963,-1.5057,0.0,0.0,0.0,0.0,0.0,0.0,0.0,0.0,0.0,0.0,0.0,0.0,0.0,0.0,-2.1259,-2.211,0.0,-2.5443,-2.5963,-2.7444,-2.8323,-2.777,-2.8172,-2.8323,-2.777,-2.7946,-2.8323,-2.89,-2.9202,-2.9578,-3.0105,-3.0181,-3.0432,-3.0984,-3.0733,-3.0834,-3.1361,-3.1135,-3.1009,-3.1009,-3.1009,-3.1009,-3.1009,-3.1009,-3.1311,-3.1838,-3.1813,-3.1813,-3.1879,-3.1879,-3.1407,-3.0597,-3.0368,-2.977,-2.8938,-2.8737,-2.854,-2.8446,-2.9057,-2.9227,-2.9138,-0.769,-0.757,-0.7612,-0.8466,-0.8741,-0.8934,-0.9294,-0.9438,-0.9668,-1.0171,-1.0635,-1.1237,-1.1931,-1.2306,-1.2665,-1.306,-1.3781,-1.5116,-1.7202,-1.8103,-1.9409,-2.1393,-2.2121,-2.2949,-2.3979,-2.4104,-2.4632,-2.5586,-2.5711,-2.6047,-2.6499,-2.6499,-2.6499,-2.6474,-2.5963,-2.5762,-2.567,-2.5244,-2.487,-2.4491,-2.4013,-2.3628,-2.3231,-2.2247,-2.1776,-2.1496,-2.0503,-1.9724,-1.9096,-1.8677,-1.8264,-1.7848,-1.7312,-1.6942,-1.6348,-1.4665,-1.4118,0.0,0.0,0.0,0.0,0.0,0.0,0.0,0.0,-1.9603,-2.0207,-2.1256,-2.2514,-2.3778,-2.4933,-2.6138,-2.7228,-2.7971,-2.8674,-2.8863,-2.8348,-2.875,-2.8925,-2.8473,-2.8725,-2.9151,-2.9729,-2.988,-3.0306,-3.1185,-3.0934,-3.0984,-3.1512,-3.1461,-3.1486,-3.1712,-3.1612,-3.1537,-3.1537,-3.1537,-3.1712,-3.2039,-3.1712,-3.2039,-3.2893,-3.2541,-3.2641,-3.3043,-3.2591,-3.2139,-3.1637,-3.0658,-3.0206,-3.0055,-2.9439,-2.8574,-2.7595,-2.7595,-2.8097,-2.8737,-0.806,-0.8235,-0.832,-0.8572,-0.9001,-0.9207,-0.885,-0.9211,-0.9534,-0.9596,-1.0077,-1.0635,-1.1234,-1.1356,-1.1818,-1.2916,-1.3995,-1.5371,-1.7115,-1.8733,-2.0188,-2.1443,-2.2468,-2.3321,-2.3979,-2.4481,-2.5008,-2.5586,-2.6147,-2.6424,-2.6499,-2.6499,-2.6499,-2.6499,-2.6424,-2.6296,-2.6148,-2.6074,-2.5376,-2.432,-2.4271,-2.3656,-2.2714,-2.2046,-2.1443,-2.0888,-2.0762,-1.9688,-1.8401,-1.8939,-1.8773,-1.8336,-1.8362,-1.8363,-1.7995,-1.6397,-1.5819,-1.5684,-1.5587,-1.6435,-1.7676,-1.8957,-1.9033,-1.9831,0.0,-2.4048,-2.3753,-2.4833,-2.6339,-2.7218,-2.6449,-2.757,-2.8487,-2.8172,-2.9001,-2.9503,-2.8888,-2.9327,-2.9679,-2.9603,-2.9202,-2.9151,-2.9729,-3.0231,-3.0583,-3.0683,-3.1085,-3.1537,-3.2089,-3.1662,-3.1838,-3.291,-3.239,-3.2114,-3.2114,-3.2114,-3.1913,-3.1486,-3.1913,-3.219,-3.2315,-3.2767,-3.3061,-3.3111,-3.3061,-3.2943,-3.2842,-3.2215,-3.1662,-3.116,-3.0633,-2.969,-2.8712,-2.8712,-2.8524,-2.8273,-0.8577,-0.8797,-0.885,-0.8931,-0.9171,-0.9177,-0.8717,-0.9088,-0.934,-0.9067,-0.9788,-1.0389,-1.065,-1.1276,-1.1883,-1.2355,-1.3785,-1.52,-1.6534,-1.8487,-2.0101,-2.1331,-2.2401,-2.328,-2.3979,-2.4531,-2.5018,-2.5444,-2.6154,-2.643,-2.6327,-2.6465,-2.6499,-2.6499,-2.6361,-2.6283,-2.6179,-2.6084,-2.5536,-2.473,-2.4435,-2.3845,-2.309,-2.2263,-2.1285,-2.0308,-2.0153,-1.9562,0.0,-1.8508,-1.8339,-1.8264,-1.8167,-1.7747,-1.7175,-1.6419,-1.633,-1.6826,-1.8509,-1.9542,-2.0483,-2.177,-2.271,-2.3691,-2.5161,-2.5477,-2.5594,-2.6047,-2.7168,-2.7971,-2.7494,-2.8524,-2.9453,0.0,-2.9955,-3.0181,-2.9891,-2.9854,-2.9679,-2.9327,-2.9038,-2.9239,-3.0181,-3.0482,-3.0884,-3.1486,-3.1738,-3.2114,-3.2692,-3.2491,-3.2634,-3.3068,-3.2842,-3.2717,-3.2717,-3.2717,-3.2591,-3.2365,-3.2265,-3.239,-3.2717,-3.2616,-3.2767,-3.3111,-3.3111,-3.3111,-3.3068,-3.2817,-3.2591,-3.2315,-3.1763,-3.126,-3.0643,-2.9364,-2.8737,-2.8624,-0.8922,-0.9106,-0.912,-0.9174,-0.9205,-0.9038,-0.8441,-0.8941,-0.917,-0.8538,-0.939,-1.0087,-1.0087,-1.1085,-1.1761,-1.1761,-1.3332,-1.4803,-1.5884,-1.7823,-1.9522,-2.0769,-2.1981,-2.2958,-2.3691,-2.421,-2.4728,-2.5178,-2.5745,-2.5945,-2.5766,-2.5911,-2.5945,-2.5911,-2.5741,-2.5639,-2.5571,-2.5433,-2.5046,-2.4499,-2.4108,-2.3553,-2.2849,-2.1888,-2.0723,-1.9582,-1.94,-1.8955,-1.8288,-1.7507,-1.728,-1.7322,-1.7307,-1.6936,-1.651,-1.6593,-1.7138,-1.8166,-2.0133,-2.1494,-2.262,-2.3623,-2.5202,-2.6364,-2.5836,-2.6255,-2.6675,-2.6524,-2.7444,-2.8298,-2.8122,-2.89,-2.9779,-3.0507,-3.0482,-3.0482,-3.0783,-3.0231,-2.9704,-2.9389,-2.9088,-2.9339,-3.0507,-3.0608,-3.106,-3.2139,-3.2215,-3.2466,-3.3086,-3.3111,-3.3111,-3.3111,-3.3111,-3.3111,-3.3111,-3.3111,-3.3111,-3.3111,-3.2641,-3.2667,-3.3111,-3.2641,-3.2692,-3.3111,-3.3111,-3.3111,-3.3111,-3.3111,-3.3111,-3.3086,-3.2616,-3.2365,-3.2014,-3.0392,-2.9515,-2.9139,-0.8991,-0.9106,-0.9106,-0.9106,-0.9106,-0.88,-0.7865,-0.869,-0.9025,-0.7955,-0.8825,-0.9534,-0.9534,-1.0471,-1.1111,-1.1111,-1.2665,-1.4099,-1.5236,-1.6916,-1.8363,-1.9522,-2.1071,-2.2238,-2.2934,-2.348,-2.409,-2.4825,-2.4825,-2.4786,-2.4656,-2.4656,-2.4558,-2.437,-2.4337,-2.4238,-2.4074,-2.4049,-2.366,-2.3071,-2.3047,-2.2459,-2.1515,-2.0475,-1.9432,-1.8558,-1.8684,-1.7531,-1.5898,-1.5874,-1.5514,-1.5223,-1.5862,-1.6391,-1.6899,-1.7482,-1.8804,-2.0008,-1.9643,-2.1527,-2.3679,-2.3917,-2.5267,-2.6499,-2.6474,-2.6901,-2.7153,-2.66,-2.777,-2.8712,-2.8197,-2.8574,-2.9289,-3.0432,-3.0156,-3.0181,-3.121,-3.0457,-2.998,-3.0507,-2.9565,-2.9339,0.0,-3.0608,-3.106,-3.2139,-3.2215,-3.2466,-3.3086,-3.3111,-3.3111,-3.3111,-3.3111,-3.3111,-3.3111,-3.3111,-3.3111,-3.3111,-3.3068,-3.3068,-3.3111,-3.3068,-3.3068,-3.3111,-3.3111,-3.3111,-3.3111,-3.3111,-3.3111,-3.3111,-3.3068,-3.2717,-3.2215,-3.2139,-3.111,-2.9754,-0.8991,-0.9106,-0.8991,-0.8646,-0.8577,-0.8232,-0.7242,-0.8368,-0.9079,-0.837,-0.9261,0.0,0.0,0.0,0.0,0.0,-1.2799,-1.3833,-1.4599,-1.6128,-1.7387,-1.8265,-1.9805,-2.0962,-2.1671,-2.2584,-2.3269,-2.3747,-2.4342,-2.4508,-2.4222,-2.4476,-2.4508,-2.4288,-2.4157,-2.4058,-2.3992,-2.3926,-2.3513,-2.2975,-2.2606,-2.206,-2.1373,-2.037,-1.9085,-1.7702,0.0,-1.6242,-1.5353,-1.499,-1.4813,-1.4825,-1.532,-1.5344,-1.5609,-1.7629,-1.9198,-2.0557,-2.1927,-2.3251,-2.4546,-2.5402,-2.6348,-2.7027,-2.7027,-2.7178,-2.7153,-2.66,-2.7228,-2.777,-2.7595,-2.8323,-2.9264,-3.0432,-3.0758,-3.111,-3.1838,-3.1311,-3.0658,-3.0131,-3.0055,0.0,0.0,0.0,0.0,-3.2164,-3.2566,-3.2867,-3.3111,-3.3111,-3.3111,-3.3111,-3.3111,-3.3111,-3.3111,-3.3111,-3.3111,-3.3111,-3.3111,-3.3111,-3.3111,-3.3111,-3.3111,-3.3111,-3.3111,-3.3111,-3.3111,-3.3111,-3.3111,-3.3111,-3.3111,-3.3011,-3.2792,-3.2792,-3.219,-3.1286,0.0,-0.9106,-0.8991,-0.8646,-0.8577,0.0,0.0,0.0,0.0,0.0,0.0,0.0,0.0,0.0,0.0,0.0,0.0,-1.3433,-1.3963,-1.5124,-1.6061,-1.6707,-1.8042,-1.9042,-1.9591,-2.0474,-2.1231,-2.1877,-2.2485,-2.2825,-2.2882,-2.3101,-2.3157,-2.2945,-2.2851,-2.2788,-2.2788,-2.2693,-2.2469,-2.2108,-2.1578,-2.0899,-2.0153,-1.9151,-1.775,0.0,-1.5402,-1.4744,-1.4259,-1.392,-1.3977,-1.4284,-1.4756,-1.5508,-1.6577,-1.8558,-2.0111,-2.1679,-2.3753,-2.4763,-2.5594,-2.6766,-2.7318,-2.757,-2.757,-2.7268,-2.6927,-2.6575,-2.6776,-2.6952,-2.6716,-2.7268,-2.8298,-3.003,-3.0432,-3.0984,-3.234,-3.1863,-3.121,-3.0708,-3.0633,-3.0633,0.0,0.0,0.0,-3.219,-3.2566,-3.2867,-3.3111,-3.3111,-3.3111,-3.3111,-3.3111,-3.3111,-3.3111,-3.3111,-3.3111,-3.3111,-3.3111,-3.3111,-3.3111,-3.3111,-3.3111,-3.3111,-3.3111,-3.3111,-3.3111,-3.3111,-3.3111,-3.3111,-3.3111,-3.3111,-3.3111,-3.3111,-3.2717,-3.2089,0.0,0.0,-0.9028,0.0,0.0,0.0,0.0,0.0,0.0,0.0,0.0,0.0,0.0,0.0,0.0,0.0,0.0,0.0,-1.3433,-1.3963,-1.445,-1.4872,-1.5924,-1.6639,-1.6825,-1.7361,-1.8216,-1.9374,-1.9449,-1.9885,-2.0665,-2.069,-2.0657,-2.0538,-2.0538,-2.0538,-2.0538,-2.0519,-2.0494,-2.0422,-1.9892,-1.9047,-1.8013,-1.6955,-1.5608,-1.4229,-1.3722,-1.3192,-1.2758,-1.2764,-1.3216,-1.3862,-1.4469,-1.6918,-1.9642,-2.0264,-2.1683,-2.3381,-2.5037,-2.602,-2.6826,-2.7821,-2.8072,-2.8097,-2.8021,-2.7253,-2.6474,-2.6424,-2.6399,-2.6172,-2.5536,-2.5511,-2.649,-2.9227,-2.9302,-2.998,-3.2692,-3.2139,-3.1662,0.0,0.0,0.0,0.0,0.0,0.0,-3.229,0.0,-3.2516,-3.3093,-3.3162,-3.3162,-3.3162,-3.3162,-3.3136,-3.3111,-3.3111,-3.3111,-3.3111,-3.3111,-3.3111,-3.3111,-3.3111,-3.3111,-3.3111,-3.3111,-3.3111,-3.3111,-3.3111,-3.3111,-3.3111,-3.3111,-3.3111,-3.3111,-3.3111,-3.2742,-3.219,0.0,0.0,0.0,0.0,0.0,0.0,0.0,0.0,0.0,0.0,0.0,0.0,0.0,0.0,0.0,0.0,0.0,0.0,-1.2752,-1.3353,-1.3708,-1.3712,-1.4824,-1.561,-1.6086,-1.6616,-1.7219,-1.7945,-1.8508,-1.8774,-1.8883,-1.9376,-1.9519,-1.9408,-1.9408,-1.9408,-1.9408,-1.9408,-1.9194,-1.8758,-1.8229,-1.7628,-1.6931,-1.6259,-1.5295,-1.4277,-1.4132,-1.3746,-1.336,-1.3746,-1.5375,-1.7337,-1.797,-1.9673,-2.1542,-2.2143,-2.3554,-2.5094,-2.5979,-2.6942,-2.7645,-2.7519,-2.7795,-2.7896,-2.7102,-2.67,-2.6273,-2.541,-2.4908,-2.433,-2.3326,-2.4481,-2.6113,-2.767,-2.9202,0.0,-3.2792,-3.2842,0.0,-3.224,0.0,-3.239,-3.224,-3.2591,0.0,0.0,-3.3093,-3.3093,-3.3671,-3.3696,-3.3696,-3.3696,-3.3696,-3.3495,-3.3111,-3.3111,-3.3111,-3.3111,-3.3111,-3.3111,-3.3111,-3.3111,-3.3111,-3.3111,-3.3111,-3.3111,-3.3111,-3.3111,-3.3111,-3.3111,-3.3111,-3.3111,-3.3111,-3.3111,-3.2993,-3.2767,0.0,0.0,0.0,0.0,0.0,0.0,0.0,0.0,0.0,0.0,0.0,0.0,0.0,0.0,0.0,0.0,0.0,0.0,0.0,-1.2812,-1.2997,-1.2936,-1.3545,-1.4082,-1.443,-1.4959,-1.5488,-1.6039,-1.6662,-1.7049,-1.7147,-1.7533,-1.7678,-1.7604,-1.7604,-1.7604,-1.7604,-1.7604,-1.7411,0.0,0.0,-1.6042,-1.5536,-1.4983,-1.4285,-1.3602,-1.3602,-1.4137,-1.5049,-1.6193,-1.758,-1.9047,-2.0266,-2.1815,-2.3318,-2.396,-2.5202,-2.6515,-2.7318,-2.7996,-2.8398,-2.8072,-2.8047,-2.7821,-2.6751,-2.6122,-2.536,-2.4004,-2.3276,-2.2548,-2.1418,-2.2824,-2.4607,-2.5988,-2.8273,0.0,-3.2114,-3.2767,-3.3043,0.0,-3.3244,0.0,-3.3319,-3.3621,-3.3922,0.0,-3.3746,-3.3671,-3.4223,-3.4248,-3.4248,-3.4248,-3.4248,-3.3997,-3.3445,-3.3194,-3.3111,-3.3111,-3.3111,-3.3111,-3.3111,-3.3111,-3.3111,-3.3111,0.0,-3.3111,-3.3111,-3.3111,-3.3111,-3.3111,-3.3111,-3.3111,-3.3111,-3.3111,-3.3111,-3.3043,0.0,0.0,0.0,0.0,0.0,0.0,0.0,0.0,0.0,-0.8643,-0.9171,-0.9722,-1.0217,-1.101,0.0,0.0,0.0,0.0,0.0,0.0,-1.2347,-1.2383,-1.2473,-1.2544,-1.2674,-1.3168,-1.3626,-1.4103,-1.4574,-1.5037,-1.5514,-1.5562,-1.561,-1.561,-1.561,-1.561,-1.561,-1.561,-1.5562,-1.5466,-1.4989,-1.4526,-1.4036,0.0,-1.3119,-1.2733,-1.2878,-1.4377,-1.6641,-1.8902,-1.9738,-2.015,-2.1989,-2.3642,-2.5045,-2.5653,-2.6615,-2.772,-2.8674,-2.8938,-2.8963,-2.8813,-2.8524,-2.7871,-2.6575,-2.5435,-2.4173,-2.2418,-2.1566,-2.0788,-1.966,-2.0916,-2.2648,-2.4299,-2.6882,-2.9327,-3.1135,-3.229,-3.3194,-3.3822,-3.3897,-3.4148,-3.4731,-3.4731,-3.4776,-3.4926,-3.4424,-3.4324,-3.4756,-3.4826,-3.4826,-3.4826,-3.47,-3.4374,-3.3897,-3.3345,-3.3111,-3.3111,-3.3111,-3.3111,-3.3111,-3.3111,-3.3111,-3.3111,0.0,0.0,-3.3111,-3.3111,-3.3111,-3.3111,-3.3111,-3.3111,-3.3111,-3.3111,-3.3111,-3.3111,0.0,0.0,0.0,0.0,0.0,0.0,0.0,0.0,-0.8067,-0.9112,-0.9505,-0.9782,-1.0098,-1.0667,0.0,0.0,0.0,0.0,0.0,0.0,0.0,-1.1763,-1.2216,-1.2508,-1.2526,-1.2728,-1.2878,-1.2975,-1.3486,-1.3799,-1.3896,-1.4349,-1.4566,-1.4566,-1.4566,-1.4566,-1.4566,-1.4566,-1.4301,-1.3896,-1.3799,-1.3438,-1.2975,-1.286,0.0,0.0,-1.3698,-1.4301,-1.5311,-1.9314,-2.1482,-2.2805,-2.4496,-2.5727,-2.6631,-2.6932,-2.777,-2.8637,-2.8838,-2.9277,-2.9428,-2.8473,-2.8524,-2.811,-2.5661,-2.4518,-2.3349,-2.1253,-1.998,-1.8933,-1.7861,-1.9459,-2.1493,-2.312,-2.5762,-2.8448,-3.1035,-3.1964,-3.2742,0.0,-3.3897,-3.4299,-3.5257,-3.4956,0.0,0.0,0.0,0.0,-3.5357,-3.5357,-3.5357,-3.5357,-3.4525,-3.3997,-3.3897,-3.3345,-3.3111,-3.3111,-3.3111,-3.3111,-3.3111,-3.3111,-3.3111,-3.3111,0.0,0.0,-3.3111,-3.3111,-3.3111,-3.3111,-3.3111,-3.3111,-3.3111,-3.3111,-3.3111,-3.3111,0.0,0.0,0.0,0.0,0.0,0.0,0.0,-0.7675,-0.821,-0.9204,-0.9613,-0.9923,-1.0188,-1.0443,-1.0774,0.0,0.0,0.0,0.0,0.0,0.0,-1.13,-1.1579,-1.1854,-1.2126,-1.2514,-1.266,-1.2597,0.0,-1.3305,-1.3095,-1.3281,-1.3401,-1.3457,-1.3457,-1.3457,-1.3457,-1.3457,-1.3312,-1.3095,-1.3095,-1.2926,-1.2709,-1.2709,0.0,0.0,-1.3502,-1.4257,-1.5178,-1.7897,-2.035,-2.2705,-2.5136,-2.6338,-2.6912,-2.7197,-2.7999,-2.8812,-2.8888,-2.9251,-2.9399,-2.8575,-2.8113,-2.719,-2.4325,-2.3343,-2.2205,-1.928,-1.8585,-1.8159,-1.699,-1.8682,-2.0591,-2.1669,-2.418,-2.6967,-2.9729,-3.0608,-3.1788,-3.4073,-3.4324,-3.4751,0.0,-3.573,0.0,0.0,0.0,0.0,-3.5981,-3.5981,-3.5981,-3.5981,-3.5177,-3.4625,-3.4324,-3.3771,-3.337,-3.3111,-3.3111,-3.3111,-3.3111,-3.3111,-3.3111,-3.3111,-3.3111,0.0,-3.3111,-3.3111,-3.3111,-3.3111,-3.3111,-3.3111,-3.3111,-3.3111,-3.3111,-3.3111,0.0,0.0,0.0,0.0,0.0,0.0,-0.6941,-0.7599,-0.842,-0.9368,-0.9656,-0.9902,-1.0306,-1.029,-1.041,0.0,0.0,0.0,0.0,0.0,0.0,0.0,-1.0943,-1.1207,-1.1616,0.0,0.0,0.0,-1.2654,0.0,0.0,0.0,0.0,0.0,-1.2383,-1.2401,-1.2401,-1.2419,-1.2437,0.0,0.0,-1.2562,-1.2752,0.0,0.0,0.0,0.0,-1.3869,-1.4763,-1.6335,-1.8398,-2.0798,-2.405,-2.5743,-2.6596,-2.6826,-2.7726,-2.8699,-2.885,-2.9098,-2.9217,-2.871,-2.7804,-2.6243,-2.3367,-2.2357,-2.1079,-1.7674,-1.7447,-1.7563,-1.6548,-1.7934,-1.9509,-2.0365,-2.2723,-2.5427,-2.8311,-2.9453,-3.116,-3.4304,-3.468,0.0,-3.6304,0.0,0.0,0.0,0.0,0.0,-3.6405,-3.6405,-3.6405,-3.6405,-3.583,-3.5282,-3.4856,-3.4248,-3.3696,-3.3244,-3.3144,-3.3111,-3.3111,-3.3111,-3.3111,-3.3111,-3.3111,0.0,0.0,-3.3111,-3.3111,-3.3111,-3.3111,-3.3111,-3.3111,-3.3111,-3.3111,-3.3111,0.0,0.0,0.0,0.0,0.0,0.0,-0.7158,-0.7637,-0.8464,-1.0,-0.966,-0.9585,-1.0387,-1.0245,-1.0173,0.0,0.0,0.0,0.0,0.0,0.0,0.0,0.0,0.0,0.0,0.0,0.0,0.0,0.0,0.0,0.0,0.0,0.0,0.0,0.0,0.0,-1.1449,-1.156,0.0,0.0,0.0,0.0,0.0,0.0,0.0,0.0,0.0,-1.2707,-1.2836,-1.5799,-1.6662,-1.7064,-2.0346,-2.3487,-2.5921,-2.5642,-2.7019,-2.8636,-2.885,-2.9021,-2.9022,-2.871,-2.7804,-2.6243,-2.3367,-2.1913,-2.036,-1.7434,-1.6873,-1.6773,-1.6298,-1.6876,-1.7984,-1.9635,-2.1766,-2.4399,-2.772,-2.9553,-3.1587,-3.4399,0.0,0.0,-3.6304,0.0,0.0,0.0,0.0,0.0,0.0,-3.6405,-3.6405,-3.6405,-3.583,-3.5483,-3.5433,-3.4424,-3.3872,-3.3822,-3.3319,-3.3111,-3.3111,-3.3111,-3.3111,-3.3111,0.0,0.0,0.0,-3.3111,-3.3111,-3.3111,-3.3111,-3.3111,-3.3111,-3.3111,-3.3111,-3.3111,0.0,0.0,0.0,0.0,0.0,0.0,-0.7176,-0.7654,-0.8375,-0.9723,-0.9619,-0.9593,-0.9974,-0.9934,-0.9855,-0.982,0.0,0.0,0.0,0.0,0.0,0.0,0.0,0.0,0.0,0.0,-1.0974,-1.1437,0.0,0.0,0.0,0.0,0.0,0.0,0.0,0.0,0.0,-1.13,0.0,0.0,0.0,0.0,0.0,0.0,0.0,0.0,0.0,0.0,-1.2403,-1.3584,-1.4653,-1.5591,-1.6056,-1.8608,-2.1825,-2.3832,-2.5589,-2.6979,-2.7591,-2.8088,-2.8324,-2.7875,-2.6698,-2.5022,-2.2493,-2.0991,-1.939,-1.6737,-1.6355,-1.6404,-1.612,-1.6685,-1.7591,-1.8858,-1.9956,-2.1888,-2.5486,-2.6621,-2.8612,-3.2717,-3.352,0.0,0.0,0.0,0.0,0.0,0.0,0.0,0.0,-3.6405,-3.6405,-3.6405,-3.6157,-3.5881,-3.5508,-3.5056,-3.455,-3.3897,-3.3671,-3.3395,-3.3111,-3.3111,-3.3111,-3.3111,0.0,0.0,0.0,-3.3111,-3.3111,-3.3111,-3.3111,-3.3111,-3.3111,-3.3111,-3.3111,-3.3111,0.0,0.0,0.0,0.0,0.0,-0.6421,-0.7055,-0.7586,-0.8271,-0.9298,-0.9414,-0.9491,-0.9654,-0.9593,-0.9523,-0.9421,-0.9563,0.0,0.0,0.0,0.0,0.0,0.0,0.0,0.0,0.0,-1.0548,-1.1226,-1.1226,-1.1328,0.0,0.0,0.0,0.0,0.0,0.0,0.0,0.0,0.0,0.0,0.0,0.0,0.0,0.0,0.0,0.0,0.0,0.0,0.0,0.0,0.0,-1.4024,-1.3337,-1.4949,-1.7859,-2.1458,-2.3701,-2.5244,-2.6385,-2.7164,-2.7597,-2.7308,-2.5852,-2.3886,-2.1677,-2.0105,-1.8464,-1.6079,-1.5915,-1.6149,-1.6031,-1.6448,-1.7179,-1.8191,-1.8907,-2.0578,-2.409,-2.5228,-2.7272,0.0,0.0,0.0,0.0,0.0,0.0,0.0,0.0,0.0,0.0,-3.6405,-3.6405,-3.6405,-3.6405,-3.6182,-3.578,-3.5583,-3.5031,-3.4148,-3.3972,-3.3621,-3.3111,-3.3111,-3.3111,-3.3111,0.0,0.0,0.0,-3.3111,-3.3111,-3.3111,-3.3111,-3.3111,-3.3111,-3.3111,-3.3111,-3.3111,0.0,0.0,0.0,0.0,0.0,-0.635,-0.6745,-0.7415,-0.8168,-0.8902,-0.9004,-0.9158,-0.9555,-0.9367,-0.9205,-0.9205,-0.9386,0.0,0.0,0.0,0.0,0.0,0.0,0.0,0.0,0.0,-0.9907,-1.0312,-1.0312,-1.0514,-1.0905,-1.0496,0.0,0.0,0.0,0.0,0.0,0.0,0.0,0.0,0.0,0.0,-1.1019,0.0,0.0,0.0,0.0,0.0,0.0,0.0,0.0,0.0,0.0,-1.3495,-1.4676,-1.8431,-2.1334,-2.3708,-2.5442,-2.6372,-2.6973,-2.7136,-2.5469,-2.3187,-2.1098,-1.9438,-1.7678,-1.5543,-1.5521,-1.5916,-1.5987,-1.6022,-1.641,-1.7602,-1.9149,-2.1223,-2.4183,-2.6482,-2.875,0.0,0.0,0.0,0.0,0.0,0.0,0.0,0.0,0.0,0.0,-3.6405,-3.6405,-3.6405,-3.6405,-3.6405,-3.6405,-3.5805,-3.5232,-3.47,-3.4148,-3.3621,-3.3111,-3.3111,-3.3111,0.0,0.0,0.0,0.0,-3.3111,-3.3111,-3.3111,-3.3111,-3.3111,-3.3111,-3.3111,-3.3111,-3.3111,0.0,0.0,0.0,0.0,0.0,0.0,-0.7004,-0.7346,-0.7774,-0.8547,-0.865,-0.8804,-0.9141,-0.9113,-0.9105,-0.9205,-0.9386,0.0,0.0,0.0,0.0,0.0,0.0,0.0,0.0,-0.996,-1.0312,-1.0717,-1.0989,-1.1191,-1.1301,-1.0897,-1.057,-1.0272,0.0,0.0,0.0,0.0,0.0,0.0,-1.0742,-1.098,-1.0978,0.0,0.0,0.0,0.0,0.0,0.0,0.0,0.0,0.0,0.0,0.0,0.0,-1.4665,-1.7445,-2.0121,-2.116,-2.1985,-2.2409,-2.1818,-2.1074,-2.0051,-1.8323,-1.7252,-1.6208,-1.4819,-1.4435,-1.4548,-1.5244,-1.5175,-1.5869,-1.8712,-1.925,-2.0621,-2.4427,-2.6108,0.0,0.0,0.0,0.0,0.0,0.0,0.0,0.0,0.0,0.0,0.0,-3.6405,-3.6405,-3.6405,-3.6405,-3.6405,-3.6405,-3.6182,-3.5629,-3.468,-3.455,-3.3972,-3.3111,-3.3111,0.0,0.0,0.0,0.0,0.0,-3.3111,-3.2723,-3.2133,-3.2853,-3.268,-3.2176,-3.2853,-3.3111,-3.3111,0.0,0.0,0.0,0.0,0.0,0.0,-0.6987,-0.7226,-0.7483,-0.798,-0.8308,-0.8583,-0.8804,-0.8939,-0.9044,-0.9125,-0.9286,0.0,0.0,0.0,0.0,0.0,0.0,0.0,-0.9623,-0.9921,-1.0419,-1.114,-1.1375,-1.1669,-1.1945,-1.154,-1.1067,-1.0514,-1.0107,-0.9851,0.0,0.0,0.0,0.0,-1.0305,-1.0481,-1.0602,0.0,0.0,0.0,0.0,0.0,0.0,0.0,0.0,0.0,0.0,0.0,0.0,0.0,-1.3987,-1.6211,-1.8199,-1.9351,-1.9825,-1.9253,-1.8725,-1.8006,-1.6721,-1.5753,-1.4944,-1.4185,-1.3789,-1.3858,-1.4651,-1.4605,-1.5277,-1.7865,-1.8528,-1.9776,-2.2891,-2.5139,0.0,0.0,0.0,0.0,0.0,0.0,0.0,0.0,0.0,0.0,0.0,0.0,-3.5187,-3.5187,-3.5978,-3.6405,-3.6405,-3.6405,-3.5906,-3.4981,-3.4781,-3.4248,-3.337,-3.3169,0.0,0.0,0.0,0.0,0.0,-3.2021,-3.1625,-3.1113,-3.1757,-3.1625,-3.1181,-3.1757,-3.2021,-3.2021,0.0,0.0,0.0,0.0,0.0,0.0,0.0,-0.7055,-0.7261,-0.7296,-0.798,-0.8481,-0.8499,-0.8785,-0.9004,-0.9004,-0.9125,0.0,0.0,0.0,0.0,0.0,0.0,0.0,-0.9504,-0.9678,-1.0325,-1.1467,-1.1535,-1.1981,-1.268,-1.2312,-1.1706,-1.0938,-1.0511,-1.0089,0.0,0.0,0.0,0.0,-0.9803,-0.9882,0.0,0.0,0.0,0.0,0.0,0.0,0.0,0.0,0.0,0.0,0.0,0.0,0.0,0.0,0.0,0.0,0.0,-1.7924,-1.8622,-1.8644,-1.7816,-1.677,-1.6006,-1.4915,0.0,-1.3638,-1.3549,-1.3713,-1.4294,-1.4298,-1.4668,-1.592,-1.7404,-1.892,-2.0462,-2.4132,0.0,0.0,0.0,0.0,0.0,0.0,0.0,0.0,0.0,0.0,0.0,0.0,-3.3201,-3.3201,-3.5114,-3.6168,-3.6168,-3.6168,-3.5893,-3.5251,-3.4794,-3.429,-3.3651,-3.3189,0.0,0.0,0.0,0.0,0.0,-3.0215,-3.017,-3.0125,-3.017,-3.017,-3.0125,-3.017,-3.0215,-3.0215,0.0,0.0,0.0,0.0,0.0,0.0,0.0,0.0,0.0,0.0,-0.7723,-0.8152,-0.8463,-0.8785,-0.9004,0.0,0.0,0.0,0.0,0.0,0.0,0.0,0.0,0.0,-0.9504,-1.0122,-1.0662,-1.1048,-1.1963,-1.2514,-1.2698,-1.2588,-1.2128,-1.1338,-1.0956,-1.0346,0.0,0.0,0.0,0.0,-0.9803,-0.9882,0.0,0.0,0.0,0.0,-1.0332,-1.0312,0.0,0.0,0.0,0.0,0.0,0.0,0.0,0.0,-1.0723,-1.1276,-1.224,0.0,-1.3911,-1.4282,-1.4129,-1.3961,0.0,-1.386,-1.3541,-1.316,-1.3065,-1.3511,-1.494,-1.4389,-1.4979,-1.8927,-1.9348,-2.0194,-2.2933,0.0,0.0,0.0,0.0,0.0,0.0,0.0,0.0,0.0,0.0,0.0,0.0,0.0,-3.3201,-3.3201,-3.3697,-3.3944,-3.3944,-3.3944,-3.3686,-3.3121,-3.3335,-3.2807,-3.1527,-3.1821,0.0,0.0,0.0,0.0,-3.0215,-3.0215,-2.9761,-2.9141,-2.9897,-2.9715,-2.9119,-2.9897,-3.0215,-3.0215,0.0,0.0,0.0,0.0,0.0,0.0,0.0,0.0,0.0,0.0,-0.7552,-0.798,-0.8186,-0.8699,-0.9004,0.0,0.0,0.0,0.0,0.0,0.0,0.0,-0.9188,-0.9288,-0.9406,-1.0143,-1.0812,-1.1448,-1.2275,-1.2882,-1.3249,-1.3249,-1.2716,-1.1742,-1.0971,-1.0272,0.0,0.0,0.0,-0.9744,-0.9744,0.0,0.0,0.0,0.0,0.0,-1.0157,-1.0196,0.0,-1.0956,-1.1056,-1.0919,0.0,0.0,0.0,0.0,-1.0449,-1.0625,-1.0625,-1.1699,-1.2847,-1.3105,-1.332,-1.3516,-1.375,-1.3496,-1.3145,-1.2954,-1.2915,-1.3303,-1.4627,-1.4446,-1.5215,-1.8618,-1.9231,-2.0496,0.0,0.0,0.0,0.0,0.0,0.0,0.0,0.0,0.0,0.0,0.0,0.0,0.0,0.0,-3.1761,-3.1761,-3.1761,-3.2196,-3.3201,-3.3201,-3.3063,-3.2787,-3.279,-3.2345,-3.1546,-3.132,0.0,0.0,0.0,0.0,-2.8841,-2.8841,-2.8538,-2.8139,-2.8678,-2.8538,-2.8139,-2.8678,-2.8841,-2.8841,0.0,0.0,0.0,0.0,0.0,0.0,0.0,0.0,0.0,0.0,0.0,0.0,0.0,0.0,0.0,0.0,0.0,0.0,0.0,0.0,0.0,-0.8805,-0.9108,-0.9321,-0.9386,-1.0011,-1.0907,-1.211,-1.2495,-1.3095,-1.3882,-1.3896,-1.3268,-1.2055,-1.0897,-1.0125,-0.9703,-0.9703,-0.9703,-0.9703,-0.9703,0.0,0.0,0.0,0.0,0.0,0.0,0.0,0.0,-1.156,-1.1758,-1.1645,-1.1833,0.0,0.0,0.0,0.0,0.0,-1.0547,-1.2109,-1.3652,-1.3457,-1.3743,-1.4133,-1.4192,-1.3633,-1.3066,-1.3066,-1.3066,-1.3398,-1.4406,-1.4824,-1.5654,-1.7656,-1.8843,0.0,0.0,0.0,0.0,0.0,0.0,0.0,0.0,0.0,0.0,0.0,0.0,0.0,0.0,0.0,0.0,-2.9942,-2.9994,-3.0836,-3.27,-3.27,-3.27,-3.27,-3.2351,-3.2052,-3.1931,-3.1009,-3.0086,0.0,0.0,0.0,-2.7309,-2.7309,-2.7309,-2.7309,-2.7309,-2.7309,-2.7309,-2.7309,-2.7309,-2.7309,0.0,0.0,0.0,0.0,0.0,0.0,0.0,0.0,0.0,0.0,0.0,0.0,0.0,0.0,0.0,0.0,0.0,0.0,0.0,0.0,0.0,-0.791,-0.8744,-0.9399,-0.9793,-1.0241,-1.0998,-1.211,-1.237,-1.2998,-1.3901,-1.39,-1.3281,-1.2055,-1.1173,-1.0404,-0.9703,-0.9703,-0.9703,-0.9703,-0.9703,0.0,0.0,0.0,0.0,0.0,0.0,0.0,0.0,-1.0624,-1.1036,-1.1489,-1.0802,0.0,0.0,0.0,0.0,0.0,-1.1621,-1.3223,-1.4336,-1.3242,-1.3555,-1.4192,-1.4609,-1.4297,-1.3919,-1.3919,-1.3919,-1.4523,-1.6523,-1.6359,-1.6946,-2.0079,0.0,0.0,0.0,0.0,0.0,0.0,0.0,0.0,0.0,0.0,0.0,0.0,0.0,0.0,0.0,0.0,0.0,-2.9659,-2.9889,-3.0151,-3.0495,-3.0495,-3.0495,-3.0495,-3.0853,-3.0586,-2.9758,-2.964,-2.9063,0.0,0.0,-2.7452,-2.7309,-2.7309,-2.7309,-2.7309,-2.7309,-2.7309,-2.7309,-2.7309,-2.7309,-2.7309,0.0,0.0,0.0,0.0,0.0,0.0,0.0,0.0,0.0,0.0,0.0,0.0,0.0,0.0,0.0,0.0,0.0,0.0,0.0,-0.8394,-0.8141,-0.7566,-0.8266,-0.8996,-0.9734,-0.9838,-1.0714,-1.2328,-1.2298,-1.2679,-1.3424,-1.3152,-1.2706,-1.2055,-1.1269,-1.0438,-0.9703,-0.9703,-0.9703,-0.9703,0.0,0.0,0.0,0.0,0.0,0.0,0.0,0.0,0.0,0.0,-1.1536,-1.1816,-1.1193,0.0,0.0,0.0,0.0,0.0,-1.1016,-1.2598,-1.4004,-1.3652,-1.4902,-1.6211,-1.6191,-1.5859,-1.5498,-1.5498,-1.5498,-1.5946,-1.7461,-1.7773,-1.8711,-2.1484,0.0,0.0,0.0,0.0,0.0,0.0,0.0,0.0,0.0,0.0,0.0,0.0,0.0,0.0,0.0,0.0,0.0,0.0,-2.9448,-2.9501,-2.9501,-2.9501,-2.9679,-2.9994,-3.0284,-3.0128,-2.9642,-2.904,-2.8522,-2.8008,0.0,-2.6928,-2.7071,-2.7071,-2.7071,-2.7071,-2.7262,-2.7214,-2.7071,-2.7262,-2.7309,-2.7309,0.0,0.0,0.0,0.0,0.0,0.0,0.0,0.0,0.0,0.0,0.0,0.0,0.0,0.0,0.0,0.0,0.0,0.0,0.0,-0.8147,-0.7814,-0.7194,-0.7628,-0.8406,-0.9572,-0.9606,-1.0527,-1.2406,-1.212,-1.2272,-1.2838,-1.255,-1.2188,-1.178,-1.1139,-1.0357,-0.9543,-0.9543,-0.9543,-0.9543,0.0,0.0,0.0,0.0,0.0,0.0,0.0,0.0,0.0,0.0,0.0,0.0,0.0,0.0,0.0,-1.1213,-1.0762,-1.0665,-1.0978,-1.2246,-1.3652,-1.425,-1.5996,-1.7578,-1.7656,-1.7344,-1.7058,-1.7252,-1.7291,-1.7598,-1.8457,-1.9551,0.0,-2.2402,0.0,0.0,0.0,0.0,0.0,0.0,0.0,0.0,0.0,0.0,0.0,0.0,0.0,0.0,0.0,0.0,0.0,0.0,-2.9079,-2.9079,-2.9079,-2.9079,-2.9343,-2.9889,-2.9837,-2.9775,-2.9704,-2.8625,-2.8045,-2.7903,-2.6936,-2.6592,-2.6805,-2.6805,-2.6805,-2.6853,-2.7023,-2.6976,-2.6853,-2.7119,-2.7214,-2.7214,0.0,0.0,0.0,0.0,0.0,0.0,0.0,0.0,0.0,0.0,0.0,-0.8135,0.0,0.0,0.0,0.0,0.0,0.0,-0.7786,-0.7349,-0.6914,-0.6483,-0.6738,-0.7762,-0.956,-1.0024,-1.0846,-1.2151,-1.1806,-1.1917,-1.2444,-1.258,-1.2046,-1.088,-1.0763,-1.0079,-0.9044,-0.9044,-0.9044,-0.9044,-0.9044,0.0,0.0,0.0,0.0,0.0,0.0,0.0,0.0,0.0,0.0,0.0,0.0,0.0,-1.2837,-1.2739,-1.2132,-1.176,-1.2949,-1.3379,-1.3809,-1.4991,-1.5762,-1.6652,-1.8149,-1.8188,-1.8144,-1.8945,-1.9102,-1.9355,-2.0253,-2.207,0.0,0.0,0.0,0.0,0.0,0.0,0.0,0.0,0.0,0.0,0.0,0.0,0.0,0.0,0.0,0.0,0.0,0.0,0.0,0.0,0.0,-2.9079,-2.9079,-2.9079,-2.929,-2.9606,-2.929,-2.912,-2.8952,-2.8178,-2.7653,-2.723,-2.6697,-2.6496,-2.6544,-2.6544,-2.6544,-2.6544,-2.6544,-2.6544,-2.6544,-2.6853,-2.6948,-2.6948,0.0,0.0,0.0,0.0,0.0,0.0,0.0,0.0,0.0,0.0,0.0,-0.7855,-0.8162,-0.7801,-0.7718,0.0,0.0,0.0,-0.7266,-0.7098,-0.6894,-0.6647,-0.6789,-0.7359,-0.841,-0.895,-1.0089,-1.1838,-1.1269,-1.1365,-1.2142,-1.1404,-1.1009,-1.0843,-1.0352,-0.9768,-0.9103,-0.8958,-0.8882,-0.8866,-0.8659,-0.8561,0.0,0.0,0.0,0.0,0.0,0.0,0.0,0.0,-1.153,-1.2067,-1.127,-1.168,-1.2422,-1.2171,-1.1643,-1.1328,-1.2113,-1.3086,-1.4055,-1.4824,-1.6152,-1.7578,-1.8769,-1.9551,-2.0254,-2.1113,-2.1504,-2.1699,-2.1758,0.0,-2.3418,0.0,0.0,0.0,0.0,0.0,0.0,0.0,0.0,0.0,0.0,0.0,0.0,0.0,0.0,0.0,0.0,0.0,0.0,0.0,0.0,-2.8088,-2.7811,-2.7791,-2.7946,-2.8256,-2.8589,-2.8701,-2.8603,-2.7623,-2.7122,-2.6943,-2.626,-2.611,-2.6235,-2.6235,-2.6235,-2.6235,-2.6235,-2.6352,-2.6496,-2.6592,-2.664,-2.664,0.0,0.0,0.0,0.0,0.0,0.0,0.0,0.0,-0.7198,0.0,0.0,0.0,0.0,-0.7287,-0.7182,0.0,0.0,0.0,-0.7006,-0.688,-0.6778,-0.6716,-0.6834,-0.7139,-0.7685,-0.8289,-0.9417,-1.1131,-1.0767,-1.086,-1.1368,-1.0322,-1.0065,-1.0466,-0.9941,-0.9494,-0.9126,-0.886,-0.8683,-0.8545,-0.825,-0.8111,0.0,0.0,0.0,0.0,0.0,0.0,0.0,0.0,-1.1624,-1.1914,-1.131,-1.1621,-1.2184,-1.2054,-1.1953,-1.195,-1.2152,-1.3125,-1.427,-1.5,-1.6504,-1.8184,-1.959,-2.0703,-2.1719,-2.2715,-2.3144,-2.3179,-2.2793,-2.312,0.0,0.0,0.0,0.0,0.0,0.0,0.0,0.0,0.0,0.0,0.0,0.0,0.0,0.0,0.0,0.0,0.0,0.0,0.0,0.0,0.0,-2.7324,-2.7012,-2.7012,-2.7114,-2.7298,-2.768,-2.7861,-2.7943,-2.7092,-2.6586,-2.6448,-2.5908,-2.5771,-2.5965,-2.5965,-2.5965,-2.5965,-2.5965,-2.611,-2.6255,-2.6352,-2.6352,-2.64,0.0,0.0,0.0,0.0,0.0,0.0,-0.6996,-0.7097,-0.7232,-0.7638,-0.7287,0.0,0.0,0.0,0.0,0.0,-0.7266,0.0,-0.7006,-0.6617,-0.6425,-0.6498,-0.6758,-0.7144,-0.7682,-0.828,-0.9025,-0.9901,-1.0345,-1.0419,-1.007,-0.948,-0.9343,-0.9588,-0.9524,-0.93,-0.8983,-0.8714,-0.8395,-0.8077,-0.7808,-0.7703,-0.7745,0.0,0.0,0.0,0.0,0.0,0.0,0.0,-1.2308,-1.1763,-1.2621,-1.2578,-1.2301,-1.2734,-1.3457,-1.3997,-1.3588,-1.3782,-1.4426,-1.5772,-1.6789,-1.8086,-2.0625,-2.1582,-2.2266,-2.3535,-2.3809,-2.3672,-2.3198,-2.3803,0.0,0.0,0.0,0.0,0.0,0.0,0.0,0.0,0.0,0.0,0.0,0.0,0.0,0.0,0.0,0.0,0.0,0.0,0.0,0.0,0.0,0.0,-2.7012,-2.7012,-2.7012,-2.6992,-2.6582,-2.6516,-2.6814,-2.6516,-2.6152,-2.5693,-2.5693,-2.5693,-2.5693,-2.5693,-2.5693,-2.5693,-2.5693,-2.5693,-2.5742,-2.6014,-2.6091,-2.6139,0.0,0.0,0.0,0.0,0.0,0.0,-0.6629,-0.6672,-0.6713,-0.679,-0.666,0.0,0.0,0.0,0.0,0.0,0.0,-0.6575,-0.6575,-0.6511,-0.6489,-0.6498,-0.6757,-0.7067,-0.7419,-0.8092,-0.8778,-0.9414,-0.9564,-0.9556,-0.9453,-0.9086,-0.9045,-0.933,-0.9549,-0.9248,-0.8564,-0.8506,-0.8263,-0.7925,-0.7656,-0.7554,-0.7634,0.0,0.0,0.0,0.0,0.0,0.0,0.0,0.0,0.0,-1.1277,-1.1944,-1.2969,-1.221,-1.2602,-1.3223,-1.3105,-1.4023,-1.5245,-1.6289,-1.832,-2.0449,-2.1775,-2.2418,-2.3179,-2.4824,-2.4668,-2.4199,-2.4062,-2.4258,0.0,0.0,0.0,0.0,0.0,0.0,0.0,0.0,0.0,0.0,0.0,0.0,0.0,0.0,0.0,0.0,0.0,0.0,0.0,0.0,0.0,0.0,-2.6064,-2.6064,-2.6064,-2.6064,-2.5947,-2.6143,-2.6516,-2.6074,-2.581,-2.5693,-2.5693,-2.5693,-2.5693,-2.5693,-2.5693,-2.5693,-2.5693,-2.5693,-2.5693,-2.5771,-2.582,-2.582,0.0,0.0,0.0,0.0,0.0,0.0,-0.6272,-0.6379,-0.6437,-0.6413,-0.6395,-0.6395,0.0,0.0,0.0,-0.6395,-0.6438,-0.6447,-0.6447,-0.6532,-0.6596,-0.666,-0.6808,-0.7045,-0.7379,-0.8045,-0.8456,-0.8537,-0.8778,-0.8924,-0.9031,-0.8858,-0.9058,-0.9564,-0.978,-0.9432,-0.8711,-0.8591,-0.8377,-0.8083,-0.7776,-0.7655,-0.7715,0.0,0.0,0.0,0.0,0.0,0.0,0.0,0.0,0.0,-1.0776,-1.1601,-1.2827,-1.2051,-1.2793,-1.3926,-1.4128,-1.5391,-1.6953,-1.7988,-1.9883,-2.1855,-2.3223,-2.373,-2.4258,-2.544,-2.5176,-2.4727,-2.4902,-2.4805,0.0,0.0,0.0,0.0,0.0,0.0,0.0,0.0,0.0,0.0,0.0,0.0,0.0,0.0,0.0,0.0,0.0,0.0,0.0,0.0,0.0,0.0,-2.5693,-2.5693,-2.5693,-2.5693,-2.5693,-2.583,-2.6113,-2.581,-2.5693,-2.5693,-2.5693,-2.5693,-2.5693,-2.5693,-2.5693,-2.5693,-2.5693,-2.5693,-2.5693,-2.5693,-2.5693,-2.5693,0.0,0.0,-0.532,-0.5278,0.0,-0.5724,-0.5991,-0.6246,-0.6395,-0.6395,-0.6395,-0.6395,0.0,0.0,0.0,-0.6416,-0.6468,-0.6498,-0.652,-0.6638,-0.6766,-0.6893,-0.6967,-0.7154,-0.7517,-0.808,-0.808,-0.7513,-0.808,-0.8509,-0.8764,-0.8791,-0.9259,-1.0043,-1.0043,-0.971,-0.9111,-0.8818,-0.8564,-0.8295,-0.7979,-0.7859,-0.7872,-0.7899,0.0,0.0,0.0,0.0,0.0,0.0,0.0,0.0,-1.0834,-1.1465,-1.2196,-1.2102,-1.3607,-1.5391,-1.5811,-1.7168,-1.8831,-2.0273,-2.1447,-2.2695,-2.4668,-2.5137,-2.5254,-2.5596,-2.541,-2.5254,-2.5615,0.0,0.0,0.0,0.0,0.0,0.0,0.0,0.0,0.0,0.0,0.0,0.0,0.0,0.0,0.0,0.0,0.0,0.0,0.0,0.0,0.0,0.0,0.0,-2.5693,-2.5693,-2.5693,0.0,-2.5693,-2.5693,-2.5693,-2.5693,-2.5693,-2.5693,-2.5693,-2.5693,-2.5693,-2.5693,-2.5693,-2.5693,-2.5693,-2.5693,-2.5693,-2.5693,-2.5693,-2.5693,0.0,0.0,-0.5596,-0.5791,0.0,0.0,-0.6283,-0.6359,-0.6395,-0.6395,-0.6395,-0.6395,-0.6395,-0.6395,0.0,-0.6468,-0.6477,-0.6553,-0.6638,-0.6787,-0.6872,-0.6893,-0.7405,-0.7716,-0.7806,-0.7939,-0.7842,-0.7513,-0.7842,-0.8176,-0.8496,-0.8697,-0.9152,-0.978,-0.978,-0.9325,-0.8537,-0.8218,-0.7936,-0.7678,-0.7611,-0.7584,-0.7611,-0.7819,-0.8024,0.0,0.0,0.0,0.0,0.0,0.0,0.0,-1.0318,-1.1165,-1.2067,-1.1376,-1.2691,-1.4406,-1.4504,-1.6074,-1.8203,-2.0508,-2.2754,-2.459,-2.541,-2.5586,-2.5625,-2.5674,-2.5615,-2.5625,0.0,0.0,0.0,0.0,0.0,0.0,0.0,0.0,0.0,0.0,0.0,0.0,0.0,0.0,0.0,0.0,0.0,0.0,0.0,0.0,0.0,0.0,0.0,-2.5693,-2.5693,-2.5693,-2.5693,0.0,-2.5693,-2.5693,-2.5693,-2.5693,-2.5693,-2.5693,-2.5693,-2.5693,-2.5693,-2.5693,-2.5693,-2.5693,-2.5693,-2.5693,-2.5693,-2.5693,-2.5693,-2.5693,0.0,0.0,0.0,0.0,0.0,0.0,0.0,0.0,-0.6395,-0.6395,-0.6395,-0.6395,-0.6395,-0.6425,0.0,0.0,-0.6605,-0.6723,-0.6787,-0.6893,-0.6943,-0.6943,-0.7446,-0.7709,-0.7709,-0.7832,-0.7832,-0.7682,-0.7832,-0.8125,-0.8591,-0.9018,-0.9619,-1.0301,-1.002,-0.9552,-0.8978,-0.8205,-0.7923,-0.7906,-0.7749,-0.7799,-0.7919,-0.7899,-0.7866,-0.7824,-0.788,0.0,0.0,0.0,0.0,0.0,0.0,0.0,-1.1812,-1.1382,-1.2604,-1.425,-1.4883,-1.6641,-1.9023,-2.2012,-2.3769,-2.4922,-2.5538,-2.5693,-2.5693,-2.5693,-2.5693,0.0,0.0,0.0,0.0,0.0,0.0,0.0,0.0,0.0,0.0,0.0,0.0,0.0,0.0,0.0,0.0,0.0,0.0,0.0,0.0,0.0,0.0,0.0,-2.5693,-2.5693,-2.5693,-2.5693,-2.5693,-2.5693,-2.5693,-2.5693,-2.5693,-2.5693,-2.5693,-2.5693,-2.5693,-2.5693,-2.5693,-2.5693,-2.5693,-2.5693,-2.5693,-2.5693,-2.5693,-2.5693,-2.5693,-2.5693,0.0,0.0,0.0,0.0,0.0,0.0,0.0,0.0,0.0,-0.6395,-0.6395,-0.6416,-0.6404,-0.6468,-0.6498,0.0,0.0,0.0,-0.6893,-0.6964,-0.702,-0.7073,-0.7388,-0.7571,-0.7571,-0.7779,-0.7885,-0.7832,-0.7832,-0.8205,-0.8965,-0.9459,-1.0184,-1.0969,-1.0327,-0.9846,-0.9459,-0.8365,-0.7992,-0.8147,-0.7936,-0.7963,-0.8147,-0.7923,-0.7718,-0.7535,-0.7513,-0.7524,-0.7581,-0.7699,0.0,0.0,0.0,0.0,-1.1393,-1.1463,-1.2624,-1.4133,-1.5341,-1.7513,-2.0156,-2.3301,-2.4316,-2.4727,-2.5449,-2.5635,-2.5693,-2.5693,0.0,0.0,0.0,0.0,0.0,0.0,0.0,0.0,0.0,0.0,0.0,0.0,0.0,0.0,0.0,0.0,0.0,0.0,0.0,0.0,0.0,0.0,-2.5693,-2.5693,-2.5693,-2.5693,-2.5693,-2.5693,-2.5693,-2.5693,-2.5693,-2.5693,-2.5693,-2.5693,-2.5693,-2.5693,-2.5693,-2.5693,-2.5693,-2.5693,-2.5693,-2.5693,-2.5693,-2.5693,-2.5693,-2.5693,-2.5693,-2.5693,0.0,0.0,0.0,0.0,0.0,0.0,0.0,0.0,0.0,0.0,-0.6395,-0.6438,-0.6489,-0.6498,-0.6553,-0.6672,-0.6808,-0.6893,-0.6893,0.0,0.0,-0.7424,-0.7709,-0.7846,-0.7846,-0.7885,-0.7779,-0.7544,-0.7544,-0.8255,-0.9595,-0.9675,-1.0184,-1.0955,-1.0114,-0.9432,-0.8884,-0.8192,-0.7619,-0.7206,-0.7464,-0.7402,-0.7206,-0.7464,-0.7598,-0.7661,-0.7616,-0.7843,-0.8114,-0.7695,-0.781,0.0,0.0,0.0,-1.0524,-1.0903,-1.1954,-1.3164,-1.3691,-1.6777,-2.0293,-2.2266,-2.3887,-2.5067,-2.5137,-2.5449,-2.5693,0.0,0.0,0.0,0.0,0.0,0.0,0.0,0.0,0.0,0.0,0.0,0.0,0.0,0.0,0.0,0.0,0.0,0.0,0.0,0.0,0.0,0.0,-2.5693,-2.5693,-2.5693,-2.5693,-2.5693,-2.5693,-2.5693,-2.5693,-2.5693,-2.5693,-2.5693,-2.5693,-2.5693,-2.5693,-2.5693,-2.5693,-2.5693,-2.5693,-2.5693,-2.5693,-2.5693,-2.5693,-2.5693,-2.5693,-2.5693,-2.5693,-2.5693,0.0,0.0,0.0,0.0,0.0,0.0,0.0,0.0,0.0,0.0,0.0,-0.6416,-0.6447,-0.6489,-0.6553,-0.6694,-0.6808,-0.6914,-0.6943,-0.6985,-0.706,-0.7214,-0.7326,-0.7473,-0.7669,-0.7669,-0.7682,-0.7722,-0.7722,-0.8564,-1.0198,-1.0198,-1.0854,-1.1966,-1.0889,-1.0367,-1.018,-0.8778,-0.8123,-0.7979,-0.7802,-0.8043,-0.8457,-0.7923,-0.8185,-0.8761,-0.8236,-0.8163,-0.8269,-0.8025,-0.8024,-0.8165,-0.8459,0.0,0.0,0.0,-1.1396,-1.2871,-1.4779,-1.7051,-1.9434,-2.1894,-2.3086,-2.3887,-2.4891,-2.5019,-2.5089,0.0,0.0,0.0,0.0,0.0,0.0,0.0,0.0,0.0,0.0,0.0,0.0,0.0,0.0,0.0,0.0,0.0,0.0,0.0,0.0,0.0,-2.5693,-2.5693,-2.5693,-2.5693,-2.5693,-2.5693,-2.5693,-2.5693,-2.5693,-2.5693,-2.5693,-2.5693,-2.5693,-2.5693,-2.5693,-2.5693,-2.5693,-2.5693,-2.5693,-2.5693,-2.5693,-2.5693,-2.5693,-2.5693,-2.5693,-2.5693,-2.5898,-2.6094,0.0,0.0,0.0,0.0,0.0,0.0,0.0,0.0,0.0,0.0,0.0,-0.6425,-0.648,0.0,0.0,0.0,-0.6851,-0.6943,-0.7006,-0.7006,-0.7006,-0.7006,-0.7153,-0.7259,-0.737,-0.7531,-0.7615,-0.7672,-0.7832,-0.8831,-1.06,-1.0747,-1.1645,-1.3079,-1.185,-1.1276,-1.1102,-0.9447,-0.8751,-0.8778,-0.8392,-0.8711,-0.9392,-0.8818,-0.9138,-0.9809,-0.8858,-0.8516,-0.8484,-0.8119,-0.8098,-0.8222,-0.8157,-0.8776,0.0,0.0,0.0,-1.2382,-1.5148,-1.659,-1.8008,-2.0703,-2.1777,-2.2578,-2.4082,0.0,0.0,0.0,0.0,0.0,0.0,0.0,0.0,0.0,0.0,0.0,0.0,0.0,0.0,0.0,0.0,0.0,0.0,0.0,0.0,0.0,0.0,0.0,-2.5693,-2.5693,-2.5693,-2.5693,-2.5693,-2.5693,-2.5693,-2.5693,-2.5693,-2.5693,-2.5693,-2.5693,-2.5693,-2.5693,-2.5693,-2.5693,-2.5693,-2.5693,-2.5693,-2.5693,-2.5693,-2.5693,-2.5693,-2.5693,-2.5693,-2.581,-2.6113,-2.6406,0.0,0.0,0.0,0.0,0.0,0.0,-0.6395,-0.6395,0.0,0.0,0.0,-0.6553,-0.6672,-0.6787,-0.6872,-0.6893,-0.6943,-0.7006,-0.7006,-0.7006,-0.7006,-0.7006,-0.7552,0.0,-0.7033,-0.7592,-0.7606,-0.7046,-0.7619,-0.8831,-1.06,-1.1129,-1.2318,-1.3961,-1.2772,-1.1623,-1.06,-0.993,-0.9299,-0.8831,-0.9044,-0.9018,-0.8965,-1.005,-1.0492,-1.0399,-0.9205,-0.8951,-0.8951,0.0,-0.7709,-0.8264,-0.8066,-0.8693,-0.9498,0.0,0.0,0.0,-1.3175,-1.459,-1.5977,-1.7793,-1.9748,-2.1502,-2.2441,0.0,0.0,0.0,0.0,0.0,0.0,0.0,0.0,0.0,0.0,0.0,0.0,0.0,0.0,0.0,0.0,0.0,0.0,0.0,0.0,0.0,0.0,0.0,-2.5693,-2.5693,-2.5693,-2.5693,-2.5693,-2.5693,-2.5693,-2.5693,-2.5693,-2.5693,-2.5693,-2.5693,-2.5693,-2.5693,-2.5693,-2.5693,-2.5693,-2.5693,-2.5693,-2.5693,-2.5693,-2.5693,-2.5693,-2.5693,-2.5732,-2.6191,-2.6367,-2.6445,0.0,0.0,0.0,0.0,0.0,0.0,-0.6395,-0.6425,-0.6447,0.0,0.0,0.0,0.0,-0.6617,-0.6723,-0.6893,-0.6964,-0.7006,-0.7006,-0.7006,-0.7006,-0.7006,-0.7415,-0.7558,-0.733,-0.7544,-0.7544,-0.733,-0.7335,-0.8257,-1.0037,-1.0207,-1.1156,-1.269,-1.2412,-1.2171,-1.1913,-1.0528,-0.9953,-0.997,-1.0077,-1.0399,-1.0795,-1.1022,-1.1579,-1.2085,-1.1076,0.0,0.0,0.0,0.0,0.0,-0.8815,-0.8869,-0.9097,-0.9668,-1.0238,-1.1025,-1.2575,-1.3463,-1.443,-1.6313,-1.7969,-1.9531,-2.0937,-2.2148,0.0,0.0,0.0,0.0,0.0,0.0,0.0,0.0,0.0,0.0,0.0,0.0,0.0,0.0,0.0,0.0,0.0,0.0,0.0,0.0,0.0,0.0,-2.5693,-2.5693,-2.5693,-2.5693,-2.5693,-2.5693,-2.5693,-2.5693,-2.5693,-2.5693,-2.5693,-2.5693,-2.5693,-2.5693,-2.5693,-2.5693,-2.5693,-2.5693,-2.5693,-2.5693,-2.5693,-2.5693,-2.5693,-2.5693,-2.5752,-2.623,-2.6562,-2.6855,0.0,0.0,-0.6395,-0.6395,0.0,-0.6395,-0.6395,-0.6425,-0.6468,-0.6425,0.0,0.0,0.0,0.0,-0.6732,-0.6914,-0.6964,-0.7006,-0.7006,-0.7006,-0.7046,-0.7161,-0.7383,-0.7513,-0.7513,-0.7513,-0.7437,-0.7343,-0.7299,-0.8059,-0.9539,-0.9633,-1.0492,-1.1899,-1.1663,-1.1944,-1.2543,-1.1142,-1.0675,-1.0894,-1.0988,-1.1377,-1.1953,-1.2318,-1.2849,-1.3328,0.0,0.0,0.0,0.0,0.0,0.0,-0.971,-0.9267,-0.9017,-0.977,-1.0254,-1.0746,-1.1765,-1.2419,-1.3158,-1.4799,-1.5983,-1.7254,-1.9448,0.0,0.0,0.0,0.0,0.0,0.0,0.0,0.0,0.0,0.0,0.0,0.0,0.0,0.0,0.0,0.0,0.0,0.0,0.0,0.0,0.0,0.0,0.0,-2.5693,-2.5693,-2.5693,-2.5693,-2.5693,-2.5693,-2.5693,-2.5693,-2.5693,-2.5693,-2.5693,-2.5693,-2.5693,-2.5693,-2.5693,-2.5693,-2.5693,-2.5693,-2.5693,-2.5693,-2.5693,-2.5693,-2.5693,-2.5771,-2.6016,-2.6445,-2.6875,-2.7285,-0.6395,-0.6395,-0.6407,-0.6407,-0.6407,-0.6419,-0.6441,-0.6428,-0.645,-0.6523,0.0,0.0,0.0,0.0,0.0,-0.702,-0.702,-0.702,-0.702,-0.702,-0.7174,-0.7477,-0.7513,-0.7504,-0.7513,-0.7513,-0.7357,-0.702,-0.7606,-0.8338,-0.9204,-0.9526,-1.0452,-1.1792,-1.0608,-1.0902,-1.2211,-1.1623,-1.1375,-1.1442,-1.1744,-1.1926,-1.2154,-1.3854,-1.4349,0.0,-1.3789,-1.3457,0.0,-1.2113,0.0,0.0,-1.0638,-0.987,-0.9313,-0.9824,-1.0175,-1.0458,0.0,0.0,0.0,-1.3151,0.0,0.0,-1.777,0.0,0.0,0.0,0.0,0.0,0.0,0.0,0.0,0.0,0.0,0.0,0.0,0.0,0.0,0.0,0.0,0.0,0.0,0.0,0.0,0.0,0.0,-2.5693,-2.5693,-2.5693,-2.5693,-2.5693,-2.5693,-2.5693,-2.5693,-2.5693,-2.5693,-2.5693,-2.5693,-2.5693,-2.5693,-2.5693,-2.5693,-2.5693,-2.5693,-2.5693,-2.5693,-2.5693,-2.5693,-2.5693,-2.5693,-2.5996,-2.6445,-2.6855,-2.7285,-2.7787,-0.6395,-0.6552,-0.6696,-0.6696,-0.6854,-0.7011,-0.7115,-0.6999,-0.6994,0.0,0.0,0.0,-0.7185,-0.7282,-0.737,-0.737,-0.7548,-0.7566,-0.7383,-0.7526,-0.7615,-0.7491,-0.7682,-0.7695,-0.7513,-0.7513,-0.7558,-0.7659,-0.7615,-0.8056,-0.8898,-0.9005,-0.9499,-1.0305,-0.9953,-1.0261,-1.1042,-1.0421,-1.0902,-1.2024,-1.169,-1.2429,-1.3804,-1.4099,0.0,0.0,0.0,-1.5156,-1.5148,0.0,-1.3463,-1.2447,0.0,-1.016,-0.9681,-0.9482,-0.9952,-1.0468,-1.0177,0.0,0.0,0.0,0.0,0.0,0.0,0.0,0.0,0.0,0.0,0.0,0.0,0.0,0.0,0.0,0.0,0.0,0.0,0.0,0.0,0.0,0.0,0.0,0.0,0.0,0.0,0.0,-2.5693,-2.5693,-2.5693,-2.5693,-2.5693,-2.5693,-2.5693,-2.5693,-2.5693,-2.5693,-2.5693,-2.5693,-2.5693,-2.5693,-2.5693,-2.5693,-2.5693,-2.5693,-2.5693,-2.5693,-2.5693,-2.5693,-2.5693,-2.5693,-2.5693,-2.5996,-2.6445,-2.6855,-2.7285,-2.7787,-0.672,-0.6912,-0.7093,-0.7192,-0.7339,-0.7536,-0.781,-0.7607,-0.7556,0.0,0.0,0.0,-0.7896,-0.8218,-0.8268,-0.7906,-0.7896,-0.7779,-0.7504,-0.7642,-0.7655,-0.7513,-0.7762,-0.7819,-0.7669,-0.7655,-0.7682,-0.7736,-0.7584,-0.7759,-0.8243,-0.8123,-0.851,-0.9312,-0.9058,-0.9486,-1.0341,-0.9753,-1.0514,-1.2181,-1.2537,-1.3422,-1.4558,-1.5116,-1.5882,0.0,0.0,0.0,-1.6627,-1.6267,-1.5043,0.0,-1.1861,-1.1089,-1.0552,-0.9967,-1.0448,-1.1034,-1.0317,-1.0523,-1.0959,0.0,0.0,0.0,0.0,-1.4475,0.0,0.0,0.0,0.0,0.0,0.0,0.0,0.0,0.0,0.0,0.0,0.0,0.0,0.0,0.0,0.0,0.0,0.0,0.0,0.0,-2.5693,-2.5693,-2.5693,-2.5693,-2.5693,-2.5693,-2.5693,-2.5693,-2.5693,-2.5693,-2.5693,-2.5693,-2.5693,-2.5693,-2.5693,-2.5693,-2.5693,-2.5693,-2.5693,-2.5693,-2.5693,-2.5693,-2.5693,-2.5693,-2.5693,-2.6113,-2.668,-2.6914,-2.7402,-2.7969,0.0,-0.7338,-0.7523,-0.7784,-0.7909,-0.8125,-0.859,-0.8292,-0.8189,0.0,-0.862,-0.8619,-0.9031,-0.9472,-0.9461,-0.871,-0.831,-0.7976,-0.7665,-0.7638,-0.7598,-0.7513,-0.7802,-0.7912,-0.7806,-0.7899,-0.7816,-0.7513,-0.7517,-0.7544,-0.7531,-0.7241,-0.7646,-0.8631,-0.8085,-0.8631,-0.991,-0.9457,-1.0301,-1.2074,-1.3626,-1.4392,0.0,0.0,-1.6896,-1.6922,-1.757,-1.776,-1.7663,-1.7756,-1.6314,-1.4227,-1.3128,-1.2463,0.0,0.0,-1.1487,-1.201,-1.1063,-1.0887,-1.1019,0.0,0.0,0.0,-1.3012,-1.3586,0.0,0.0,0.0,0.0,0.0,0.0,0.0,0.0,0.0,0.0,0.0,0.0,0.0,0.0,0.0,0.0,0.0,0.0,-2.5693,-2.5693,-2.5693,-2.5693,-2.5693,-2.5693,-2.5693,-2.5693,-2.5693,-2.5693,-2.5693,-2.5693,-2.5693,-2.5693,-2.5693,-2.5693,-2.5693,-2.5693,-2.5693,-2.5693,-2.5693,-2.5693,-2.5693,-2.5693,-2.5693,-2.5693,-2.5752,-2.6309,-2.7031,-2.707,-2.7598,-2.8301,-0.7325,-0.7548,-0.7822,-0.807,-0.8618,-0.9141,-0.9554,-0.9359,-0.9417,-1.011,-1.0167,-1.0327,-1.0829,-1.035,-1.006,-1.0157,-0.9675,-0.9112,-0.8577,-0.855,-0.823,-0.7517,-0.8013,-0.7949,-0.7193,-0.7909,-0.804,-0.7513,-0.7722,-0.7819,-0.7819,-0.7752,-0.7749,-0.7745,-0.7625,-0.8123,-0.9085,-0.9446,-1.0608,-1.2238,-1.2607,-1.3858,-1.5568,-1.59,-1.6766,-1.7722,-1.7428,-1.79,-1.8519,-1.7989,-1.6901,-1.5644,-1.4721,0.0,0.0,0.0,0.0,0.0,0.0,0.0,0.0,0.0,0.0,0.0,0.0,-1.1703,0.0,0.0,0.0,0.0,0.0,0.0,0.0,0.0,0.0,0.0,0.0,0.0,0.0,0.0,0.0,0.0,0.0,0.0,-2.5693,-2.5693,-2.5693,-2.5693,-2.5693,-2.5693,-2.5693,-2.5693,-2.5693,-2.5693,-2.5693,-2.5693,-2.5693,-2.5693,-2.5693,-2.5693,-2.5693,-2.5693,-2.5693,-2.5693,-2.5693,-2.5693,-2.5693,-2.5693,-2.5693,-2.5732,-2.6133,-2.6562,-2.7051,-2.7402,-2.7851,-2.8301,-0.8049,-0.8394,-0.8741,-0.8994,-0.9466,-0.9983,-1.0541,-1.0338,-1.0396,-1.1142,-1.1631,-1.1877,-1.1864,-1.161,-1.1283,-1.0841,-1.0234,-0.9646,-0.9031,-0.8884,-0.8537,-0.7973,-0.8375,-0.831,-0.7709,-0.8283,-0.8389,-0.7946,-0.7923,-0.7832,-0.7695,-0.7526,-0.7766,-0.8337,-0.8067,-0.8738,-1.0114,-1.0114,-1.0908,-1.2208,-1.3358,0.0,-1.6322,-1.7072,-1.7806,-1.8419,-1.8161,-1.8414,-1.8778,-1.7949,-1.7122,0.0,0.0,-1.5246,-1.4963,0.0,-1.4062,-1.4487,0.0,0.0,0.0,-1.2927,0.0,0.0,0.0,0.0,0.0,0.0,0.0,0.0,0.0,0.0,0.0,0.0,0.0,0.0,0.0,0.0,0.0,0.0,0.0,0.0,0.0,0.0,-2.5206,-2.5654,-2.5693,-2.5693,-2.5693,-2.5693,-2.543,-2.4922,-2.4903,-2.4903,-2.4903,-2.4903,-2.4903,-2.4903,-2.4903,-2.4609,-2.4115,-2.4115,-2.4115,-2.4115,-2.4658,-2.4609,-2.4165,-2.4658,-2.4609,-2.4251,-2.5794,-2.6338,-2.6332,-2.7344,-2.793,-2.8301,-0.8818,-0.9149,-0.9496,-0.9783,-1.0163,-1.0659,-1.1309,-1.1141,-1.1225,-1.2037,-1.2866,-1.324,-1.2852,-1.2971,-1.2703,-1.1873,-1.1062,-1.0367,-0.975,-0.9365,-0.8965,-0.8564,-0.8818,-0.8818,-0.8496,-0.8804,-0.8751,-0.8308,-0.8019,-0.7776,-0.7491,-0.7281,-0.7846,-0.9031,-0.8764,-0.9633,-1.1316,-1.0935,-1.1404,-1.2569,0.0,-1.5635,-1.6262,-1.7817,-1.8391,-1.8419,-1.8655,-1.8712,-1.8532,-1.7846,0.0,-1.6748,-1.6,-1.5958,0.0,0.0,0.0,0.0,0.0,0.0,0.0,0.0,0.0,-1.3506,0.0,0.0,0.0,-1.3009,0.0,0.0,0.0,0.0,0.0,0.0,0.0,0.0,0.0,0.0,0.0,0.0,0.0,0.0,0.0,0.0,-2.4017,-2.5121,-2.4881,-2.49,-2.5295,-2.5392,-2.4971,-2.4146,-2.4097,-2.3998,-2.3782,-2.3782,-2.3782,-2.3782,-2.3782,-2.3335,-2.2484,-2.2484,-2.2484,-2.2534,-2.3434,-2.3285,-2.2584,-2.3434,-2.3135,-2.2434,-2.4826,-2.5488,-2.5206,-2.6522,-2.7275,-2.7618,-0.9086,-0.9021,-0.9167,-0.9483,-1.0314,-1.1016,-1.1335,-1.1623,-1.2078,-1.2946,-1.3601,-1.4162,-1.466,-1.4271,-1.4095,-1.4526,-1.3293,-1.2234,-1.1645,-1.0841,-0.9993,-0.9151,-0.9432,-0.9325,-0.8778,-0.9299,-0.9058,-0.7952,-0.7925,-0.7776,-0.7513,-0.7709,-0.8056,-0.8536,-0.9246,-1.01,-1.1049,-1.1249,-1.2452,0.0,-1.4807,-1.4623,0.0,-1.592,-1.6616,-1.6724,-1.7729,-1.7964,-1.7791,0.0,-1.7747,-1.7365,0.0,-1.7032,-1.7355,0.0,0.0,0.0,0.0,0.0,0.0,0.0,-1.508,0.0,0.0,0.0,-1.3038,-1.2031,0.0,0.0,0.0,0.0,0.0,0.0,0.0,0.0,0.0,0.0,0.0,0.0,0.0,0.0,0.0,0.0,0.0,-2.3177,-2.1959,-2.1985,-2.3732,-2.414,-2.4245,-2.4097,-2.4097,-2.3633,-2.2685,-2.2685,-2.2685,-2.2685,-2.2685,-2.2634,-2.2484,-2.2484,-2.2484,-2.2484,-2.2634,-2.2584,-2.2484,-2.2634,-2.2047,-2.1216,-2.2843,-2.3583,-2.3859,-2.4471,-2.4837,-2.5113,-0.9427,-0.9692,-0.9903,-0.9851,-1.0496,-1.1156,-1.161,-1.2665,-1.348,-1.3694,-1.4522,-1.519,-1.5444,-1.5097,-1.495,-1.519,0.0,-1.3454,0.0,0.0,-1.1329,-1.0782,-1.0425,-1.0104,-0.9863,-0.9566,-0.9151,-0.8658,-0.835,-0.8123,-0.8013,-0.7925,-0.8537,-0.9688,-1.0064,-1.1189,-1.2772,-1.2559,-1.3027,0.0,0.0,0.0,0.0,-1.6373,-1.7303,-1.7343,-1.7828,-1.8016,-1.8039,0.0,-1.7708,0.0,0.0,0.0,0.0,0.0,0.0,0.0,0.0,0.0,0.0,0.0,0.0,0.0,0.0,0.0,-1.317,0.0,0.0,0.0,0.0,0.0,0.0,0.0,0.0,0.0,0.0,0.0,0.0,0.0,0.0,0.0,0.0,0.0,0.0,0.0,0.0,-2.093,-2.2292,-2.2686,-2.2708,-2.2282,-2.2232,-2.2047,-2.1591,-2.1591,-2.1591,-2.1591,-2.1591,-2.1234,-2.0637,-2.0637,-2.0637,-2.0688,-2.1285,-2.1234,-2.0688,-2.1336,-2.0928,-2.0065,-2.0856,-2.1767,-2.2815,-2.3917,-2.4456,-2.4727,-0.9916,-1.0238,-1.0399,-1.0154,-1.0661,-1.1369,-1.2118,-1.3467,-1.4416,-1.4442,-1.519,-1.5832,-1.6152,-1.5925,-1.5858,-1.6099,-1.5578,-1.4897,0.0,0.0,-1.2786,-1.2529,-1.1591,0.0,-1.0948,-1.0127,-0.9577,-0.9337,-0.8778,-0.8563,-0.8604,-0.8285,-0.8938,-1.0372,-1.0854,-1.2078,-1.3841,-1.3734,-1.4001,-1.4452,-1.4723,-1.487,-1.5137,-1.686,-1.7694,-1.7911,-1.7911,-1.8003,-1.813,-1.7668,-1.7488,0.0,-1.7626,0.0,0.0,0.0,0.0,0.0,-1.6363,0.0,0.0,0.0,0.0,0.0,0.0,0.0,0.0,0.0,0.0,0.0,0.0,0.0,0.0,0.0,0.0,0.0,0.0,0.0,0.0,0.0,0.0,0.0,0.0,0.0,0.0,0.0,0.0,0.0,-2.0742,-2.1218,-2.1213,-2.0785,-2.0829,-2.079,-2.0483,-2.0483,-2.0483,-2.0483,-2.0483,-2.0034,-1.9272,-1.9272,-1.9272,-1.9324,-2.0138,-2.0034,-1.9376,-2.0138,-1.9983,-1.9301,-1.9691,-2.0482,-2.165,-2.2852,-2.3486,-2.3743,-1.0559,-1.0314,-1.0097,-1.0083,-1.0803,-1.1775,-1.2986,-1.3694,-1.4402,-1.5244,-1.5391,-1.5845,-1.7032,0.0,0.0,0.0,0.0,-1.6857,-1.6268,0.0,-1.4322,-1.4028,-1.2879,-1.2118,0.0,-1.127,-1.0514,-0.9702,-0.9085,-0.8911,-0.9178,-0.8884,-0.9112,-0.9809,-1.149,-1.2612,-1.3307,-1.4429,-1.5565,-1.6607,-1.662,-1.7315,-1.8183,0.0,-1.6898,-1.7635,-1.7635,0.0,0.0,-1.7286,-1.7192,0.0,0.0,0.0,0.0,0.0,0.0,0.0,0.0,0.0,0.0,-1.5246,0.0,0.0,0.0,0.0,-1.4666,0.0,0.0,0.0,0.0,0.0,-1.3228,-1.2599,0.0,0.0,0.0,0.0,0.0,0.0,0.0,0.0,0.0,0.0,0.0,0.0,0.0,0.0,-1.8945,-1.9653,-2.0101,-2.0418,-2.0753,-2.038,-1.9376,-1.9324,-1.9324,-1.9324,-1.9324,-1.9324,-1.9272,-1.9272,-1.9272,-1.9272,-1.9324,-1.9324,-1.9272,-1.9324,-1.9324,-1.9301,-1.9691,-2.0013,-2.0281,-2.0659,-2.1038,-2.1318,-1.1417,-1.1377,-1.1122,-1.0546,-1.0808,-1.1677,-1.3214,-1.4496,-1.5484,0.0,0.0,0.0,0.0,-1.7943,-1.809,0.0,0.0,-1.7782,-1.7181,-1.6219,0.0,0.0,0.0,-1.352,0.0,-1.2465,-1.1516,-1.0835,-1.0278,-1.005,-1.0131,-0.9619,-0.9806,-1.0595,-1.1784,-1.2959,0.0,0.0,0.0,0.0,0.0,-1.7595,-1.8437,0.0,0.0,-1.7836,-1.7836,-1.7862,0.0,-1.7737,-1.7626,-1.7541,-1.7997,-1.7816,-1.7493,-1.7843,-1.7764,0.0,0.0,0.0,-1.7619,-1.6196,0.0,0.0,0.0,0.0,0.0,0.0,0.0,0.0,0.0,0.0,-1.3345,-1.2921,-1.2448,0.0,0.0,0.0,0.0,0.0,0.0,0.0,0.0,0.0,0.0,0.0,-1.4667,0.0,0.0,-1.8187,-1.8758,-1.9315,-1.9662,-1.9687,-1.9272,-1.9272,-1.9272,-1.9272,-1.9272,-1.9272,-1.9272,-1.9272,-1.9272,-1.9272,-1.9272,-1.9272,-1.9272,-1.9272,-1.9456,-1.9676,-1.9945,-2.0281,-2.0518,-2.0676,-2.0925,-2.1203,-1.2141,-1.2047,-1.1725,-1.1162,-1.153,-1.2425,-1.3895,-1.5364,0.0,0.0,-1.7609,0.0,-1.8878,0.0,-1.8958,0.0,-1.9118,-1.8704,-1.8103,-1.7328,0.0,-1.7007,-1.5738,0.0,0.0,-1.3841,-1.2799,-1.1891,-1.135,-1.1002,-1.0881,-1.0154,-1.0247,-1.1035,-1.1904,-1.3066,-1.4442,-1.5631,-1.654,0.0,0.0,-1.8196,0.0,0.0,-1.8557,-1.821,0.0,-1.8185,-1.8184,-1.8184,-1.7981,-1.783,-1.839,-1.8047,-1.7534,-1.8189,-1.8105,-1.7719,-1.7809,-1.8073,0.0,-1.6904,-1.669,0.0,-1.5101,0.0,0.0,0.0,0.0,0.0,0.0,0.0,-1.3901,-1.3579,-1.2877,-1.1923,0.0,0.0,0.0,0.0,0.0,0.0,0.0,0.0,-1.2731,-1.374,-1.3901,0.0,0.0,0.0,-1.794,-1.8599,-1.9038,-1.9272,-1.9272,-1.9272,-1.9272,-1.9272,-1.9272,-1.9272,-1.9272,-1.9272,-1.9272,-1.9272,-1.9272,-1.9272,-1.9286,-1.9456,-1.9632,-1.9867,-2.0237,-2.053,-2.0735,-2.0852,-2.1028,-2.1203,-1.2717,-1.2409,-1.2033,-1.206,-1.2919,-1.3919,0.0,0.0,-1.7355,0.0,-1.8343,-1.8865,-1.9733,-1.9573,-1.9626,-2.0187,-1.9987,0.0,-1.9025,-1.8368,0.0,0.0,-1.7088,-1.65,-1.5904,-1.5324,0.0,0.0,-1.2261,-1.1757,-1.1415,-1.0581,-1.0474,-1.1035,-1.1931,-1.2986,-1.4202,-1.5952,-1.7235,-1.8089,-1.8718,-1.9118,-1.943,-1.943,-1.9025,-1.8531,-1.8517,-1.8504,-1.849,-1.849,-1.8303,-1.8009,-1.8009,-1.8023,-1.8096,-1.8345,-1.8608,-1.8812,-1.8446,-1.8564,-1.8484,-1.7328,0.0,0.0,0.0,0.0,-1.6771,0.0,0.0,0.0,0.0,0.0,0.0,-1.457,-1.3638,-1.2438,0.0,0.0,0.0,0.0,0.0,0.0,0.0,-1.1458,-1.1797,-1.3301,-1.3184,-1.3872,0.0,0.0,-1.7589,-1.8262,-1.8921,-1.9272,-1.9272,-1.9272,-1.9272,-1.9272,-1.9272,-1.9272,-1.9272,-1.9272,-1.9272,-1.9272,-1.9272,-1.9286,-1.933,-1.9691,-1.9837,-1.9925,-2.0486,-2.0735,-2.0779,-2.1101,-2.1203,-2.1203,-1.3347,-1.3641,-1.3908,-1.4177,-1.3881,-1.4119,0.0,0.0,0.0,0.0,-1.8958,-1.9399,-2.0054,-2.0054,-2.0067,-2.0214,-2.016,0.0,0.0,0.0,0.0,-1.9212,-1.8023,-1.7395,-1.7423,-1.6246,0.0,-1.4432,0.0,-1.2409,-1.2064,-1.1362,-1.1049,-1.1035,-1.2181,-1.3213,-1.4188,-1.5725,-1.7275,-1.8675,-1.9105,-1.9305,0.0,0.0,-1.9279,-1.9118,-1.8891,-1.8677,-1.849,-1.849,-1.8437,-1.8425,-1.859,-1.855,-1.8412,-1.8666,-1.8512,-1.8213,-1.813,-1.831,-1.8405,-1.7887,-1.7701,-1.7545,0.0,0.0,0.0,0.0,0.0,0.0,0.0,0.0,0.0,-1.4673,-1.3448,-1.239,0.0,0.0,0.0,0.0,0.0,0.0,0.0,-1.1458,-1.1923,-1.2346,-1.3009,-1.4004,0.0,0.0,0.0,-1.7911,-1.8803,-1.9272,-1.9272,-1.9272,-1.9272,-1.9272,-1.9272,-1.9272,-1.9272,-1.9272,-1.9272,-1.9272,-1.9272,-1.947,-1.9705,-1.9779,-2.0047,-2.0486,-2.0662,-2.0867,-2.1101,-2.1174,-2.1203,-2.1203,-1.4175,0.0,0.0,-1.5893,0.0,0.0,-1.67,0.0,0.0,-1.8971,-1.9479,0.0,-2.0201,-2.0468,-2.0615,-2.0615,-2.0494,0.0,-2.0241,0.0,0.0,-1.9613,-1.8931,-1.8517,-1.8382,-1.7303,0.0,-1.5337,0.0,-1.3012,-1.2291,-1.1668,-1.1309,-1.1223,-1.2315,-1.328,-1.4215,-1.6192,-1.7769,-1.8945,-1.9252,0.0,0.0,-1.943,-1.943,-1.9403,-1.9185,-1.9011,-1.8878,-1.8878,-1.8784,-1.8677,-1.8845,-1.8698,-1.8564,-1.8823,-1.8562,-1.8222,-1.8367,-1.8376,-1.838,-1.8382,-1.8325,-1.8187,-1.7819,-1.7896,-1.7925,0.0,0.0,0.0,0.0,0.0,0.0,0.0,0.0,0.0,0.0,0.0,0.0,0.0,0.0,0.0,-1.0916,-1.1428,-1.1823,-1.1823,-1.2599,-1.3506,0.0,0.0,0.0,-1.7574,-1.8555,-1.9125,-1.9272,-1.9272,-1.9272,-1.9272,-1.9272,-1.9272,-1.9272,-1.9272,-1.9272,-1.9286,-1.9433,-1.9647,-1.9837,-2.0062,-2.0398,-2.0735,-2.0881,-2.1042,-2.1203,-2.1203,-2.1203,-2.1203,-1.5129,0.0,0.0,0.0,0.0,0.0,0.0,-1.8384,0.0,-1.9519,0.0,-2.0468,-2.0468,-2.0922,-2.1229,-2.1229,0.0,-2.0681,-2.0428,-2.0334,-2.0067,-1.9618,-1.9746,-1.9599,-1.9052,-1.8328,0.0,0.0,-1.4696,-1.348,-1.2291,-1.1744,-1.1402,-1.1375,-1.2368,-1.3387,-1.4536,-1.6981,-1.837,-1.8945,-1.9252,-1.943,-1.943,-1.943,-1.943,-1.943,-1.943,-1.943,-1.943,-1.943,-1.9199,-1.8985,-1.8985,-1.8784,-1.8599,-1.8808,-1.8714,-1.859,-1.8846,-1.8691,-1.8534,-1.8836,-1.8874,-1.8821,-1.8469,-1.8388,-1.8388,-1.8423,-1.7984,-1.7911,0.0,0.0,0.0,0.0,0.0,0.0,0.0,0.0,0.0,0.0,0.0,0.0,0.0,-1.1489,-1.1635,-1.1591,-1.2087,0.0,0.0,0.0,0.0,-1.7264,-1.8277,0.0,-1.9324,0.0,-1.9272,-1.9272,-1.9272,-1.9272,-1.9272,-1.9272,-1.9301,-1.936,-1.9691,-1.9867,-1.9984,-2.0486,-2.075,-2.0808,-2.1101,-2.1203,-2.1203,-2.1203,-2.1203,-2.1203,-1.6326,0.0,0.0,0.0,0.0,-1.9212,-1.9693,-1.9853,-2.0134,-2.0722,-2.1309,-2.1683,-2.1683,-2.1764,-2.183,-2.183,-2.1628,0.0,0.0,0.0,0.0,-2.0454,-2.0267,-2.0,-1.9653,-1.8542,-1.7503,0.0,-1.4897,-1.348,-1.2291,-1.1993,-1.153,-1.1116,-1.2288,-1.3963,-1.6027,-1.7422,0.0,-1.8945,-1.9252,-1.943,-1.943,-1.943,-1.943,-1.943,-1.943,-1.943,-1.943,-1.943,-1.9332,-1.9292,-1.9292,-1.9092,-1.8851,-1.8908,-1.8693,-1.8576,-1.8837,-1.8851,-1.881,-1.887,-1.8921,-1.8876,-1.8783,-1.8801,-1.8852,-1.9059,-1.9023,-1.8847,-1.8525,0.0,0.0,0.0,0.0,0.0,0.0,0.0,0.0,0.0,0.0,0.0,0.0,0.0,-1.1838,0.0,0.0,0.0,0.0,0.0,0.0,0.0,0.0,0.0,0.0,0.0,-1.9272,-1.9272,-1.9272,-1.9272,-1.9272,-1.9272,-1.947,-1.9735,-1.9793,-2.0062,-2.0559,-2.0676,-2.0881,-2.113,-2.1189,-2.1203,-2.1203,-2.1203,-2.1203,-2.1203,0.0,0.0,0.0,0.0,0.0,0.0,0.0,-2.1309,0.0,-2.1149,-2.1349,-2.1537,-2.1537,-2.1804,-2.1991,-2.1991,-2.1857,-2.1842,-2.1842,-2.144,-2.1069,-2.0909,-2.0615,0.0,-2.0027,-1.9172,-1.821,-1.7154,-1.5551,-1.4082,-1.2759,-1.2305,-1.1864,-1.1551,-1.2999,-1.4723,-1.6567,0.0,0.0,-1.8945,-1.9252,-1.943,-1.943,-1.943,-1.943,-1.943,-1.943,-1.943,-1.943,-1.943,-1.943,-1.943,-1.943,-1.9265,-1.9158,-1.9158,-1.8945,-1.8718,-1.8872,-1.882,-1.8782,-1.9055,-1.9014,-1.8998,-1.929,-1.9112,-1.9002,-1.9263,-1.9182,-1.8927,-1.8423,-1.7647,0.0,0.0,0.0,0.0,0.0,0.0,0.0,0.0,0.0,0.0,0.0,0.0,0.0,0.0,0.0,0.0,0.0,0.0,0.0,0.0,0.0,0.0,0.0,0.0,0.0,-1.9272,-1.9272,-1.9272,-1.9338,-1.95,-1.9661,-1.9837,-2.012,-2.0428,-2.0735,-2.0911,-2.1072,-2.1203,-2.1203,-2.1203,-2.1203,-2.1203,-2.1203,-2.1203,0.0,-1.9653,0.0,0.0,-2.1002,0.0,-2.1856,-2.2593,-2.2672,-2.1617,-2.1483,-2.1483,-2.1483,-2.1897,-2.2178,-2.2178,-2.2111,-2.2084,-2.2084,-2.1804,-2.1537,-2.1309,-2.1015,-2.0722,-2.0428,-1.9786,-1.8905,0.0,0.0,0.0,-1.348,-1.2866,-1.2532,-1.2543,-1.4095,0.0,0.0,0.0,-1.8464,-1.9038,-1.9265,-1.943,-1.943,-1.943,-1.943,-1.943,-1.943,-1.943,-1.943,-1.943,-1.943,-1.943,-1.943,-1.943,-1.943,-1.943,-1.9199,-1.9011,-1.9068,-1.8908,-1.8832,-1.9306,-1.9181,-1.914,-1.9521,-1.922,-1.896,-1.9188,-1.9026,-1.8772,-1.8373,-1.7999,0.0,0.0,0.0,0.0,0.0,0.0,0.0,0.0,0.0,0.0,0.0,0.0,0.0,0.0,0.0,0.0,0.0,0.0,0.0,0.0,0.0,-1.8218,-1.9067,0.0,-1.9272,0.0,-1.9272,-1.9368,-1.9441,-1.9705,-1.9896,-1.9989,-2.0501,-2.0764,-2.0852,-2.1101,-2.1203,-2.1203,-2.1203,-2.1203,-2.1203,-2.1203,-2.1203,-2.1203,0.0,0.0,0.0,0.0,0.0,0.0,0.0,-2.3273,-2.3447,-2.2847,-2.2699,-2.2699,-2.2699,-2.2752,-2.2847,-2.2847,-2.2539,-2.2378,-2.2378,-2.2111,-2.1937,-2.1911,-2.1695,-2.1336,-2.1029,-2.0187,-1.9319,0.0,0.0,0.0,0.0,-1.3746,-1.3746,-1.4309,-1.5225,0.0,0.0,-1.8183,-1.8784,-1.939,-1.9417,-1.943,-1.943,-1.943,-1.943,-1.943,-1.943,-1.943,-1.943,-1.943,-1.943,-1.943,-1.943,-1.943,-1.943,-1.943,-1.9403,-1.9377,-1.9666,-1.9523,-1.9327,-1.9398,-1.9386,-1.9291,-1.9024,-1.8938,-1.8907,-1.8926,-1.8921,-1.8772,-1.8373,-1.873,-1.8701,0.0,0.0,0.0,0.0,0.0,0.0,0.0,0.0,0.0,0.0,0.0,0.0,0.0,0.0,0.0,0.0,0.0,0.0,-1.6829,0.0,-1.7999,-1.8394,-1.8979,0.0,-1.9272,-1.9272,-1.9485,-1.9764,-1.9808,-2.0077,-2.0633,-2.0691,-2.0896,-2.1159,-2.1203,-2.1203,-2.1203,-2.1203,-2.1203,-2.1203,-2.1203,-2.1203,-2.1203,0.0,0.0,0.0,0.0,0.0,0.0,0.0,-2.3621,-2.3688,-2.3434,-2.3247,-2.314,-2.314,-2.2979,-2.2928,-2.2928,-2.2752,-2.2686,-2.2686,-2.2405,-2.2245,-2.2245,-2.1964,-2.167,-2.139,-2.0855,-2.0067,0.0,0.0,0.0,0.0,-1.515,-1.5225,-1.5872,0.0,-1.7609,-1.8424,-1.9025,-1.9506,-1.988,-1.988,-1.988,-1.988,-1.988,-1.988,-1.988,-1.988,-1.9773,-1.9626,-1.9626,-1.9506,-1.943,-1.943,-1.943,-1.943,-1.943,-1.943,-1.943,-1.9533,-1.9475,-1.9448,-1.9614,-1.953,-1.9421,-1.9431,-1.914,-1.8972,-1.9106,-1.9156,-1.9043,-1.873,-1.8687,-1.8642,0.0,0.0,0.0,0.0,0.0,0.0,0.0,0.0,0.0,0.0,0.0,0.0,0.0,0.0,0.0,0.0,0.0,0.0,-1.6228,0.0,-1.7969,-1.8291,-1.895,-1.9272,-1.9286,-1.9477,-1.9691,-1.9823,-2.0164,-2.0589,-2.1013,-2.1013,-2.1086,-2.1203,-2.1203,-2.1203,-2.1203,-2.1203,-2.1203,-2.1203,-2.1203,-2.1203,-2.1203,-2.2939,0.0,-2.2979,0.0,-2.3474,-2.3527,-2.3955,-2.4022,-2.4022,-2.4022,-2.3768,-2.3554,-2.3474,-2.326,-2.31,-2.3006,-2.2993,-2.2953,-2.2941,-2.2672,-2.2552,-2.2552,-2.2271,0.0,-2.1817,-2.143,-2.0788,-1.988,-1.8998,0.0,0.0,-1.666,-1.6794,0.0,-1.809,-1.8704,-1.9212,-1.972,-2.004,-2.0167,-2.0167,-2.0167,-2.0167,-2.0167,-2.0167,-2.0167,-2.0167,-2.0094,-1.992,-1.992,-1.9786,-1.9586,-1.9426,-1.943,-1.943,-1.943,-1.943,-1.943,-1.943,-1.943,-1.943,-1.9649,-1.9591,-1.951,-1.9652,-1.9348,-1.9029,-1.9056,-1.9065,-1.9011,-1.8921,-1.865,-1.8585,-1.895,0.0,0.0,0.0,0.0,0.0,0.0,0.0,-1.4071,0.0,0.0,0.0,0.0,0.0,0.0,0.0,0.0,0.0,0.0,0.0,0.0,0.0,-1.895,-1.933,-1.947,-1.9705,-1.9911,-2.0062,-2.0618,-2.0998,-2.1203,-2.1203,-2.1203,-2.1203,-2.1203,-2.1203,-2.1203,-2.1203,-2.1203,-2.1203,-2.1203,-2.1204,-2.1234,-2.326,-2.3554,-2.3848,-2.4142,-2.4422,-2.4549,-2.4623,-2.4623,-2.4623,-2.4623,-2.4369,-2.4088,-2.3794,-2.3768,-2.3647,-2.334,-2.3327,-2.3193,-2.2954,-2.2928,-2.2859,0.0,0.0,-2.2405,-2.2405,-2.1844,-2.1403,-2.1082,0.0,0.0,-1.8878,-1.8235,-1.8275,-1.8905,-1.9212,-1.9519,-1.9813,-2.0107,-2.0227,-2.0167,-2.0167,-2.0167,-2.0167,-2.0167,-2.0167,-2.0167,-2.0167,-2.0227,-2.0227,-2.0227,-2.0167,-2.012,-1.9546,-1.943,-1.943,-1.943,-1.943,-1.943,-1.943,-1.943,-1.943,-1.943,-1.9591,-1.974,-1.9369,-1.9348,-1.9233,-1.8548,-1.8422,-1.8541,-1.8817,-1.8921,-1.8758,-1.8373,0.0,0.0,0.0,0.0,0.0,0.0,-1.4487,-1.3623,-1.3945,0.0,0.0,0.0,0.0,0.0,0.0,0.0,0.0,-1.7206,-1.7955,0.0,-1.8306,-1.895,-1.9485,-1.9808,-1.9823,-2.0091,-2.072,-2.1057,-2.1203,-2.1203,-2.1203,-2.1203,-2.1203,-2.1203,-2.1203,-2.1203,-2.1203,-2.1203,-2.1203,-2.1203,-2.1177,-2.1276,-2.4155,-2.4289,-2.4396,-2.4476,-2.4569,-2.4636,-2.4636,-2.4636,-2.4636,-2.4636,-2.4556,-2.4462,-2.4369,-2.4008,-2.3728,0.0,-2.3634,-2.3581,0.0,-2.3287,-2.318,-2.318,-2.2886,-2.2619,-2.2418,-2.2231,-2.1897,-2.1416,0.0,0.0,0.0,-1.9426,-1.9452,-1.9826,-2.0134,-2.0307,-2.0414,-2.0708,-2.0828,-2.0828,-2.0828,-2.0828,-2.0828,-2.0828,-2.0828,-2.0828,-2.0828,-2.0708,-2.0535,-2.0535,-2.0401,-2.0201,-2.0013,-1.9826,-1.9666,-1.9666,-1.9519,-1.943,-1.943,-1.943,-1.943,-1.943,-1.9475,-1.9506,-1.9411,-1.9331,-1.918,-1.856,-1.859,-1.866,-1.8331,-1.8608,-1.8864,-1.8751,-1.8862,0.0,0.0,0.0,0.0,0.0,0.0,-1.5189,0.0,-1.4477,0.0,0.0,0.0,0.0,0.0,0.0,0.0,0.0,-1.7955,0.0,-1.8306,-1.9169,-1.972,-1.9823,-2.0208,-2.0647,-2.1057,-2.1159,-2.1203,-2.1203,-2.1203,-2.1203,-2.1203,-2.1203,-2.1203,-2.1203,-2.1203,-2.1177,-2.119,-2.119,-2.1215,-2.1233,-2.477,-2.489,-2.493,-2.4823,-2.4796,-2.477,-2.4649,-2.4636,-2.4636,-2.4636,-2.4636,-2.4636,-2.4636,-2.4315,0.0,-2.3941,-2.3928,-2.3888,-2.3781,-2.3594,-2.3487,-2.3487,-2.3207,-2.2953,-2.2766,0.0,0.0,-2.1884,-2.159,-2.1256,-2.0882,-2.0708,-2.0722,-2.0895,-2.1082,-2.1162,-2.1176,-2.1363,-2.1443,-2.1443,-2.1443,-2.1443,-2.143,-2.1323,-2.1269,-2.1256,-2.1149,-2.0989,-2.0842,-2.0842,-2.0722,-2.0561,-2.0561,-2.0361,-2.0107,-2.0,-1.9826,-1.9666,-1.9559,-1.9533,-1.9506,-1.9457,-1.943,-1.939,-1.9398,-1.9357,-1.9181,-1.8712,-1.8705,-1.8629,-1.824,-1.8384,-1.866,-1.8869,-1.8751,-1.8585,-1.835,0.0,0.0,0.0,0.0,0.0,0.0,-1.5833,0.0,0.0,0.0,0.0,0.0,0.0,0.0,-1.7314,-1.8379,0.0,-1.8847,-1.9514,-1.994,-2.0135,-2.0662,-2.1013,-2.1203,-2.1203,-2.1203,-2.1203,-2.1203,-2.1203,-2.1203,-2.1203,-2.1203,-2.1218,-2.135,-2.1278,-2.1246,-2.1346,-2.129,-2.118,-2.5104,-2.5331,0.0,0.0,-2.5104,0.0,-2.4743,-2.4629,-2.4629,-2.4629,-2.4629,-2.469,-2.4676,-2.4663,-2.4556,-2.4262,0.0,0.0,0.0,-2.3808,-2.3794,-2.3794,-2.3514,-2.3354,-2.3354,-2.3073,-2.2779,-2.2485,-2.2164,-2.2017,-2.2017,-2.1991,-2.1991,-2.1991,-2.1991,-2.1991,-2.1991,-2.1991,-2.1991,-2.1991,-2.1991,-2.1991,-2.1951,-2.1748,-2.1641,-2.1614,-2.1269,-2.1176,-2.1162,-2.1149,-2.1136,-2.1136,-2.1122,-2.0922,-2.0655,-2.0347,-2.0254,-2.0174,-1.9907,-1.9826,-1.976,-1.9466,-1.9386,-1.9408,-1.9353,-1.9314,-1.9193,-1.8958,-1.8711,-1.8493,-1.8401,-1.8188,-1.8227,-1.8764,-1.8583,-1.8354,-1.83,0.0,0.0,0.0,0.0,0.0,0.0,-1.6815,-1.7062,0.0,0.0,0.0,0.0,0.0,-1.7223,-1.8745,-1.9125,-1.9447,-1.9808,-1.9867,-2.015,-2.0764,-2.1057,-2.1203,-2.1203,-2.1203,-2.1203,-2.1203,-2.1203,-2.1218,-2.1247,-2.1247,-2.1262,-2.1248,-2.1613,-2.151,-2.1272,-2.1603,-2.1479,-2.119,0.0,0.0,-2.5491,-2.5424,-2.5411,-2.5384,-2.5317,-2.5304,-2.5304,-2.5304,-2.5304,-2.5224,-2.4997,-2.497,-2.485,-2.4556,-2.4529,-2.4502,-2.4436,-2.4222,-2.4102,-2.4102,-2.3821,-2.3661,-2.3661,-2.3594,-2.3407,-2.3113,-2.2579,-2.2311,-2.2311,-2.2084,-2.1991,-2.1991,-2.1991,-2.1991,-2.1991,-2.1991,-2.1991,-2.1991,-2.1991,-2.1991,-2.1977,-2.1911,-2.1884,-2.1871,-2.1804,-2.1777,-2.175,-2.1523,-2.1443,-2.1403,-2.1176,-2.1069,-2.0949,-2.0655,-2.0414,-2.0214,-2.0147,-2.0134,-2.0054,-1.9773,-1.9533,-1.9403,-1.9394,-1.9364,-1.9203,-1.8969,-1.8837,-1.8656,-1.8158,-1.822,-1.8279,-1.8227,-1.8091,-1.801,-1.7974,-1.7809,0.0,0.0,-1.7735,-1.7838,-1.7838,-1.7911,-1.7779,0.0,0.0,0.0,0.0,-1.8116,-1.8394,-1.8774,-1.9345,-1.9735,-1.9823,-2.0252,-2.0691,-2.1101,-2.1174,-2.1203,-2.1203,-2.1203,-2.1203,-2.1203,-2.1203,-2.135,-2.1584,-2.1584,-2.1598,-2.1638,-2.1978,-2.1838,-2.1507,-2.1563,-2.1541,-2.1505,-2.5718,-2.5825,-2.5865,-2.5732,-2.5718,-2.5665,-2.5531,-2.5518,-2.5518,-2.5518,-2.5518,-2.5451,-2.5291,-2.5157,-2.501,-2.485,-2.4716,-2.4636,-2.4636,-2.4489,-2.4396,-2.4396,-2.4128,-2.3968,-2.3968,-2.3834,-2.3688,-2.3527,-2.306,-2.2832,-2.2832,-2.2525,-2.2392,-2.2392,-2.2392,-2.2392,-2.2392,-2.2392,-2.2392,-2.2392,-2.2392,-2.2392,-2.2378,-2.2231,-2.2178,-2.2164,-2.2031,-2.1991,-2.1964,-2.1804,-2.175,-2.1724,-2.1563,-2.1416,-2.1283,-2.1122,-2.0869,-2.0601,-2.0468,-2.0441,-2.0334,-1.9907,-1.9679,-1.9533,-1.9457,-1.9354,-1.9307,-1.9115,-1.8999,-1.8796,-1.8469,-1.8278,-1.8179,-1.8008,-1.7844,-1.7781,-1.7889,-1.7865,0.0,-1.8247,-1.8423,-1.8584,-1.873,-1.8745,-1.8599,-1.8247,0.0,0.0,-1.8701,-1.9038,-1.9242,-1.9242,-1.9725,-2.0047,-2.0194,-2.0691,-2.1042,-2.1203,-2.1203,-2.1203,-2.1203,-2.1203,-2.1291,-2.1437,-2.1437,-2.1555,-2.1728,-2.1728,-2.1577,-2.1509,-2.1786,-2.1699,-2.141,-2.1748,-2.1714,-2.1614,-2.6026,-2.6226,-2.6306,-2.6066,-2.6026,-2.5932,-2.5678,-2.5638,-2.5638,-2.5638,-2.5638,-2.5625,-2.5585,-2.5358,-2.5197,-2.5144,-2.4917,-2.473,-2.4649,-2.4636,-2.4636,-2.4636,-2.4396,-2.4262,-2.4262,-2.3981,-2.3834,-2.3834,-2.3541,-2.3394,-2.338,-2.3073,-2.2939,-2.2926,-2.2954,-2.2928,-2.2928,-2.2928,-2.2928,-2.2928,-2.2928,-2.2928,-2.2832,-2.2579,-2.2485,-2.2458,-2.2205,-2.2124,-2.2111,-2.2071,-2.2044,-2.2044,-2.2004,-2.1817,-2.1681,-2.1681,-2.1443,-2.1162,-2.0828,-2.0708,-2.0561,-2.0054,-1.9893,-1.9786,-1.9492,-1.9439,-1.9403,-1.9323,-1.9115,-1.894,-1.8905,-1.8482,-1.8116,-1.797,-1.7719,-1.7594,-1.7747,0.0,-1.8196,-1.8658,-1.8877,-1.9038,-1.9368,-1.9389,-1.9418,-1.9418,-1.9418,-1.9535,0.0,-1.994,-1.9955,-1.9955,-2.0164,-2.0472,-2.0794,-2.1072,-2.1203,-2.1203,-2.1203,-2.1233,-2.1276,-2.1276,-2.1467,-2.1774,-2.1701,-2.1698,-2.1732,-2.1732,-2.1534,-2.1301,-2.1553,-2.1465,-2.1259,-2.1881,-2.1915,-2.1677,-2.6319,-2.636,-2.6373,-2.6333,-2.6319,-2.6306,-2.6266,-2.6253,-2.6253,-2.6253,-2.6253,-2.6159,-2.5919,-2.5929,-2.5718,-2.5464,-2.5398,-2.517,-2.4589,-2.4636,-2.4636,-2.4636,-2.4596,-2.4569,-2.4569,-2.4289,-2.4142,-2.4142,-2.3848,-2.3701,-2.3701,-2.3394,-2.326,-2.3247,-2.2979,-2.2928,-2.2928,-2.2928,-2.2928,-2.2928,-2.2928,-2.2928,-2.2859,-2.2806,-2.2792,-2.2792,-2.2807,-2.2726,-2.2686,-2.2432,-2.2352,-2.2311,-2.2058,-2.1951,-2.1924,-2.1924,-2.1884,-2.1737,-2.1189,-2.0869,-2.0655,-2.0561,-2.0347,-2.0094,-1.98,-1.9733,-1.9653,-1.9417,-1.932,-1.916,-1.891,-1.881,-1.8476,-1.7712,-1.777,-1.7714,-1.719,0.0,-1.8339,-1.8433,-1.9182,-1.9691,-1.9735,-1.993,-2.0037,-2.0037,-2.0037,-2.0051,-2.0164,-2.0428,-2.0574,-2.0574,-2.0618,-2.0808,-2.113,-2.1189,-2.1203,-2.1203,-2.1203,-2.135,-2.1613,-2.1613,-2.1803,-2.2111,-2.1843,-2.1836,-2.2,-2.1756,-2.1602,-2.1603,-2.1895,-2.1783,-2.1546,-2.1964,-2.2041,-2.1978,-2.6386,-2.6386,-2.6386,-2.6386,-2.6386,-2.6386,-2.6386,-2.6386,-2.6386,-2.6386,-2.6386,-2.6333,-2.6199,-2.613,-2.5905,-2.5758,-2.5598,-2.5398,-2.513,-2.4957,-2.4796,-2.4649,-2.4636,-2.4636,-2.4636,-2.4502,-2.4436,-2.4436,-2.4142,-2.4008,-2.3995,-2.3701,-2.3567,-2.3554,-2.3247,-2.3113,-2.31,-2.2939,-2.2928,-2.2928,-2.2928,-2.2928,-2.2928,-2.2928,-2.2928,-2.2928,-2.2928,-2.2928,-2.2914,-2.2699,-2.2659,-2.2632,-2.2498,-2.2352,-2.2218,-2.2218,-2.1991,-2.1697,-2.1416,-2.1136,-2.0869,-2.0722,-2.0575,-2.0401,-2.0094,-2.004,-1.9947,-1.9653,-1.9609,-1.9465,-1.9142,-1.9027,-1.87,-1.8153,-1.8163,0.0,0.0,-1.8391,-1.8898,-1.8898,-1.9565,-1.9964,-1.9802,-2.0041,-2.0183,-2.0183,-2.0183,-2.0256,-2.0431,-2.0647,-2.0808,-2.0984,-2.0984,-2.1057,-2.1203,-2.1203,-2.1306,-2.1467,-2.1467,-2.1642,-2.1964,-2.1964,-2.2125,-2.2418,-2.2222,-2.2166,-2.2081,-2.1956,-2.1665,-2.1362,-2.1488,-2.1614,-2.1677,-2.1978,-2.2104,-2.2104,-2.6386,-2.6386,-2.6386,-2.6386,-2.6386,-2.6386,-2.6386,-2.6386,-2.6386,-2.6386,-2.6386,-2.6386,-2.6386,-2.6186,-2.6052,-2.6052,-2.5852,-2.5692,-2.5625,-2.5411,-2.5157,-2.485,-2.477,-2.4743,-2.4743,-2.4676,-2.4636,-2.4636,-2.4409,-2.4302,-2.4302,-2.4008,-2.3875,-2.3861,-2.3567,-2.3434,-2.342,-2.318,-2.3142,-2.306,-2.2993,-2.2966,-2.2966,-2.2886,-2.2928,-2.2928,-2.2928,-2.2928,-2.2928,-2.2928,-2.2928,-2.2928,-2.2928,-2.2712,-2.2525,-2.2525,-2.2151,-2.1789,-2.1655,-2.139,-2.1149,-2.0855,-2.0775,-2.0695,-2.0401,-2.0334,-2.0254,-1.996,-1.9907,-1.9792,-1.9499,-1.9236,-1.898,-1.8523,0.0,0.0,0.0,-1.8971,-1.9442,-1.9442,-1.9932,-2.0245,-2.0024,-2.0262,-2.0402,-2.0402,-2.0402,-2.0518,-2.0823,-2.0837,-2.0984,-2.1306,-2.1247,-2.1247,-2.132,-2.132,-2.1481,-2.1818,-2.1818,-2.1979,-2.2286,-2.2286,-2.2447,-2.274,-2.2617,-2.2439,-2.223,-2.2104,-2.1803,-2.1362,-2.1362,-2.1488,-2.174,-2.2104,-2.2167,-2.2104,-2.6386,-2.6386,-2.6386,-2.6386,-2.6386,-2.6386,-2.6386,-2.6386,-2.6386,-2.6386,-2.6386,-2.6386,-2.6386,-2.6373,-2.636,-2.636,-2.6333,-2.6213,-2.5945,-2.5905,-2.5758,-2.5464,-2.5197,-2.505,-2.505,-2.4783,-2.4636,-2.4636,-2.4609,-2.4609,-2.4596,-2.4302,-2.4168,-2.4155,-2.3875,-2.3741,-2.3741,-2.3714,-2.3701,-2.3674,-2.3407,-2.3287,-2.326,-2.2966,-2.2928,-2.2928,-2.2928,-2.2928,-2.2928,-2.2928,-2.2928,-2.2928,-2.2928,-2.2846,-2.2832,-2.2832,-2.2605,-2.2231,-2.1762,-2.1601,-2.1443,-2.1149,-2.1082,-2.1002,-2.0708,-2.0641,-2.0561,-2.0267,-2.0201,-2.0107,-1.9786,-1.9739,-1.9437,-1.855,0.0,0.0,-1.8506,-1.9195,-1.9742,-1.9742,-2.032,-2.0635,-2.0635,-2.0898,-2.113,-2.113,-2.113,-2.1145,-2.1174,-2.1174,-2.132,-2.1657,-2.1364,-2.135,-2.1657,-2.1657,-2.1832,-2.214,-2.214,-2.2301,-2.2593,-2.2593,-2.2769,-2.3076,-2.2764,-2.2591,-2.2543,-2.223,-2.2041,-2.2041,-2.2041,-2.2041,-2.2104,-2.2418,-2.2355,-2.2104,-2.6386,-2.6386,-2.6386,-2.6386,-2.6386,-2.6386,-2.6386,-2.6386,-2.6386,-2.6386,-2.6386,-2.6386,-2.6386,-2.6386,-2.6386,-2.6386,-2.6386,-2.6346,-2.6226,-2.6226,-2.6012,-2.5531,-2.5411,-2.5344,-2.5344,-2.5237,-2.509,-2.4917,-2.4917,-2.4823,-2.4636,-2.4529,-2.4476,-2.4462,-2.4168,-2.4035,-2.4022,-2.3848,-2.3768,-2.3754,-2.3647,-2.3607,-2.3594,-2.3474,-2.342,-2.342,-2.342,-2.33,-2.3153,-2.3153,-2.302,-2.2928,-2.2928,-2.2928,-2.2928,-2.2928,-2.2779,-2.2605,-2.2205,-2.1951,-2.175,-2.1456,-2.139,-2.1309,-2.1015,-2.0949,-2.0869,-2.0575,-2.0508,-2.0414,-2.012,-2.0033,-1.991,-1.9327,0.0,-1.9555,-1.9291,-1.9763,-2.01,-2.01,-2.0654,-2.09,-2.0715,-2.1016,-2.1203,-2.1203,-2.1203,-2.1203,-2.1203,-2.1408,-2.1657,-2.1993,-2.1876,-2.1876,-2.1993,-2.1993,-2.2154,-2.2462,-2.2462,-2.2623,-2.2915,-2.2915,-2.2988,-2.3106,-2.2981,-2.2793,-2.2606,-2.248,-2.2292,-2.2104,-2.1853,-2.2041,-2.2355,-2.2118,-2.2041,-2.2104,-2.6386,-2.6386,-2.6386,-2.6386,-2.6386,-2.6386,-2.6386,-2.6386,-2.6386,-2.6386,-2.6386,-2.6386,-2.6386,-2.6386,-2.6386,-2.6386,-2.6386,-2.6386,-2.6386,-2.6386,-2.6213,-2.5798,-2.5705,-2.5651,-2.5651,-2.5558,-2.5411,-2.5224,-2.5117,-2.497,-2.477,-2.4676,-2.4636,-2.4549,-2.4422,-2.4342,-2.4329,-2.4128,-2.4035,-2.4035,-2.3941,-2.3915,-2.3901,-2.3808,-2.3768,-2.3768,-2.3768,-2.3647,-2.3474,-2.3474,-2.3327,-2.3126,-2.3033,-2.2939,-2.2928,-2.2928,-2.2928,-2.2819,-2.2619,-2.2405,-2.2164,-2.1856,-2.1762,-2.1617,-2.1309,-2.1256,-2.1162,-2.0869,-2.0815,-2.0722,-2.0428,-2.0374,-2.0281,-1.9987,-1.9996,-2.0086,-2.0097,-2.0486,-2.0716,-2.0716,-2.1206,-2.1394,-2.1205,-2.1394,-2.1511,-2.1511,-2.1511,-2.1511,-2.1511,-2.173,-2.1993,-2.2315,-2.233,-2.2374,-2.2476,-2.2374,-2.2476,-2.2769,-2.2769,-2.2901,-2.3106,-2.3106,-2.3106,-2.3106,-2.3106,-2.2981,-2.2731,-2.2731,-2.2606,-2.2418,-2.2167,-2.2292,-2.2543,-2.2104,-2.1915,-2.1915,-2.6386,-2.6386,-2.6386,-2.6386,-2.6386,-2.6386,-2.6386,-2.6386,-2.6386,-2.6386,-2.6386,-2.6386,-2.6386,-2.6386,-2.6386,-2.6386,-2.6386,-2.6386,-2.6386,-2.6386,-2.6386,-2.6386,-2.6119,-2.6037,-2.6037,-2.5678,-2.5518,-2.5518,-2.5224,-2.5077,-2.5077,-2.4783,-2.4562,-2.4636,-2.4636,-2.4636,-2.4636,-2.4636,-2.4636,-2.4609,-2.4329,-2.4209,-2.4168,-2.3888,-2.3781,-2.3781,-2.3781,-2.3768,-2.3768,-2.3768,-2.3768,-2.3714,-2.342,-2.3113,-2.2941,-2.2928,-2.2928,-2.2928,-2.2928,-2.2928,-2.2794,-2.2138,-2.1991,-2.1911,-2.1681,-2.1614,-2.1534,-2.1176,-2.1109,-2.1029,-2.0735,-2.0681,-2.0588,-2.0281,-2.047,-2.0711,-2.0711,-2.1254,-2.1735,-2.1735,-2.1989,-2.2184,-2.2184,-2.2184,-2.2184,-2.2184,-2.2184,-2.2184,-2.2184,-2.2184,-2.233,-2.2623,-2.2623,-2.2784,-2.3106,-2.2784,-2.2784,-2.3106,-2.3106,-2.3106,-2.3106,-2.3106,-2.3106,-2.3106,-2.3106,-2.3106,-2.3106,-2.3106,-2.3106,-2.3106,-2.3106,-2.2856,-2.2606,-2.2606,-2.2167,-2.1614,-2.6386,-2.6386,-2.6386,-2.6386,-2.6386,-2.6386,-2.6386,-2.6386,-2.6386,-2.6386,-2.6386,-2.6386,-2.6386,-2.6386,-2.6386,-2.6386,-2.6386,-2.6386,-2.6386,-2.6386,-2.6386,-2.6386,-2.6306,-2.6266,-2.6266,-2.6172,-2.6026,-2.5825,-2.5732,-2.5491,-2.5077,-2.4983,-2.4836,-2.4636,-2.4636,-2.4636,-2.4636,-2.4636,-2.4636,-2.4549,-2.4543,-2.4502,-2.4502,-2.4409,-2.4382,-2.4382,-2.4382,-2.4249,-2.4075,-2.4075,-2.3941,-2.3754,-2.3661,-2.3581,-2.346,-2.3247,-2.3193,-2.314,-2.2926,-2.2928,-2.2766,-2.2378,-2.2285,-2.2218,-2.1924,-2.1857,-2.183,-2.1737,-2.1563,-2.1454,-2.1373,-2.1122,-2.0882,-2.0588,-2.0609,-2.0713,-2.0678,-2.1074,-2.1435,-2.1675,-2.1989,-2.2184,-2.2184,-2.2184,-2.2184,-2.2184,-2.2184,-2.2271,-2.2476,-2.2491,-2.2637,-2.2959,-2.2959,-2.3018,-2.3106,-2.3018,-2.3018,-2.3106,-2.3106,-2.3106,-2.3106,-2.3106,-2.3106,-2.3106,-2.3106,-2.3106,-2.3106,-2.2856,-2.2731,-2.2668,-2.223,-2.2104,-2.2167,-2.174,-2.1551,-2.1551,-2.6386,-2.6386,-2.6386,-2.6386,-2.6386,-2.6386,-2.6386,-2.6386,-2.6386,-2.6386,-2.6386,-2.6386,-2.6386,-2.6386,-2.6386,-2.6386,-2.6386,-2.6386,-2.6386,-2.6386,-2.6386,-2.6386,-2.6386,-2.6386,-2.6386,-2.6386,-2.6306,-2.6132,-2.6012,-2.5772,-2.5424,-2.5304,-2.509,-2.481,-2.481,-2.4743,-2.4636,-2.4636,-2.4636,-2.4636,-2.4636,-2.4636,-2.4636,-2.4636,-2.4636,-2.4636,-2.4636,-2.4529,-2.4369,-2.4369,-2.4182,-2.3941,-2.3941,-2.3861,-2.3728,-2.3554,-2.35,-2.3434,-2.3126,-2.3046,-2.2966,-2.2672,-2.2592,-2.2512,-2.2231,-2.2151,-2.2124,-2.2004,-2.1844,-2.1789,-2.1789,-2.1577,-2.1363,-2.1069,-2.1092,-2.0985,-2.0862,-2.1129,-2.1435,-2.1619,-2.2047,-2.2367,-2.2367,-2.2489,-2.255,-2.255,-2.255,-2.2623,-2.2798,-2.2813,-2.2901,-2.3106,-2.3106,-2.3106,-2.3106,-2.3106,-2.3106,-2.3106,-2.3106,-2.3106,-2.3106,-2.3106,-2.3106,-2.3106,-2.3106,-2.3043,-2.2856,-2.2668,-2.2543,-2.2355,-2.1992,-2.1853,-2.1853,-2.1425,-2.1362,-2.1362,-2.6149,-2.6307,-2.6386,-2.6386,-2.6386,-2.6386,-2.6386,-2.6386,-2.6386,-2.6386,-2.6386,-2.6386,-2.6386,-2.6386,-2.6386,-2.6386,-2.6386,-2.6386,-2.6386,-2.6386,-2.6386,-2.6386,-2.6386,-2.6386,-2.6386,-2.6386,-2.6386,-2.6386,-2.6132,-2.5985,-2.6023,-2.5678,-2.5398,-2.5117,-2.5117,-2.497,-2.4716,-2.4716,-2.4716,-2.4716,-2.4716,-2.4716,-2.4716,-2.4716,-2.4716,-2.4716,-2.4716,-2.4703,-2.4676,-2.4649,-2.4462,-2.4249,-2.4249,-2.4062,-2.3848,-2.3821,-2.3808,-2.3741,-2.3236,-2.3157,-2.3007,-2.2622,-2.2625,-2.2682,-2.2458,-2.2458,-2.2378,-2.2124,-2.2044,-2.2031,-2.2031,-2.2004,-2.1897,-2.1695,-2.1655,-2.1561,-2.1229,-2.1443,-2.1683,-2.1655,-2.2209,-2.2634,-2.2606,-2.2918,-2.3106,-2.3106,-2.3106,-2.3106,-2.3106,-2.3135,-2.3149,-2.3149,-2.3179,-2.3193,-2.3193,-2.3193,-2.3164,-2.3043,-2.3043,-2.3058,-2.3087,-2.3087,-2.3039,-2.3068,-2.3068,-2.2943,-2.2629,-2.2566,-2.244,-2.2125,-2.2125,-2.1872,-2.1633,-2.1633,-2.1443,-2.1189,-2.4375,-2.5422,-2.6386,-2.6386,-2.6386,-2.6386,-2.6386,-2.6386,-2.6386,-2.6386,-2.6386,-2.6386,-2.6386,-2.6386,-2.6386,-2.6386,-2.6386,-2.6386,-2.6386,-2.6386,-2.6386,-2.6386,-2.6386,-2.6386,-2.6386,-2.6386,-2.6386,-2.6386,-2.6333,-2.6186,-2.6037,-2.597,-2.5705,-2.5424,-2.5424,-2.5384,-2.5317,-2.5317,-2.5317,-2.5317,-2.5317,-2.5317,-2.5317,-2.5317,-2.5317,-2.5317,-2.5317,-2.517,-2.4943,-2.4716,-2.4596,-2.4543,-2.4543,-2.4502,-2.4409,-2.4168,-2.4115,-2.3747,-2.2144,-2.1712,-2.1353,-1.9943,-2.0509,-2.157,-2.2559,-2.2766,-2.2752,-2.2686,-2.2485,-2.2325,-2.2325,-2.2138,-2.1964,-2.1897,-2.1897,-2.1871,-2.1804,-2.2117,-2.223,-2.1997,-2.2596,-2.2878,-2.2634,-2.2918,-2.3106,-2.3106,-2.3106,-2.3106,-2.3106,-2.3354,-2.3486,-2.3486,-2.3735,-2.3866,-2.3866,-2.3866,-2.349,-2.2731,-2.2731,-2.2734,-2.2723,-2.2723,-2.2801,-2.3026,-2.3026,-2.2962,-2.2897,-2.2637,-2.2507,-2.2377,-2.2117,-2.1986,-2.1921,-2.1921,-2.1856,-2.1764,-2.2591,-2.3324,-2.3884,-2.3884,-2.3884,-2.3884,-2.3884,-2.3884,-2.4203,-2.5025,-2.4455,-2.4203,-2.5104,-2.4455,-2.4283,-2.5104,-2.5184,-2.5184,-2.5184,-2.5184,-2.4773,-2.3964,-2.3884,-2.3884,-2.3884,-2.4694,-2.5581,-2.6386,-2.6386,-2.6306,-2.6159,-2.6159,-2.5999,-2.5718,-2.5718,-2.5651,-2.5518,-2.5518,-2.5518,-2.5518,-2.5518,-2.5518,-2.5518,-2.5518,-2.5518,-2.5518,-2.5518,-2.5411,-2.5264,-2.5104,-2.4957,-2.485,-2.485,-2.4756,-2.4609,-2.4449,-2.4409,-2.3977,-2.2068,-2.1546,-2.1124,-1.926,-1.941,-2.0237,-2.149,-2.2366,-2.2928,-2.2928,-2.2739,-2.2632,-2.2632,-2.2512,-2.2352,-2.2218,-2.2191,-2.2151,-2.2004,-2.2175,-2.1924,-2.111,-2.1476,-2.1605,-2.1239,-2.169,-2.2025,-2.2025,-2.2025,-2.2025,-2.2025,-2.2175,-2.2257,-2.2257,-2.2421,-2.2504,-2.2504,-2.2897,-2.273,-2.2025,-2.2744,-2.2957,-2.279,-2.279,-2.2874,-2.3028,-2.3028,-2.2897,-2.2766,-2.2569,-2.2372,-2.2241,-2.2057,-2.1991,-2.1991,-2.1991,-2.1991,-2.1964,-2.0727,-2.098,-2.1222,-2.1222,-2.1222,-2.1222,-2.1222,-2.1222,-2.1706,-2.3164,-2.2108,-2.1786,-2.3164,-2.2028,-2.1786,-2.3244,-2.3324,-2.3324,-2.3324,-2.3324,-2.2682,-2.1303,-2.1222,-2.1222,-2.1222,-2.2602,-2.4215,-2.599,-2.6228,-2.6386,-2.6386,-2.6386,-2.6266,-2.6039,-2.6039,-2.5892,-2.5665,-2.5665,-2.5665,-2.5665,-2.5665,-2.5665,-2.5665,-2.5665,-2.5665,-2.5665,-2.5665,-2.5394,-2.5111,-2.5058,-2.4736,-2.43,-2.43,-2.407,-2.3864,-2.3812,-2.3799,-2.3438,-2.1526,-2.1075,-2.0575,-1.8696,-1.8341,-1.8819,-1.9735,-2.1282,-2.2569,-2.2516,-2.2722,-2.2791,-2.2585,-2.2516,-2.2356,-2.1768,-2.1742,-2.1652,-2.1419,-2.1381,-2.0901,-1.9649,-1.9723,-1.982,-1.9597,-2.0232,-2.0642,-2.0788,-2.0788,-2.0788,-2.0788,-2.0838,-2.0863,-2.0863,-2.0901,-2.0927,-2.0781,-2.1527,-2.158,-2.0981,-2.231,-2.2877,-2.2915,-2.2638,-2.2665,-2.2984,-2.2984,-2.2852,-2.2588,-2.2588,-2.2403,-2.2138,-2.2138,-2.2138,-2.2138,-2.2138,-2.2098,-2.2058,-1.8952,-2.016,-2.1222,-2.1222,-2.1222,-2.1222,-2.1222,-2.1222,-2.1303,-2.1545,-2.1383,-2.1303,-2.1545,-2.1383,-2.1303,-2.1545,-2.1545,-2.1545,-2.1545,-2.1545,-2.1464,-2.1222,-2.1222,-2.1222,-2.1222,-2.1464,-2.243,-2.4136,-2.566,-2.6386,-2.6386,-2.6386,-2.6373,-2.6333,-2.6333,-2.6306,-2.6266,-2.6266,-2.6266,-2.6266,-2.6266,-2.6266,-2.6266,-2.6266,-2.6266,-2.6266,-2.6266,-2.5139,-2.3622,-2.3389,-2.2198,-2.0935,-2.0935,-2.0913,-2.0836,-2.0703,-2.0724,-2.0288,-1.8471,-1.7967,-1.753,-1.5679,-1.6217,-1.7185,-1.7248,-1.9272,-2.1105,-2.0955,-2.1953,-2.2516,-2.1183,-2.0906,-2.0479,-1.9172,-1.8963,-1.8952,-1.8919,-1.8908,-1.8691,-1.8208,-1.8271,-1.8675,-1.953,-1.9675,-2.002,-2.0721,-2.0788,-2.0788,-2.0788,-2.1082,-2.1222,-2.1222,-2.1437,-2.1264,-2.0634,-2.1333,-2.0921,-1.9243,-2.0152,-2.122,-2.2432,-2.1129,-2.1404,-2.2875,-2.2875,-2.2875,-2.2875,-2.2875,-2.2807,-2.2807,-2.2807,-2.2807,-2.2807,-2.2807,-2.2579,-2.2365,-1.7173,-1.7746,-1.8309,-1.8309,-1.8309,-1.8309,-1.8309,-1.8309,-1.8636,-1.9592,-1.887,-1.8636,-1.9674,-1.887,-1.8717,-1.9684,-1.9755,-1.9755,-1.9755,-1.9755,-1.9277,-1.8309,-1.8309,-1.8309,-1.8309,-1.9277,-2.0079,-2.0888,-2.2671,-2.3484,-2.3484,-2.3484,-2.3484,-2.3484,-2.3484,-2.3484,-2.3484,-2.3484,-2.3484,-2.3484,-2.3484,-2.3484,-2.3484,-2.3484,-2.3484,-2.3484,-2.3484,-2.2922,-2.2157,-2.1975,-2.1377,-2.0558,-2.0558,-2.0462,-2.0256,-2.0227,-2.0187,-1.9751,-1.8048,-1.7492,-1.6998,-1.5328,-1.5371,-1.5774,-1.5593,-1.7163,-1.8808,-1.9439,-2.0075,-2.0309,-1.9529,-1.9367,-1.9158,-1.8519,-1.8379,-1.8379,-1.8379,-1.8379,-1.7998,-1.6997,-1.655,-1.6481,-1.6965,-1.7458,-1.802,-1.8798,-1.8855,-1.9004,-1.9415,-1.9588,-1.9657,-1.9657,-1.9819,-1.9738,-1.9379,-1.9727,-1.9657,-1.9228,-1.832,-1.8674,-2.0161,-1.9473,-1.9611,-2.0409,-2.0409,-2.0837,-2.1609,-2.1609,-2.2091,-2.2928,-2.2928,-2.2928,-2.2928,-2.2928,-2.2779,-2.2672]},{"header":{"parameterUnit":"m.s-1","parameterCategory":1,"la1":30.6,"la2":28.766,"lo1":-90.7593,"lo2":-88.6598,"dy":0.0162,"dx":0.0183,"nx":116,"ny":114,"refTime":"2024-06-17T06:00:00:Z","depth":0,"parameterNumber":3,"parameterNumberName":"V-component_of_WINDS"},"data":[0.0,0.0,0.0,0.0,0.0,0.0,0.0,0.0,0.0,0.0,0.0,0.0,0.0,0.0,0.0,0.0,0.0,0.0,0.0,0.0,0.0,0.0,0.0,0.0,0.0,0.0,0.0,0.0,0.0,0.0,0.0,0.0,0.0,0.0,0.0,0.0,0.0,0.0,0.0,0.0,0.0,0.0,0.0,0.0,0.0,0.0,0.0,0.0,0.0,0.0,0.0,0.0,0.0,0.0,0.0,0.0,0.0,0.0,0.0,0.0,0.0,0.0,0.0,0.0,0.0,0.0,0.0,0.0,0.0,0.0,0.0,0.0,0.0,0.0,0.0,0.0,0.0,0.0,0.0,0.0,0.0,0.0,0.0,0.0,0.0,0.0,0.0,0.0,0.0,0.0,0.0,0.0,0.0,0.0,0.0,0.0,0.0,0.0,0.0,0.0,0.0,0.0,0.0,0.0,0.0,0.0,0.0,0.0,0.0,0.0,0.0,0.0,0.0,0.0,0.0,0.0,0.0,0.0,0.0,0.0,0.0,0.0,0.0,0.0,0.0,0.0,0.0,0.0,0.0,0.0,0.0,0.0,0.0,0.0,0.0,0.0,0.0,0.0,0.0,0.0,0.0,0.0,0.0,0.0,0.0,0.0,0.0,0.0,0.0,0.0,0.0,0.0,0.0,0.0,0.0,0.0,0.0,0.0,0.0,0.0,0.0,0.0,0.0,0.0,0.0,0.0,0.0,0.0,0.0,0.0,0.0,0.0,0.0,0.0,0.0,0.0,0.0,0.0,0.0,0.0,0.0,0.0,0.0,0.0,0.0,0.0,0.0,0.0,0.0,0.0,0.0,0.0,0.0,0.0,0.0,0.0,0.0,0.0,0.0,0.0,0.0,0.0,0.0,0.0,0.0,0.0,0.0,0.0,0.0,0.0,0.0,0.0,0.0,0.0,0.0,0.0,0.0,0.0,0.0,0.0,0.0,0.0,0.0,0.0,0.0,0.0,0.0,0.0,0.0,0.0,0.0,0.0,0.0,0.0,0.0,0.0,0.0,0.0,0.0,0.0,0.0,0.0,0.0,0.0,0.0,0.0,0.0,0.0,0.0,0.0,0.0,0.0,0.0,0.0,0.0,0.0,0.0,0.0,0.0,0.0,0.0,0.0,0.0,0.0,0.0,0.0,0.0,0.0,0.0,0.0,0.0,0.0,0.0,0.0,0.0,0.0,0.0,0.0,0.0,0.0,0.0,0.0,0.0,0.0,0.0,0.0,0.0,0.0,0.0,0.0,0.0,0.0,0.0,0.0,0.0,0.0,0.0,0.0,0.0,0.0,0.0,0.0,0.0,0.0,0.0,0.0,0.0,0.0,0.0,0.0,0.0,0.0,0.0,0.0,0.0,0.0,0.0,0.0,0.0,0.0,0.0,0.0,0.0,0.0,0.0,0.0,0.0,0.0,0.0,0.0,0.0,0.0,0.0,0.0,0.0,0.0,0.0,0.0,0.0,0.0,0.0,0.0,0.0,0.0,0.0,0.0,0.0,0.0,0.0,0.0,0.0,0.0,0.0,0.0,0.0,0.0,0.0,0.0,0.0,0.0,0.0,0.0,0.0,0.0,0.0,0.0,0.0,0.0,0.0,0.0,0.0,0.0,0.0,0.0,0.0,0.0,0.0,0.0,0.0,0.0,0.0,0.0,0.0,0.0,0.0,0.0,0.0,0.0,0.0,0.0,0.0,0.0,0.0,0.0,0.0,0.0,0.0,0.0,0.0,0.0,0.0,0.0,0.0,0.0,0.0,0.0,0.0,0.0,0.0,0.0,0.0,0.0,0.0,0.0,0.0,0.0,0.0,0.0,0.0,0.0,0.0,0.0,0.0,0.0,0.0,0.0,0.0,0.0,0.0,0.0,0.0,0.0,0.0,0.0,0.0,0.0,0.0,0.0,0.0,0.0,0.0,0.0,0.0,0.0,0.0,0.0,0.0,0.0,0.0,0.0,0.0,0.0,0.0,0.0,0.0,0.0,0.0,0.0,0.0,0.0,0.0,0.0,0.0,0.0,0.0,0.0,0.0,0.0,0.0,0.0,0.0,0.0,0.0,0.0,0.0,0.0,0.0,0.0,0.0,0.0,0.0,0.0,0.0,0.0,0.0,0.0,0.0,0.0,0.0,0.0,0.0,0.0,0.0,0.0,0.0,0.0,0.0,0.0,0.0,0.0,0.0,0.0,0.0,0.0,0.0,0.0,0.0,0.0,0.0,0.0,0.0,0.0,0.0,0.0,0.0,0.0,0.0,0.0,0.0,0.0,0.0,0.0,0.0,0.0,0.0,0.0,0.0,0.0,0.0,0.0,0.0,0.0,0.0,0.0,0.0,0.0,0.0,0.0,0.0,0.0,0.0,0.0,0.0,0.0,0.0,0.0,0.0,0.0,0.0,0.0,0.0,0.0,0.0,0.0,0.0,0.0,0.0,0.0,0.0,0.0,0.0,0.0,0.0,0.0,0.0,0.0,0.0,0.0,0.0,0.0,0.0,0.0,0.0,0.0,0.0,0.0,0.0,0.0,0.0,0.0,0.0,0.0,0.0,0.0,0.0,0.0,0.0,0.0,0.0,0.0,0.0,0.0,0.0,0.0,0.0,0.0,0.0,0.0,0.0,0.0,0.0,0.0,0.0,0.0,0.0,0.0,0.0,0.0,0.0,0.0,0.0,0.0,0.0,0.0,0.0,0.0,0.0,0.0,0.0,0.0,0.0,0.0,0.0,0.0,0.0,0.0,0.0,0.0,0.0,0.0,0.0,0.0,0.0,0.0,0.0,0.0,0.0,0.0,0.0,0.0,0.0,0.0,0.0,0.0,0.0,0.0,0.0,0.0,0.0,0.0,0.0,0.0,0.0,0.0,0.0,0.0,0.0,0.0,0.0,0.0,0.0,0.0,0.0,0.0,0.0,0.0,0.0,0.0,0.0,0.0,0.0,0.0,0.0,0.0,0.0,0.0,0.0,0.0,0.0,0.0,0.0,0.0,0.0,0.0,0.0,0.0,0.0,0.0,0.0,0.0,0.0,0.0,0.0,0.0,0.0,0.0,0.0,0.0,0.0,0.0,0.0,0.0,0.0,0.0,0.0,0.0,0.0,0.0,0.0,0.0,0.0,0.0,0.0,0.0,0.0,0.0,0.0,0.0,0.0,0.0,0.0,0.0,0.0,0.0,0.0,0.0,0.0,0.0,0.0,0.0,0.0,0.0,0.0,0.0,0.0,0.0,0.0,0.0,0.0,0.0,0.0,0.0,0.0,0.0,0.0,0.0,0.0,0.0,0.0,0.0,0.0,0.0,0.0,0.0,0.0,0.0,0.0,0.0,0.0,0.0,0.0,0.0,0.0,0.0,0.0,0.0,0.0,0.0,0.0,0.0,0.0,0.0,0.0,0.0,0.0,0.0,0.0,0.0,0.0,0.0,0.0,0.0,0.0,0.0,0.0,0.0,0.0,0.0,0.0,0.0,0.0,0.0,0.0,0.0,0.0,0.0,0.0,0.0,0.0,0.0,0.0,0.0,0.0,0.0,0.0,0.0,0.0,0.0,0.0,0.0,0.0,0.0,0.0,0.0,0.0,0.0,0.0,0.0,0.0,0.0,0.0,0.0,0.0,0.0,0.0,0.0,0.0,0.0,0.0,0.0,0.0,0.0,0.0,0.0,0.0,0.0,0.0,0.0,0.0,0.0,0.0,0.0,0.0,0.0,0.0,0.0,0.0,0.0,0.0,0.0,0.0,0.0,0.0,0.0,0.0,0.0,0.0,0.0,0.0,0.0,0.0,0.0,0.0,0.0,0.0,0.0,0.0,0.0,0.0,0.0,0.0,0.0,0.0,0.0,0.0,0.0,0.0,0.0,0.0,0.0,0.0,0.0,0.0,0.0,0.0,0.0,0.0,0.0,0.0,0.0,0.0,0.0,0.0,0.0,0.0,0.0,0.0,0.0,0.0,0.0,0.0,0.0,0.0,0.0,0.0,0.0,0.0,0.0,0.0,0.0,0.0,0.0,0.0,0.0,0.0,0.0,0.0,0.0,0.0,0.0,0.0,0.0,0.0,0.0,0.0,0.0,0.0,0.0,0.0,0.0,0.0,0.0,0.0,0.0,0.0,0.0,0.0,0.0,0.0,0.0,0.0,0.0,0.0,0.0,0.0,0.0,0.0,0.0,0.0,0.0,0.0,0.0,0.0,0.0,0.0,0.0,0.0,0.0,0.0,0.0,0.0,0.0,0.0,0.0,0.0,0.0,0.0,0.0,0.0,0.0,0.0,0.0,0.0,0.0,0.0,0.0,0.0,0.0,0.0,0.0,0.0,0.0,0.0,0.0,0.0,0.0,0.0,0.0,0.0,0.0,0.0,0.0,0.0,0.0,0.0,0.0,0.0,0.0,0.0,0.0,0.0,0.0,0.0,0.0,0.0,0.0,0.0,0.0,0.0,0.0,0.0,0.0,0.0,0.0,0.0,0.0,0.0,0.0,0.0,0.0,0.0,0.0,0.0,0.0,0.0,0.0,0.0,0.0,0.0,0.0,0.0,0.0,0.0,0.0,0.0,0.0,0.0,0.0,0.0,0.0,0.0,0.0,0.0,0.0,0.0,0.0,0.0,0.0,0.0,0.0,0.0,0.0,0.0,0.0,0.0,0.0,0.0,0.0,0.0,0.0,0.0,0.0,0.0,0.0,0.0,0.0,0.0,0.0,0.0,0.0,0.0,0.0,0.0,0.0,0.0,0.0,0.0,0.0,0.0,0.0,0.0,0.0,0.0,0.0,0.0,0.0,0.0,0.0,0.0,0.0,0.0,0.0,0.0,0.0,0.0,0.0,0.0,0.0,0.0,0.0,0.0,0.0,0.0,0.0,0.0,0.0,0.0,0.0,0.0,0.0,0.0,0.0,0.0,0.0,0.0,0.0,0.0,0.0,0.0,0.0,0.0,0.0,0.0,0.0,0.0,0.0,0.0,0.0,0.0,0.0,0.0,0.0,0.0,0.0,0.0,0.0,0.0,0.0,0.0,0.0,0.0,0.0,0.0,0.0,0.0,0.0,0.0,0.0,0.0,0.0,0.0,0.0,0.0,0.0,0.0,0.0,0.0,0.0,0.0,0.0,0.0,0.0,0.0,0.0,0.0,0.0,0.0,0.0,0.0,0.0,0.0,0.0,0.0,0.0,0.0,0.0,0.0,0.0,0.0,0.0,0.0,0.0,0.0,0.0,0.0,0.0,0.0,0.0,0.0,0.0,0.0,0.0,0.0,0.0,0.0,0.0,0.0,0.0,0.0,0.0,0.0,0.0,0.0,0.0,0.0,0.0,0.0,0.0,0.0,0.0,0.0,0.0,0.0,0.0,0.0,0.0,0.0,0.0,0.0,0.0,0.0,0.0,0.0,0.0,0.0,0.0,0.0,0.0,0.0,0.0,0.0,0.0,0.0,0.0,0.0,0.0,0.0,0.0,0.0,0.0,0.0,0.0,0.0,0.0,0.0,0.0,0.0,0.0,0.0,0.0,0.0,0.0,0.0,0.0,0.0,0.0,0.0,0.0,0.0,0.0,0.0,0.0,0.0,0.0,0.0,0.0,0.0,0.0,0.0,0.0,0.0,0.0,0.0,0.0,0.0,0.0,0.0,0.0,0.0,0.0,0.0,0.0,0.0,0.0,0.0,0.0,0.0,0.0,0.0,0.0,0.0,0.0,0.0,0.0,0.0,0.0,0.0,0.0,0.0,0.0,0.0,0.0,0.0,0.0,0.0,0.0,0.0,0.0,0.0,0.0,0.0,0.0,0.0,0.0,0.0,0.0,0.0,0.0,0.0,0.0,0.0,0.0,0.0,0.0,0.0,0.0,0.0,0.0,0.0,0.0,0.0,0.0,0.0,0.0,0.0,0.0,0.0,0.0,0.0,0.0,0.0,0.0,0.0,0.0,0.0,0.0,0.0,0.0,0.0,0.0,0.0,0.0,0.0,0.0,0.0,0.0,0.0,0.0,0.0,0.0,0.0,0.0,0.0,0.0,0.0,0.0,0.0,0.0,0.0,0.0,0.0,0.0,0.0,0.0,0.0,0.0,0.0,0.0,0.0,0.0,1.2012,0.0,0.0,0.0,0.0,0.0,0.0,0.0,0.0,0.0,0.0,0.0,0.0,0.0,0.0,0.0,0.0,0.0,0.0,0.0,0.0,0.0,0.0,0.0,0.0,0.8766,0.8712,0.9019,0.9073,0.9065,0.9057,0.9057,0.905,0.9065,0.905,0.9042,0.9011,0.9042,0.9388,1.0057,1.0023,1.0718,1.2056,1.1069,1.0435,1.0094,0.0,0.0,0.0,0.0,0.0,0.0,0.0,0.0,0.0,0.0,0.0,0.0,0.0,0.0,0.0,0.0,0.0,0.0,0.0,0.0,0.0,0.0,0.0,0.0,0.0,0.0,0.0,0.0,0.0,0.0,0.0,0.0,0.0,0.0,0.0,0.0,0.0,0.0,0.0,0.0,0.0,0.0,0.0,0.0,0.0,0.0,0.0,0.0,0.0,0.0,0.0,0.0,0.0,0.0,0.0,0.0,0.0,0.0,0.0,0.0,0.0,0.0,0.0,0.0,0.0,0.0,0.0,0.0,0.0,0.0,0.0,1.3356,0.0,0.0,0.0,0.0,0.0,0.0,0.0,0.0,0.0,0.0,0.0,0.0,0.0,0.0,0.0,0.0,0.0,0.0,0.0,0.0,0.0,0.8508,0.9857,0.9469,0.9401,1.0193,1.0163,1.0132,1.0264,1.0141,1.0093,1.0066,1.0101,1.0062,1.001,1.0176,1.0602,1.1268,1.181,1.2715,1.3983,1.4277,1.4424,1.4387,1.3586,0.0,0.0,0.0,0.0,0.0,0.0,0.0,0.0,0.0,0.0,0.0,0.0,0.0,0.0,0.0,0.0,0.0,0.0,0.0,0.0,0.0,0.0,0.0,0.0,0.0,0.0,0.0,0.0,0.0,0.0,0.0,0.0,0.0,0.0,0.0,0.0,0.0,0.0,0.0,0.0,0.0,0.0,0.0,0.0,0.0,0.0,0.0,0.0,0.0,0.0,0.0,0.0,0.0,0.0,0.0,0.0,0.0,0.0,0.0,0.0,0.0,0.0,0.0,1.9499,1.9812,1.9812,1.9812,1.9812,1.9734,1.8349,1.7068,1.5866,0.0,0.0,0.0,0.0,0.0,0.0,0.0,0.0,0.0,0.0,0.0,0.0,0.0,0.0,0.0,0.0,0.0,0.0,0.0,0.0,0.8545,0.9944,0.9444,0.9527,1.0773,1.0358,1.0257,1.0834,1.0354,1.001,1.001,1.0062,1.011,1.0106,1.0608,1.121,1.1882,1.4844,1.6692,1.7456,1.8648,1.9265,1.9162,1.5034,1.3729,1.4486,0.0,0.0,0.0,0.0,0.0,0.0,0.0,0.0,0.0,0.0,0.0,0.0,0.0,0.0,0.0,0.0,0.0,0.0,0.0,0.0,0.0,0.0,0.0,0.0,0.0,0.0,0.0,0.0,0.0,0.0,0.0,0.0,0.0,0.0,0.0,0.0,0.0,0.0,0.0,0.0,0.0,1.2549,1.3304,0.0,0.0,0.0,0.0,0.0,0.0,0.0,0.0,0.0,0.0,0.0,0.0,0.0,0.0,1.9342,2.0936,2.1747,2.1852,2.2897,2.3391,2.3391,2.3391,2.3391,2.3391,2.3184,0.0,1.7695,1.7016,0.0,0.0,0.0,0.0,0.0,0.0,0.0,0.0,0.0,0.0,0.0,0.0,0.0,0.0,0.0,0.0,0.0,0.0,0.0,0.0,0.0,1.0858,1.1162,1.2568,1.2727,1.2598,1.2218,1.2216,1.1901,1.1171,1.1189,1.1372,1.1657,1.1982,1.2981,1.4705,1.706,1.8705,1.9637,2.032,2.0862,2.1155,1.8742,1.7363,1.6717,1.4394,0.0,0.0,0.0,0.0,0.0,0.0,0.0,0.0,0.0,0.0,0.0,0.0,0.0,0.0,0.0,0.0,0.0,0.0,0.0,0.0,0.0,0.0,0.0,0.0,0.0,0.0,0.0,0.0,0.0,0.0,0.0,0.0,0.0,0.0,0.0,0.0,0.0,0.0,0.0,1.225,1.4017,1.4333,1.5337,1.5517,0.0,0.0,0.0,0.0,0.0,0.0,0.0,0.0,0.0,2.062,2.1186,2.1845,2.2715,2.3474,2.4024,2.4308,2.4831,2.5036,2.5036,2.5036,2.5036,2.5036,2.5036,2.389,2.1878,2.0257,1.895,1.7826,0.0,0.0,0.0,0.0,0.0,1.725,0.0,0.0,0.0,0.0,0.0,0.0,0.0,0.0,0.0,0.0,0.0,0.0,1.2061,1.2331,1.2972,1.4326,1.4749,1.458,1.3849,1.3764,1.3254,1.2284,1.2277,1.251,1.2894,1.3612,1.5145,1.7537,1.9061,2.0321,2.1321,2.1626,2.2048,2.2484,2.1835,2.066,1.905,1.6901,1.5685,1.5039,0.0,0.0,0.0,0.0,0.0,0.0,0.0,0.0,0.0,0.0,0.0,0.0,0.0,0.0,0.0,0.0,0.0,0.0,0.0,0.0,0.0,0.0,0.0,0.0,0.0,0.0,0.0,0.0,0.0,0.0,0.0,0.0,0.0,0.0,0.0,0.0,0.0,1.4004,1.5814,1.5814,1.7685,1.8283,0.0,0.0,0.0,0.0,0.0,0.0,2.1074,2.1772,2.2658,2.3771,2.4259,2.4907,2.5686,2.566,2.5918,2.6496,2.6306,2.6237,2.6237,2.6237,2.6237,2.6237,2.6237,2.5929,2.5254,2.308,2.159,2.0623,2.0022,1.9786,1.9865,2.0309,2.0227,2.0064,0.0,0.0,0.0,0.0,0.0,0.0,0.0,0.0,0.0,0.0,0.0,1.066,1.2652,1.3413,1.4322,1.5615,1.5208,1.5117,1.5615,1.3956,1.2924,1.2863,1.2921,1.2951,1.2882,1.5328,1.7585,1.9558,2.0971,2.2033,2.2727,2.3381,2.3746,2.3861,2.306,2.2425,2.1736,1.9142,1.8038,1.7823,1.5795,0.0,0.0,0.0,0.0,0.0,0.0,0.0,0.0,0.0,0.0,0.0,0.0,0.0,0.0,0.0,0.0,0.0,0.0,0.0,0.0,0.0,0.0,0.0,0.0,0.0,0.0,0.0,0.0,0.0,0.0,0.0,0.0,0.0,0.0,0.0,0.0,0.0,0.0,1.8493,2.0846,0.0,0.0,0.0,0.0,2.2293,2.2316,2.2691,2.3666,2.5057,2.555,2.4925,2.6589,2.7519,2.7569,2.7432,2.769,2.8368,2.7716,2.7411,2.7411,2.7411,2.7411,2.7411,2.7411,2.7105,2.6484,2.47,2.3574,2.3001,2.2427,2.2244,2.2243,2.2269,2.2243,2.2245,0.0,0.0,0.0,0.8033,0.8429,0.8965,0.9621,0.9483,0.9731,1.0838,1.1062,1.1732,1.3317,1.4476,1.5633,1.6922,1.6832,1.6443,1.5842,1.5134,1.4575,1.4197,1.4222,1.4769,1.5978,1.815,2.0067,2.1625,2.3026,2.4018,2.4612,2.4942,2.5055,2.501,2.4814,2.4618,2.4282,2.1238,1.9484,1.8648,1.7058,1.5662,0.0,0.0,0.0,0.0,0.0,0.0,0.0,0.0,0.0,0.0,0.0,0.0,0.0,0.0,0.0,0.0,0.0,0.0,0.0,0.0,0.0,0.0,0.0,0.0,0.0,0.0,0.0,0.0,0.0,0.0,0.0,0.0,0.0,0.0,0.0,0.0,0.0,2.1235,2.3601,0.0,2.2742,2.3851,2.4633,2.4567,2.536,2.6358,2.7524,2.8128,2.8455,2.8521,2.8756,2.8636,2.822,2.7749,2.7623,2.7855,2.7623,2.749,2.749,2.749,2.749,2.749,2.749,2.7385,2.7183,2.6524,2.5715,2.4853,2.4674,2.4596,2.4592,2.4592,2.4596,2.4596,0.8112,0.8089,0.0,0.8026,0.8643,0.9334,0.9957,1.0023,1.0391,1.1546,1.1966,1.2771,1.4313,1.5634,1.6877,1.7938,1.7818,1.7356,1.6503,1.5827,1.5287,1.488,1.5287,1.6518,1.8655,2.0449,2.2024,2.334,2.4485,2.5265,2.5615,2.5685,2.5685,2.5615,2.5685,2.5731,2.5581,2.3399,2.1689,2.0254,1.8915,1.7608,1.6249,0.0,0.0,0.0,0.0,0.0,0.0,0.0,0.0,0.0,0.0,0.0,0.0,0.0,0.0,0.0,0.0,0.0,0.0,0.0,0.0,0.0,0.0,0.0,0.0,0.0,0.0,0.0,0.0,0.0,0.0,0.0,0.0,0.0,0.0,0.0,2.3191,2.3631,2.6027,2.6901,2.5106,2.6542,2.75,2.729,2.8116,2.9011,2.9857,3.0365,3.0601,3.0495,3.0509,3.0309,2.9831,2.9176,2.8837,2.885,2.8621,2.841,2.8189,2.7927,2.7855,2.7822,2.759,2.749,2.749,2.749,2.7177,2.6717,2.6463,2.6367,2.6367,2.6367,2.6237,2.6117,0.8109,0.8112,0.8106,0.8102,0.8666,0.9324,0.9905,1.0014,1.0716,1.2542,1.2854,1.3635,1.5619,1.6967,1.7968,1.8672,1.8087,1.7699,1.7699,1.5889,1.4856,1.4916,1.6189,1.81,2.0718,2.2084,2.34,2.4664,2.5322,2.5674,2.5674,2.5674,2.5674,2.5674,2.5674,2.5674,2.5674,2.5674,2.4627,2.2899,2.1527,2.0164,1.8708,0.0,0.0,0.0,0.0,0.0,0.0,0.0,0.0,0.0,0.0,0.0,0.0,0.0,0.0,0.0,0.0,0.0,0.0,0.0,0.0,0.0,0.0,0.0,0.0,0.0,0.0,0.0,0.0,0.0,0.0,0.0,0.0,0.0,2.1814,2.4059,2.5704,2.5764,2.8068,2.9142,2.7854,2.8933,2.9924,3.0522,3.0582,3.0567,3.0598,3.1812,3.1925,3.0651,3.1824,3.2521,3.2521,3.1846,3.15,3.1496,3.0842,3.0182,2.9529,2.8894,2.86,2.8541,2.7848,2.7583,2.7556,2.7523,2.7954,2.8481,2.7789,2.7516,2.7549,2.7516,2.721,2.6795,0.8112,0.8089,0.8089,0.8106,0.9065,0.9895,1.0062,1.0504,1.1312,1.2758,1.2924,1.3798,1.6204,1.722,1.8177,1.9301,1.8373,1.7699,1.7699,1.6338,1.6144,1.7565,1.9839,2.1605,2.2772,2.4118,2.5226,2.6063,2.6722,2.7046,2.7046,2.7046,2.7046,2.7046,2.7046,2.7046,2.7046,2.715,2.6621,2.5523,2.3262,2.184,2.0842,0.0,0.0,0.0,0.0,0.0,0.0,0.0,0.0,0.0,0.0,0.0,0.0,0.0,0.0,0.0,0.0,0.0,0.0,0.0,0.0,0.0,0.0,0.0,0.0,0.0,0.0,0.0,0.0,0.0,0.0,0.0,2.3221,2.5076,2.4597,2.6393,2.8128,2.9056,3.0225,3.0823,3.0464,3.121,3.1779,3.1958,3.2407,3.2706,3.2674,3.3034,3.3063,3.2694,3.256,3.2521,3.2521,3.1846,3.15,3.1492,3.133,3.1148,3.0946,3.0751,3.0401,2.9923,2.9236,2.8959,2.8907,2.8449,2.8615,2.9097,2.796,2.806,2.8832,2.8328,2.8384,2.8663,0.8082,0.8096,0.8195,0.8481,0.9411,1.018,1.047,1.1095,1.1963,1.3201,1.3382,1.4197,1.6458,1.7102,1.7777,1.8762,1.8147,1.7579,1.7294,1.6832,1.7595,1.9869,2.1714,2.3242,2.4418,2.5465,2.6482,2.744,2.7854,2.8154,2.8453,2.8453,2.8453,2.8423,2.8154,2.8034,2.8004,2.781,2.75,2.7067,2.5319,2.4169,2.3302,2.1129,2.0188,1.9927,1.8815,1.7562,1.6428,1.644,0.0,0.0,0.0,0.0,0.0,0.0,0.0,0.0,0.0,0.0,0.0,0.0,0.0,0.0,0.0,0.0,0.0,0.0,0.0,0.0,0.0,0.0,0.0,0.0,2.6273,2.8098,2.7709,2.8667,2.9774,3.0821,3.1511,3.1929,3.1929,3.2527,3.2916,3.2916,3.3275,3.3484,3.3484,3.3754,3.3903,3.3903,3.3797,3.3753,3.3753,3.3365,3.3202,3.3202,3.3202,3.3202,3.3169,3.2877,3.2544,0.0,3.1165,3.062,3.0291,2.9596,2.9568,0.0,0.0,0.0,0.0,0.0,2.9882,3.0695,0.8109,0.8171,0.8418,0.8996,0.9727,1.0417,1.1003,1.1668,1.2532,1.3769,1.397,1.4701,1.6518,1.6834,1.712,1.7639,1.7699,1.7473,1.6965,1.7682,1.9253,2.1695,2.2673,2.3961,2.5674,2.6422,2.741,2.8607,2.8667,2.8996,2.9621,2.9621,2.9621,2.9592,2.8966,2.8697,2.8667,2.8094,2.787,2.7876,2.74,2.6704,2.5689,2.3354,2.2677,2.2768,2.1283,1.9817,1.8571,1.8605,0.0,0.0,0.0,0.0,0.0,0.0,0.0,0.0,0.0,0.0,0.0,0.0,0.0,0.0,0.0,0.0,0.0,0.0,0.0,0.0,0.0,0.0,0.0,0.0,2.9086,3.0821,3.0731,3.0791,3.1031,3.154,3.2138,3.2527,3.2617,3.3215,3.3604,3.3604,3.3664,3.3754,3.3814,0.0,0.0,0.0,0.0,3.5609,3.5609,3.5609,3.5579,3.5519,3.5579,3.5609,3.5576,3.5078,3.4781,3.466,3.3378,3.2511,3.1886,3.1253,3.0917,3.0743,3.0017,2.9679,2.9701,3.0407,3.1454,0.0,0.8116,0.8586,0.9019,0.9088,1.0088,1.094,1.1093,1.1718,1.2619,1.3916,1.4069,1.4793,1.6668,1.6879,1.712,1.7639,1.7699,1.7878,1.8296,1.9959,2.1395,2.2463,2.465,2.6004,2.6393,2.759,2.8338,2.8607,2.9116,2.9472,2.9621,2.9621,2.9621,2.9592,2.9472,2.9412,2.9412,2.9372,2.906,2.86,2.8505,2.7769,2.6654,2.5734,2.4802,2.3895,2.356,2.2608,2.148,2.1375,2.0819,2.0024,1.9314,1.8278,0.0,0.0,0.0,0.0,0.0,0.0,0.0,0.0,0.0,0.0,0.0,0.0,0.0,0.0,0.0,0.0,0.0,0.0,0.0,2.8128,3.0851,3.2736,3.2198,3.2587,3.2766,3.2377,3.2407,3.2706,3.3245,3.3903,3.4324,3.4324,3.4801,3.534,3.5878,3.5519,0.0,3.6806,3.6477,3.6297,3.6297,3.6297,3.6028,3.5519,0.0,0.0,3.6297,3.6671,3.6577,3.6067,3.5249,3.4839,3.465,3.401,3.3413,3.2792,3.1527,3.0706,3.0367,3.1461,3.2094,3.251,0.9149,0.9204,0.9397,1.0046,1.069,1.1226,1.1605,1.1953,1.2548,1.3463,1.3915,1.4613,1.5835,1.6273,1.6592,1.6788,1.7056,1.7891,1.9582,2.0946,2.2413,2.4059,2.5704,2.6901,2.759,2.8248,2.8906,2.9564,2.9894,3.0223,3.0552,3.0552,3.0552,3.0552,3.0193,3.0043,3.0013,2.9796,2.9576,2.9267,2.8962,2.8495,2.7923,2.6968,2.6169,2.5521,2.4915,2.4049,2.3081,2.2714,2.2125,2.1447,2.0777,1.9845,1.8719,0.0,0.0,0.0,0.0,0.0,0.0,0.0,0.0,0.0,0.0,0.0,0.0,0.0,0.0,2.5505,2.6525,0.0,3.0255,3.0941,3.2706,3.3754,3.3095,3.3574,3.3754,3.3095,3.3305,3.3754,3.4442,3.4801,3.525,3.5878,3.5968,3.6267,3.6926,3.6626,3.6746,3.7375,3.7105,3.6956,3.6956,3.6956,3.6956,3.6956,3.6956,3.7315,3.7943,3.7913,3.7913,3.7908,3.7243,3.6773,3.6384,3.54,3.478,3.441,3.3351,3.233,3.1524,3.213,3.2818,3.352,1.0345,1.0045,0.9965,1.1033,1.1264,1.1461,1.1923,1.2107,1.2374,1.2873,1.3552,1.4222,1.4767,1.5367,1.578,1.5913,1.6533,1.8014,2.0546,2.1575,2.3131,2.5495,2.6363,2.735,2.8577,2.8727,2.9355,3.0492,3.0642,3.0972,3.1511,3.1511,3.1511,3.1481,3.0941,3.0702,3.0728,3.0218,2.997,2.9776,2.926,2.8919,2.8688,2.7473,2.6951,2.6724,2.5718,2.4741,2.3793,2.3427,2.2807,2.2139,2.1618,2.1063,2.0188,1.8232,1.767,0.0,0.0,0.0,0.0,0.0,0.0,0.0,0.0,2.3833,2.4297,2.5558,2.695,2.8338,2.9714,3.115,3.2378,3.3335,3.4173,3.4474,3.3784,3.4262,3.4472,3.3933,3.4233,3.4741,3.5429,3.5609,3.6118,3.7165,3.6866,3.6926,3.7554,3.7494,3.7524,3.7793,3.7674,3.7584,3.7584,3.7584,3.7793,3.8182,3.7793,3.8182,3.92,3.8781,3.8901,3.9379,3.8841,3.8302,3.7704,3.6537,3.5998,3.5818,3.5162,3.4053,3.2886,3.2886,3.3484,3.4324,1.1043,1.1206,1.1142,1.1197,1.1705,1.1891,1.1328,1.1789,1.2231,1.2282,1.2897,1.3552,1.4124,1.4276,1.4758,1.5879,1.7015,1.8564,2.067,2.2424,2.4059,2.5555,2.6836,2.7854,2.8577,2.9175,2.9804,3.0492,3.1092,3.1421,3.1511,3.1511,3.1511,3.1511,3.1421,3.1477,3.165,3.156,3.092,2.9966,2.9906,2.9147,2.805,2.7285,2.6717,2.626,2.616,2.4918,2.3446,2.3917,2.36,2.2949,2.2828,2.2727,2.2271,2.0248,1.971,1.9718,1.9596,2.0569,2.1926,2.31,2.3038,2.3898,0.0,2.8723,2.8308,2.9594,3.139,3.2437,3.1451,3.2856,3.4024,3.3574,3.4562,3.516,3.4503,3.4951,3.537,3.528,3.4801,3.4741,3.5429,3.6028,3.6447,3.6567,3.7045,3.7584,3.8242,3.7734,3.7943,3.9134,3.8601,3.8272,3.8272,3.8272,3.8033,3.7524,3.8033,3.8362,3.8512,3.905,3.9313,3.9373,3.9313,3.926,3.914,3.8392,3.7734,3.7135,3.6507,3.5462,3.4294,3.4294,3.3993,3.3694,1.1778,1.2053,1.2014,1.1905,1.2116,1.2013,1.1283,1.1737,1.2035,1.1605,1.2528,1.3298,1.354,1.424,1.4905,1.5428,1.6985,1.8604,2.0237,2.2526,2.4384,2.5648,2.6994,2.7991,2.8577,2.9235,2.9948,3.0661,3.1239,3.1568,3.1655,3.1539,3.1511,3.1511,3.1626,3.1742,3.1828,3.1855,3.1394,3.0539,3.0175,2.9446,2.845,2.7309,2.6343,2.5474,2.4998,2.432,0.0,2.3112,2.2646,2.2304,2.2384,2.1819,2.0975,2.023,2.0302,2.1106,2.3011,2.4186,2.5182,2.635,2.7245,2.8359,3.0186,3.043,3.0434,3.0972,3.2377,3.3335,3.2766,3.3993,3.51,0.0,3.5699,3.5968,3.5701,3.5579,3.537,3.4951,3.4683,3.4923,3.5968,3.6327,3.6806,3.7524,3.7823,3.8272,3.896,3.8721,3.8805,3.9409,3.914,3.899,3.899,3.899,3.8841,3.8571,3.8452,3.8601,3.899,3.8871,3.905,3.9373,3.9373,3.9373,3.9409,3.911,3.8841,3.8512,3.7853,3.7255,3.66,3.5073,3.4324,3.4113,1.2252,1.2505,1.2495,1.2455,1.2383,1.2021,1.11,1.1652,1.187,1.0977,1.2046,1.2939,1.2939,1.4093,1.4852,1.4852,1.6648,1.8322,1.9658,2.2059,2.4,2.5251,2.6784,2.7851,2.8359,2.9045,2.9732,3.0476,3.0818,3.1057,3.1257,3.1086,3.1057,3.1086,3.1227,3.1311,3.1367,3.1478,3.1138,3.0525,3.0038,2.9281,2.8343,2.6909,2.5591,2.4454,2.3797,2.3303,2.2838,2.1862,2.1292,2.1107,2.1421,2.0867,2.0207,2.0491,2.1306,2.2635,2.4863,2.6425,2.7624,2.8467,3.0101,3.142,3.0996,3.1359,3.172,3.154,3.2706,3.3724,3.3514,3.4442,3.5489,3.6357,3.6327,3.6327,3.6686,3.6028,3.54,3.5102,3.4743,3.5043,3.6357,3.6477,3.7015,3.8302,3.8392,3.8691,3.9343,3.9373,3.9373,3.9373,3.9373,3.9373,3.9373,3.9373,3.9373,3.9373,3.8901,3.8931,3.9373,3.8901,3.896,3.9373,3.9373,3.9373,3.9373,3.9373,3.9373,3.9343,3.8871,3.8571,3.8153,3.6301,3.5252,3.4803,1.2347,1.2505,1.2505,1.2505,1.2505,1.2002,1.0556,1.1402,1.1735,1.039,1.1397,1.2231,1.2231,1.3432,1.4221,1.4221,1.603,1.7685,1.9026,2.0983,2.2677,2.4,2.5963,2.7279,2.7821,2.8484,2.9094,2.9651,2.9651,2.9735,2.9843,2.9843,2.9924,3.0027,3.0054,3.0133,3.0265,3.0234,2.9945,2.9464,2.9433,2.8554,2.7109,2.574,2.4374,2.3122,2.297,2.1843,2.0395,2.0364,1.9902,1.9485,2.0076,2.0653,2.1198,2.1782,2.3325,2.4763,2.4204,2.6347,2.8725,2.8629,3.0046,3.1511,3.1481,3.1989,3.2288,3.163,3.3095,3.4294,3.3604,3.4053,3.4983,3.6267,3.5938,3.5968,3.7195,3.6297,3.5729,3.6357,3.5312,3.5043,0.0,3.6477,3.7015,3.8302,3.8392,3.8691,3.9343,3.9373,3.9373,3.9373,3.9373,3.9373,3.9373,3.9373,3.9373,3.9373,3.9409,3.9409,3.9373,3.9409,3.9409,3.9373,3.9373,3.9373,3.9373,3.9373,3.9373,3.9373,3.9409,3.899,3.8392,3.8302,3.7075,3.5459,1.2347,1.2505,1.2347,1.1873,1.1778,1.1305,0.9899,1.1155,1.194,1.1057,1.2096,0.0,0.0,0.0,0.0,0.0,1.6272,1.7547,1.8435,2.0413,2.1907,2.2706,2.4676,2.6001,2.6583,2.7703,2.8606,2.9325,2.9595,2.9863,3.0046,2.989,2.9863,2.9993,3.0099,3.0177,3.023,3.0282,2.9961,2.9341,2.8935,2.8172,2.7172,2.5724,2.4101,2.2455,0.0,2.0373,1.9432,1.8972,1.8664,1.8555,1.9259,1.929,1.9579,2.2014,2.376,2.5273,2.6777,2.8268,2.9579,3.034,3.1331,3.2138,3.2138,3.2318,3.2288,3.163,3.2378,3.3095,3.2886,3.3754,3.4953,3.6267,3.6656,3.7075,3.7943,3.7315,3.6537,3.5908,3.5818,0.0,0.0,0.0,0.0,3.8332,3.8811,3.917,3.9373,3.9373,3.9373,3.9373,3.9373,3.9373,3.9373,3.9373,3.9373,3.9373,3.9373,3.9373,3.9373,3.9373,3.9373,3.9373,3.9373,3.9373,3.9373,3.9373,3.9373,3.9373,3.9373,3.9254,3.908,3.908,3.8362,3.7285,0.0,1.2505,1.2347,1.1873,1.1778,0.0,0.0,0.0,0.0,0.0,0.0,0.0,0.0,0.0,0.0,0.0,0.0,1.7116,1.7792,1.9314,2.0466,2.1051,2.2784,2.3885,2.4246,2.534,2.6336,2.732,2.7582,2.8061,2.8767,2.8591,2.8596,2.8717,2.8792,2.8842,2.8842,2.8916,2.8695,2.8233,2.7557,2.6749,2.5795,2.4347,2.2567,0.0,1.9493,1.8619,1.8007,1.7578,1.7532,1.7837,1.851,1.9409,2.0655,2.3072,2.478,2.6475,2.8815,2.9907,3.0638,3.1898,3.2557,3.2856,3.2856,3.2497,3.2019,3.16,3.1839,3.2049,3.1839,3.2497,3.3724,3.5789,3.6267,3.6926,3.8542,3.7973,3.7195,3.6596,3.6507,3.6507,0.0,0.0,0.0,3.8362,3.8811,3.917,3.9373,3.9373,3.9373,3.9373,3.9373,3.9373,3.9373,3.9373,3.9373,3.9373,3.9373,3.9373,3.9373,3.9373,3.9373,3.9373,3.9373,3.9373,3.9373,3.9373,3.9373,3.9373,3.9373,3.9373,3.9373,3.9373,3.899,3.8242,0.0,0.0,1.2512,0.0,0.0,0.0,0.0,0.0,0.0,0.0,0.0,0.0,0.0,0.0,0.0,0.0,0.0,0.0,1.7116,1.7792,1.8453,1.9164,2.0474,2.1154,2.1057,2.1728,2.2645,2.3819,2.3858,2.4611,2.6038,2.6069,2.6144,2.6287,2.6287,2.6287,2.6287,2.6204,2.6173,2.6081,2.5404,2.4379,2.3055,2.175,1.9977,1.813,1.7485,1.6809,1.6256,1.63,1.684,1.7623,1.8189,2.1032,2.4255,2.4857,2.6421,2.8363,3.0238,3.1147,3.1899,3.3155,3.3455,3.3484,3.3395,3.2407,3.1481,3.1421,3.1391,3.1122,3.0432,3.0402,3.1569,3.4831,3.4921,3.5729,3.896,3.8302,3.7734,0.0,0.0,0.0,0.0,0.0,0.0,3.8482,0.0,3.8751,3.9439,3.9433,3.9433,3.9433,3.9433,3.9403,3.9373,3.9373,3.9373,3.9373,3.9373,3.9373,3.9373,3.9373,3.9373,3.9373,3.9373,3.9373,3.9373,3.9373,3.9373,3.9373,3.9373,3.9373,3.9373,3.9373,3.902,3.8362,0.0,0.0,0.0,0.0,0.0,0.0,0.0,0.0,0.0,0.0,0.0,0.0,0.0,0.0,0.0,0.0,0.0,0.0,1.6507,1.7129,1.7546,1.779,1.9102,2.0025,2.0496,2.1172,2.1891,2.2712,2.3112,2.3549,2.4061,2.4468,2.4704,2.4841,2.4841,2.4841,2.4841,2.4841,2.4512,2.401,2.3332,2.2563,2.172,2.0857,1.9577,1.8192,1.8007,1.7516,1.7024,1.7516,1.9415,2.1698,2.2241,2.4079,2.6133,2.6802,2.8321,3.0038,3.1029,3.2108,3.2946,3.2796,3.3125,3.3245,3.2228,3.175,3.1241,3.0283,2.9684,2.8996,2.7799,2.9175,3.112,3.2976,3.4801,0.0,3.908,3.914,0.0,3.8422,0.0,3.8601,3.8422,3.8841,0.0,0.0,3.9439,3.9439,4.0127,4.0157,4.0157,4.0157,4.0157,3.9918,3.9373,3.9373,3.9373,3.9373,3.9373,3.9373,3.9373,3.9373,3.9373,3.9373,3.9373,3.9373,3.9373,3.9373,3.9373,3.9373,3.9373,3.9373,3.9373,3.9373,3.932,3.905,0.0,0.0,0.0,0.0,0.0,0.0,0.0,0.0,0.0,0.0,0.0,0.0,0.0,0.0,0.0,0.0,0.0,0.0,0.0,1.6659,1.6861,1.6859,1.7573,1.8146,1.8469,1.9146,1.9823,2.0483,2.1136,2.1627,2.1997,2.229,2.2474,2.2532,2.2532,2.2532,2.2532,2.2532,2.2336,0.0,0.0,2.058,1.9885,1.9177,1.8284,1.7331,1.7331,1.8053,1.9175,2.0312,2.1953,2.3732,2.4805,2.6464,2.8162,2.8745,3.0101,3.1599,3.2557,3.3365,3.3844,3.3455,3.3425,3.3155,3.1809,3.1062,3.0223,2.8607,2.7739,2.6871,2.5525,2.72,2.9325,3.0971,3.3694,0.0,3.8272,3.905,3.9379,0.0,3.9619,0.0,3.9709,4.0068,4.0427,0.0,4.0217,4.0127,4.0786,4.0816,4.0816,4.0816,4.0816,4.0516,3.9858,3.9559,3.9373,3.9373,3.9373,3.9373,3.9373,3.9373,3.9373,3.9373,0.0,3.9373,3.9373,3.9373,3.9373,3.9373,3.9373,3.9373,3.9373,3.9373,3.9373,3.9379,0.0,0.0,0.0,0.0,0.0,0.0,0.0,0.0,0.0,1.3437,1.4536,1.5297,1.4971,1.6132,0.0,0.0,0.0,0.0,0.0,0.0,1.6423,1.6396,1.6328,1.6274,1.6222,1.6778,1.7362,1.793,1.8654,1.9333,1.9902,1.9963,2.0025,2.0025,2.0025,2.0025,2.0025,2.0025,1.9963,1.984,1.9271,1.8592,1.7884,0.0,1.6717,1.6225,1.6409,1.8361,2.1252,2.3447,2.4429,2.505,2.6675,2.8553,3.018,3.064,3.1719,3.3036,3.4173,3.4563,3.4593,3.4414,3.3993,3.3215,3.16,3.0313,2.8873,2.6776,2.5758,2.4829,2.3482,2.4926,2.6991,2.9022,3.2107,3.4951,3.7105,3.8482,3.9559,4.0307,4.0397,4.0696,4.1482,4.1482,4.1444,4.1624,4.1025,4.0905,4.1512,4.1504,4.1504,4.1504,4.1354,4.0965,4.0397,3.9738,3.9373,3.9373,3.9373,3.9373,3.9373,3.9373,3.9373,3.9373,0.0,0.0,3.9373,3.9373,3.9373,3.9373,3.9373,3.9373,3.9373,3.9373,3.9373,3.9373,0.0,0.0,0.0,0.0,0.0,0.0,0.0,0.0,1.5132,1.5983,1.6298,1.6361,1.6122,1.6825,0.0,0.0,0.0,0.0,0.0,0.0,0.0,1.6799,1.6472,1.6301,1.6287,1.6328,1.6409,1.6532,1.7223,1.7623,1.7746,1.8284,1.856,1.856,1.856,1.856,1.856,1.856,1.8222,1.7746,1.7623,1.7161,1.6532,1.6423,0.0,0.0,1.7454,1.8222,1.9466,2.4118,2.6886,2.8478,2.9519,3.0934,3.2163,3.2167,3.3095,3.4204,3.4444,3.4891,3.507,3.3933,3.3993,3.3575,3.0582,2.9349,2.8136,2.5611,2.413,2.2866,2.1523,2.3293,2.5615,2.7615,3.0702,3.3903,3.6985,3.8093,3.902,0.0,4.0397,4.0876,4.2111,4.1752,0.0,0.0,0.0,0.0,4.2231,4.2231,4.2231,4.2231,4.1145,4.0516,4.0397,3.9738,3.9373,3.9373,3.9373,3.9373,3.9373,3.9373,3.9373,3.9373,0.0,0.0,3.9373,3.9373,3.9373,3.9373,3.9373,3.9373,3.9373,3.9373,3.9373,3.9373,0.0,0.0,0.0,0.0,0.0,0.0,0.0,1.4941,1.6027,1.7448,1.7938,1.7902,1.721,1.7423,1.7496,0.0,0.0,0.0,0.0,0.0,0.0,1.7113,1.6926,1.6735,1.6538,1.6835,1.6725,1.6232,0.0,1.7068,1.6686,1.7037,1.7191,1.7147,1.7147,1.7147,1.7147,1.7147,1.6962,1.6686,1.6686,1.6471,1.6194,1.6194,0.0,0.0,1.736,1.8455,1.9915,2.26,2.564,2.8608,3.0561,3.195,3.2792,3.2556,3.3516,3.4566,3.4503,3.5015,3.5349,3.4358,3.3878,3.2765,2.9509,2.8192,2.6699,2.3492,2.2495,2.1834,2.0519,2.2364,2.4485,2.5824,2.8816,3.2138,3.5429,3.6477,3.7883,4.0606,4.0905,4.1414,0.0,4.2581,0.0,0.0,0.0,0.0,4.288,4.288,4.288,4.288,4.1923,4.1265,4.0905,4.0247,3.9768,3.9373,3.9373,3.9373,3.9373,3.9373,3.9373,3.9373,3.9373,0.0,3.9373,3.9373,3.9373,3.9373,3.9373,3.9373,3.9373,3.9373,3.9373,3.9373,0.0,0.0,0.0,0.0,0.0,0.0,1.3998,1.5242,1.6797,1.8637,1.9105,1.9022,1.845,1.8234,1.7986,0.0,0.0,0.0,0.0,0.0,0.0,0.0,1.7344,1.7175,1.6901,0.0,0.0,0.0,1.7023,0.0,0.0,0.0,0.0,0.0,1.6396,1.6382,1.6382,1.6369,1.6355,0.0,0.0,1.6408,1.6507,0.0,0.0,0.0,0.0,1.87,2.0272,2.1144,2.3548,2.668,2.9633,3.1578,3.2697,3.2255,3.3336,3.466,3.4535,3.5142,3.5601,3.4905,3.3728,3.1977,2.8728,2.7182,2.5401,2.1777,2.1307,2.1212,2.0074,2.1564,2.3302,2.4216,2.7081,3.037,3.3815,3.51,3.7135,4.0973,4.1422,0.0,4.317,0.0,0.0,0.0,0.0,0.0,4.329,4.329,4.329,4.329,4.2701,4.2141,4.1632,4.0816,4.0157,3.9619,3.9499,3.9373,3.9373,3.9373,3.9373,3.9373,3.9373,0.0,0.0,3.9373,3.9373,3.9373,3.9373,3.9373,3.9373,3.9373,3.9373,3.9373,0.0,0.0,0.0,0.0,0.0,0.0,1.4676,1.5615,1.7211,2.0112,1.9321,1.8965,2.0223,1.9681,1.8834,0.0,0.0,0.0,0.0,0.0,0.0,0.0,0.0,0.0,0.0,0.0,0.0,0.0,0.0,0.0,0.0,0.0,0.0,0.0,0.0,0.0,1.7014,1.6939,0.0,0.0,0.0,0.0,0.0,0.0,0.0,0.0,0.0,1.8663,1.8764,2.1596,2.2415,2.2748,2.5693,2.9134,3.1938,3.1106,3.2704,3.4662,3.4535,3.5205,3.5759,3.4905,3.3728,3.1977,2.8728,2.694,2.5031,2.177,2.1118,2.0898,2.0127,2.0563,2.1624,2.34,2.5997,2.9142,3.3036,3.522,3.7644,4.0995,0.0,0.0,4.317,0.0,0.0,0.0,0.0,0.0,0.0,4.329,4.329,4.329,4.2701,4.2381,4.2321,4.1025,4.0367,4.0307,3.9709,3.9373,3.9373,3.9373,3.9373,3.9373,0.0,0.0,0.0,3.9373,3.9373,3.9373,3.9373,3.9373,3.9373,3.9373,3.9373,3.9373,0.0,0.0,0.0,0.0,0.0,0.0,1.4754,1.5694,1.7124,1.977,1.9559,1.9398,1.995,1.9708,1.9135,1.8181,0.0,0.0,0.0,0.0,0.0,0.0,0.0,0.0,0.0,0.0,1.7647,1.791,0.0,0.0,0.0,0.0,0.0,0.0,0.0,0.0,0.0,1.7113,0.0,0.0,0.0,0.0,0.0,0.0,0.0,0.0,0.0,0.0,1.9053,1.9719,2.0448,2.1167,2.1649,2.4471,2.781,2.9104,3.125,3.3242,3.3397,3.4455,3.5369,3.4577,3.3117,3.1107,2.8278,2.6627,2.4706,2.1326,2.098,2.109,2.022,2.0467,2.134,2.2979,2.4048,2.6201,3.0576,3.1867,3.4174,3.899,3.9948,0.0,0.0,0.0,0.0,0.0,0.0,0.0,0.0,4.329,4.329,4.329,4.309,4.2761,4.241,4.1871,4.1175,4.0397,4.0127,3.9798,3.9373,3.9373,3.9373,3.9373,0.0,0.0,0.0,3.9373,3.9373,3.9373,3.9373,3.9373,3.9373,3.9373,3.9373,3.9373,0.0,0.0,0.0,0.0,0.0,1.3166,1.4465,1.5553,1.6958,1.9064,1.9355,1.9405,1.963,1.9398,1.8997,1.8391,1.8274,0.0,0.0,0.0,0.0,0.0,0.0,0.0,0.0,0.0,1.8132,1.8684,1.8684,1.8759,0.0,0.0,0.0,0.0,0.0,0.0,0.0,0.0,0.0,0.0,0.0,0.0,0.0,0.0,0.0,0.0,0.0,0.0,0.0,0.0,0.0,1.9889,1.9225,2.0957,2.3862,2.6855,2.9663,3.1879,3.2366,3.3695,3.485,3.4331,3.2793,3.0711,2.8123,2.662,2.4726,2.1192,2.1072,2.1286,2.029,2.0357,2.1073,2.2464,2.309,2.4852,2.9094,3.0333,3.2646,0.0,0.0,0.0,0.0,0.0,0.0,0.0,0.0,0.0,0.0,4.329,4.329,4.329,4.329,4.312,4.2641,4.25,4.1841,4.0696,4.0487,4.0068,3.9373,3.9373,3.9373,3.9373,0.0,0.0,0.0,3.9373,3.9373,3.9373,3.9373,3.9373,3.9373,3.9373,3.9373,3.9373,0.0,0.0,0.0,0.0,0.0,1.2983,1.3791,1.5202,1.6747,1.8302,1.8512,1.8828,1.9591,1.8943,1.8413,1.8413,1.8322,0.0,0.0,0.0,0.0,0.0,0.0,0.0,0.0,0.0,1.8534,1.9292,1.9292,1.9671,2.0348,1.9636,0.0,0.0,0.0,0.0,0.0,0.0,0.0,0.0,0.0,0.0,1.8942,0.0,0.0,0.0,0.0,0.0,0.0,0.0,0.0,0.0,0.0,1.9544,2.0863,2.4458,2.7992,3.0897,3.1771,3.3228,3.4446,3.4268,3.3042,3.1193,2.8512,2.7063,2.5246,2.154,2.1315,2.1461,2.0325,2.0098,2.0538,2.1785,2.37,2.6091,2.9271,3.1983,3.4568,0.0,0.0,0.0,0.0,0.0,0.0,0.0,0.0,0.0,0.0,4.329,4.329,4.329,4.329,4.329,4.329,4.2671,4.2081,4.1354,4.0696,4.0068,3.9373,3.9373,3.9373,0.0,0.0,0.0,0.0,3.9373,3.9373,3.9373,3.9373,3.9373,3.9373,3.9373,3.9373,3.9373,0.0,0.0,0.0,0.0,0.0,0.0,1.436,1.5062,1.594,1.7475,1.7686,1.8001,1.8793,1.8633,1.8463,1.8413,1.8322,0.0,0.0,0.0,0.0,0.0,0.0,0.0,0.0,1.8683,1.9292,2.005,2.0613,2.0992,2.1199,2.0441,1.9774,1.9269,0.0,0.0,0.0,0.0,0.0,0.0,1.8606,1.8875,1.8966,0.0,0.0,0.0,0.0,0.0,0.0,0.0,0.0,0.0,0.0,0.0,0.0,2.1488,2.4742,2.7822,2.8466,2.9847,3.0844,2.9824,2.9206,2.8305,2.5987,2.5398,2.4546,2.1714,2.1502,2.1568,2.0743,2.0697,2.1544,2.3897,2.4418,2.5924,3.0031,3.1531,0.0,0.0,0.0,0.0,0.0,0.0,0.0,0.0,0.0,0.0,0.0,4.329,4.329,4.329,4.329,4.329,4.329,4.312,4.2462,4.1422,4.1175,4.0487,3.9373,3.9373,0.0,0.0,0.0,0.0,0.0,3.9373,3.9696,4.0126,3.9589,3.9732,4.0091,3.9589,3.9373,3.9373,0.0,0.0,0.0,0.0,0.0,0.0,1.4324,1.4816,1.5343,1.6317,1.694,1.7501,1.8001,1.8327,1.8493,1.8453,1.8373,0.0,0.0,0.0,0.0,0.0,0.0,0.0,1.8242,1.8659,1.9545,2.0842,2.1337,2.1888,2.2406,2.1647,2.0704,1.9671,1.8959,1.8431,0.0,0.0,0.0,0.0,1.8495,1.862,1.8596,0.0,0.0,0.0,0.0,0.0,0.0,0.0,0.0,0.0,0.0,0.0,0.0,0.0,2.1797,2.4262,2.5931,2.7508,2.8511,2.7624,2.7372,2.6821,2.4908,2.4608,2.4149,2.1948,2.1645,2.1648,2.1071,2.1103,2.192,2.4198,2.4532,2.5889,2.99,3.1463,0.0,0.0,0.0,0.0,0.0,0.0,0.0,0.0,0.0,0.0,0.0,0.0,4.4236,4.4236,4.3645,4.329,4.329,4.329,4.2791,4.1782,4.1542,4.0816,3.9768,3.9529,0.0,0.0,0.0,0.0,0.0,4.0165,4.0478,4.0823,4.0374,4.0478,4.082,4.0374,4.0165,4.0165,0.0,0.0,0.0,0.0,0.0,0.0,0.0,1.4465,1.4929,1.5,1.6317,1.7246,1.7281,1.8011,1.8512,1.8512,1.8453,0.0,0.0,0.0,0.0,0.0,0.0,0.0,1.8305,1.8346,1.9418,2.1509,2.1694,2.2474,2.3784,2.3095,2.1957,2.0463,1.9717,1.8924,0.0,0.0,0.0,0.0,1.8102,1.8059,0.0,0.0,0.0,0.0,0.0,0.0,0.0,0.0,0.0,0.0,0.0,0.0,0.0,0.0,0.0,0.0,0.0,2.5837,2.6969,2.7001,2.6854,2.6323,2.5003,2.4579,0.0,2.22,2.1842,2.1786,2.1596,2.15,2.2004,2.3658,2.4627,2.6281,2.9496,3.2096,0.0,0.0,0.0,0.0,0.0,0.0,0.0,0.0,0.0,0.0,0.0,0.0,4.5697,4.5697,4.4243,4.3488,4.3488,4.3488,4.3157,4.2573,4.1836,4.1138,4.0551,3.9817,0.0,0.0,0.0,0.0,0.0,4.1492,4.1525,4.1558,4.1525,4.1525,4.1558,4.1525,4.1492,4.1492,0.0,0.0,0.0,0.0,0.0,0.0,0.0,0.0,0.0,0.0,1.5834,1.6668,1.7255,1.8011,1.8512,0.0,0.0,0.0,0.0,0.0,0.0,0.0,0.0,0.0,1.8305,1.9392,2.0212,2.067,2.244,2.3474,2.3819,2.3612,2.275,2.1268,2.0498,1.9407,0.0,0.0,0.0,0.0,1.8102,1.8059,0.0,0.0,0.0,0.0,1.8031,1.7997,0.0,0.0,0.0,0.0,0.0,0.0,0.0,0.0,1.8572,1.9335,2.0171,0.0,2.2812,2.3363,2.3456,2.3466,0.0,2.3707,2.3395,2.2396,2.218,2.2597,2.3967,2.3481,2.4265,2.8461,2.9025,3.001,3.3058,0.0,0.0,0.0,0.0,0.0,0.0,0.0,0.0,0.0,0.0,0.0,0.0,0.0,4.5697,4.5697,4.5332,4.5147,4.5147,4.5147,4.4804,4.4153,4.2859,4.2181,4.2028,4.082,0.0,0.0,0.0,0.0,4.1492,4.1492,4.1819,4.2301,4.1722,4.1852,4.2269,4.1722,4.1492,4.1492,0.0,0.0,0.0,0.0,0.0,0.0,0.0,0.0,0.0,0.0,1.5483,1.6361,1.6738,1.7835,1.8512,0.0,0.0,0.0,0.0,0.0,0.0,0.0,1.8378,1.8328,1.8311,1.9381,2.0442,2.1475,2.3026,2.4163,2.4853,2.4853,2.3853,2.2026,2.0579,1.9269,0.0,0.0,0.0,1.8134,1.8134,0.0,0.0,0.0,0.0,0.0,1.7861,1.7839,0.0,1.9024,1.9101,1.8865,0.0,0.0,0.0,0.0,1.8099,1.8403,1.8403,2.0264,2.2307,2.2699,2.3071,2.341,2.3816,2.3376,2.2767,2.2381,2.2313,2.2811,2.4524,2.4586,2.5765,2.9868,3.0405,3.1636,0.0,0.0,0.0,0.0,0.0,0.0,0.0,0.0,0.0,0.0,0.0,0.0,0.0,0.0,4.6756,4.6756,4.6756,4.641,4.5697,4.5697,4.5507,4.5128,4.4011,4.3514,4.3519,4.2134,0.0,0.0,0.0,0.0,4.2459,4.2459,4.271,4.3021,4.2617,4.271,4.3021,4.2617,4.2459,4.2459,0.0,0.0,0.0,0.0,0.0,0.0,0.0,0.0,0.0,0.0,0.0,0.0,0.0,0.0,0.0,0.0,0.0,0.0,0.0,0.0,0.0,1.8565,1.8418,1.8442,1.8672,1.923,2.0568,2.2716,2.3749,2.489,2.6109,2.6411,2.5152,2.2612,2.0441,1.8993,1.82,1.82,1.82,1.82,1.82,0.0,0.0,0.0,0.0,0.0,0.0,0.0,0.0,2.0073,2.0365,2.0069,2.0547,0.0,0.0,0.0,0.0,0.0,1.8222,2.0974,2.3646,2.3308,2.3864,2.4541,2.4643,2.3613,2.2632,2.2632,2.2632,2.3207,2.5015,2.5676,2.7046,3.0581,3.1515,0.0,0.0,0.0,0.0,0.0,0.0,0.0,0.0,0.0,0.0,0.0,0.0,0.0,0.0,0.0,0.0,4.8033,4.8001,4.7371,4.6056,4.6056,4.6056,4.6056,4.525,4.4935,4.4973,4.3472,4.3167,0.0,0.0,0.0,4.3598,4.3598,4.3598,4.3598,4.3598,4.3598,4.3598,4.3598,4.3598,4.3598,0.0,0.0,0.0,0.0,0.0,0.0,0.0,0.0,0.0,0.0,0.0,0.0,0.0,0.0,0.0,0.0,0.0,0.0,0.0,0.0,0.0,1.8921,1.8593,1.9059,2.0474,2.0428,2.1182,2.2716,2.5084,2.6212,2.6143,2.7727,2.642,2.2612,2.0958,1.9464,1.82,1.82,1.82,1.82,1.82,0.0,0.0,0.0,0.0,0.0,0.0,0.0,0.0,1.8448,1.9068,1.9799,1.8662,0.0,0.0,0.0,0.0,0.0,2.0128,2.2902,2.4831,2.2936,2.3477,2.4643,2.5304,2.4763,2.4169,2.4169,2.4169,2.5218,2.8619,2.8263,2.9277,3.4866,0.0,0.0,0.0,0.0,0.0,0.0,0.0,0.0,0.0,0.0,0.0,0.0,0.0,0.0,0.0,0.0,0.0,4.8163,4.8066,4.7902,4.7638,4.7638,4.7638,4.7638,4.6284,4.5992,4.6486,4.4464,4.3909,0.0,0.0,4.3509,4.3598,4.3598,4.3598,4.3598,4.3598,4.3598,4.3598,4.3598,4.3598,4.3598,0.0,0.0,0.0,0.0,0.0,0.0,0.0,0.0,0.0,0.0,0.0,0.0,0.0,0.0,0.0,0.0,0.0,0.0,0.0,1.8797,1.912,1.9774,1.9534,1.9854,2.0934,2.1402,2.2717,2.4931,2.6677,2.7662,2.783,2.7267,2.5485,2.2612,2.1083,1.9579,1.82,1.82,1.82,1.82,0.0,0.0,0.0,0.0,0.0,0.0,0.0,0.0,0.0,0.0,2.0132,2.0467,1.9338,0.0,0.0,0.0,0.0,0.0,1.908,2.182,2.4255,2.3646,2.5812,2.8078,2.8044,2.7469,2.6911,2.6911,2.6911,2.769,3.0243,3.0784,3.2408,3.7212,0.0,0.0,0.0,0.0,0.0,0.0,0.0,0.0,0.0,0.0,0.0,0.0,0.0,0.0,0.0,0.0,0.0,0.0,4.8292,4.826,4.826,4.826,4.8196,4.8001,4.7309,4.7177,4.7438,4.5693,4.5096,4.5372,0.0,4.3835,4.3747,4.3747,4.3747,4.3747,4.3628,4.3658,4.3747,4.3628,4.3598,4.3598,0.0,0.0,0.0,0.0,0.0,0.0,0.0,0.0,0.0,0.0,0.0,0.0,0.0,0.0,0.0,0.0,0.0,0.0,0.0,1.8905,1.934,2.0244,2.0335,2.0871,2.1949,2.2699,2.443,2.7143,2.821,2.8824,2.9005,2.699,2.4782,2.2449,2.1285,1.9842,1.8284,1.8284,1.8284,1.8284,0.0,0.0,0.0,0.0,0.0,0.0,0.0,0.0,0.0,0.0,0.0,0.0,0.0,0.0,0.0,1.9372,1.8594,1.8425,1.8966,2.1211,2.3646,2.4745,2.7706,3.0446,3.0581,3.004,2.9619,2.9958,3.0025,3.048,3.1968,3.3863,0.0,3.8802,0.0,0.0,0.0,0.0,0.0,0.0,0.0,0.0,0.0,0.0,0.0,0.0,0.0,0.0,0.0,0.0,0.0,0.0,4.8515,4.8515,4.8515,4.8515,4.8356,4.8066,4.8099,4.7999,4.7768,4.6597,4.5991,4.5757,4.4608,4.4039,4.3956,4.3956,4.3956,4.3927,4.3776,4.3805,4.3927,4.3717,4.3658,4.3658,0.0,0.0,0.0,0.0,0.0,0.0,0.0,0.0,0.0,0.0,0.0,1.7799,0.0,0.0,0.0,0.0,0.0,0.0,1.8972,1.9146,1.939,1.9662,2.0359,2.2073,2.4824,2.4809,2.5865,2.8196,2.9313,2.9311,2.8282,2.8008,2.576,2.1943,2.1826,2.0552,1.8493,1.8493,1.8493,1.8493,1.8493,0.0,0.0,0.0,0.0,0.0,0.0,0.0,0.0,0.0,0.0,0.0,0.0,0.0,2.2178,2.2009,2.0961,2.0318,2.2429,2.3173,2.3917,2.6031,2.73,2.877,3.1515,3.1582,3.1427,3.2814,3.3085,3.3525,3.4991,3.8227,0.0,0.0,0.0,0.0,0.0,0.0,0.0,0.0,0.0,0.0,0.0,0.0,0.0,0.0,0.0,0.0,0.0,0.0,0.0,0.0,0.0,4.8515,4.8515,4.8515,4.8388,4.8195,4.8388,4.7988,4.713,4.655,4.5909,4.5206,4.4432,4.4097,4.4068,4.4068,4.4068,4.4068,4.4068,4.4068,4.4068,4.3927,4.3868,4.3868,0.0,0.0,0.0,0.0,0.0,0.0,0.0,0.0,0.0,0.0,0.0,1.8562,1.8771,1.9008,1.9042,0.0,0.0,0.0,1.9178,1.924,1.9604,2.0307,2.0589,2.1758,2.3916,2.4843,2.6629,2.93,2.9357,2.932,2.9133,2.7113,2.5243,2.3519,2.2584,2.1434,2.0149,1.9657,1.9434,1.9398,1.8891,1.8678,0.0,0.0,0.0,0.0,0.0,0.0,0.0,0.0,2.0225,2.0953,1.9519,2.023,2.1515,2.1028,2.0116,1.9621,2.0927,2.2665,2.4406,2.5676,2.7977,3.0446,3.251,3.3863,3.5081,3.6569,3.7246,3.7584,3.7686,0.0,4.0561,0.0,0.0,0.0,0.0,0.0,0.0,0.0,0.0,0.0,0.0,0.0,0.0,0.0,0.0,0.0,0.0,0.0,0.0,0.0,0.0,4.7922,4.745,4.7417,4.7325,4.7141,4.7579,4.7649,4.7252,4.62,4.5589,4.5287,4.4692,4.4327,4.4207,4.4207,4.4207,4.4207,4.4207,4.4184,4.4097,4.4039,4.401,4.401,0.0,0.0,0.0,0.0,0.0,0.0,0.0,0.0,1.7271,0.0,0.0,0.0,0.0,1.917,1.9209,0.0,0.0,0.0,1.9315,1.9361,1.9686,2.0367,2.0574,2.1337,2.272,2.433,2.6501,2.9284,2.9087,2.876,2.8226,2.612,2.4835,2.4286,2.3279,2.2365,2.163,2.081,2.0333,2.001,1.9201,1.8878,0.0,0.0,0.0,0.0,0.0,0.0,0.0,0.0,2.0442,2.0636,1.9541,2.0128,2.1156,2.0826,2.0703,2.075,2.0995,2.2733,2.4778,2.5981,2.8586,3.1495,3.3931,3.5859,3.7618,3.9343,4.0087,4.0248,3.9478,4.0146,0.0,0.0,0.0,0.0,0.0,0.0,0.0,0.0,0.0,0.0,0.0,0.0,0.0,0.0,0.0,0.0,0.0,0.0,0.0,0.0,0.0,4.7327,4.6786,4.6786,4.6727,4.6574,4.6757,4.6831,4.6736,4.5879,4.5361,4.5125,4.4761,4.4525,4.4412,4.4412,4.4412,4.4412,4.4412,4.4327,4.4241,4.4184,4.4184,4.4155,0.0,0.0,0.0,0.0,0.0,0.0,1.7648,1.7902,1.8185,1.8906,1.917,0.0,0.0,0.0,0.0,0.0,1.9178,0.0,1.9315,1.9493,1.9557,1.9492,2.027,2.1047,2.177,2.3382,2.5397,2.7863,2.8617,2.7591,2.5001,2.5272,2.4823,2.3806,2.3873,2.3458,2.2659,2.1841,2.1043,2.0245,1.9385,1.9006,1.8989,0.0,0.0,0.0,0.0,0.0,0.0,0.0,2.1265,2.0272,2.1806,2.1786,2.136,2.2057,2.3308,2.4305,2.3594,2.3932,2.5049,2.7249,2.9007,3.1326,3.5814,3.7381,3.8565,4.0764,4.1238,4.1001,4.0282,4.1331,0.0,0.0,0.0,0.0,0.0,0.0,0.0,0.0,0.0,0.0,0.0,0.0,0.0,0.0,0.0,0.0,0.0,0.0,0.0,0.0,0.0,0.0,4.6786,4.6786,4.6786,4.6752,4.6041,4.5583,4.5408,4.5583,4.5297,4.4615,4.4615,4.4615,4.4615,4.4615,4.4615,4.4615,4.4615,4.4615,4.4587,4.4384,4.4293,4.4265,0.0,0.0,0.0,0.0,0.0,0.0,1.7789,1.8024,1.8383,1.931,1.9479,0.0,0.0,0.0,0.0,0.0,0.0,1.9508,1.9508,1.9529,1.9536,1.9492,1.9693,2.0165,2.0952,2.2537,2.4282,2.6129,2.6366,2.6078,2.5283,2.4794,2.4684,2.4953,2.5539,2.4734,2.2905,2.2676,2.21,2.1267,2.0408,2.0071,2.0082,0.0,0.0,0.0,0.0,0.0,0.0,0.0,0.0,0.0,2.0502,2.1382,2.2462,2.1096,2.1772,2.2902,2.2699,2.4289,2.6471,2.8213,3.1732,3.5419,3.7811,3.8928,4.0248,4.2997,4.2726,4.1914,4.1677,4.2016,0.0,0.0,0.0,0.0,0.0,0.0,0.0,0.0,0.0,0.0,0.0,0.0,0.0,0.0,0.0,0.0,0.0,0.0,0.0,0.0,0.0,0.0,4.5258,4.5258,4.5258,4.5258,4.5055,4.5167,4.5583,4.5162,4.4818,4.4615,4.4615,4.4615,4.4615,4.4615,4.4615,4.4615,4.4615,4.4615,4.4615,4.4525,4.4497,4.4497,0.0,0.0,0.0,0.0,0.0,0.0,1.796,1.846,1.8895,1.952,1.9609,1.9609,0.0,0.0,0.0,1.9609,1.9595,1.955,1.955,1.9522,1.9501,1.9479,1.9427,1.9758,2.0551,2.218,2.3153,2.3456,2.4116,2.4603,2.4897,2.442,2.497,2.6366,2.6869,2.5915,2.3933,2.3602,2.3015,2.2208,2.1363,2.1033,2.1053,0.0,0.0,0.0,0.0,0.0,0.0,0.0,0.0,0.0,2.0107,2.1037,2.2274,2.0873,2.2158,2.412,2.4409,2.6657,2.9364,3.1157,3.4438,3.7855,4.0223,4.1102,4.2016,4.4175,4.3606,4.2828,4.3132,4.2963,0.0,0.0,0.0,0.0,0.0,0.0,0.0,0.0,0.0,0.0,0.0,0.0,0.0,0.0,0.0,0.0,0.0,0.0,0.0,0.0,0.0,0.0,4.4615,4.4615,4.4615,4.4615,4.4615,4.4852,4.5229,4.4818,4.4615,4.4615,4.4615,4.4615,4.4615,4.4615,4.4615,4.4615,4.4615,4.4615,4.4615,4.4615,4.4615,4.4615,0.0,0.0,1.5023,1.5946,0.0,1.7485,1.8302,1.9082,1.9609,1.9609,1.9609,1.9609,0.0,0.0,0.0,1.9602,1.9543,1.9492,1.9485,1.9486,1.9442,1.9398,1.9537,1.9926,2.0584,2.2125,2.2125,2.0503,2.2125,2.3299,2.408,2.4153,2.5438,2.7688,2.7688,2.677,2.5117,2.4309,2.3529,2.2712,2.1996,2.1666,2.1702,2.1776,0.0,0.0,0.0,0.0,0.0,0.0,0.0,0.0,2.043,2.0844,2.1285,2.1068,2.3628,2.6657,2.7317,2.9736,3.2699,3.5115,3.7053,3.9309,4.2726,4.3538,4.3741,4.4445,4.4012,4.3741,4.4479,0.0,0.0,0.0,0.0,0.0,0.0,0.0,0.0,0.0,0.0,0.0,0.0,0.0,0.0,0.0,0.0,0.0,0.0,0.0,0.0,0.0,0.0,0.0,4.4615,4.4615,4.4615,0.0,4.4615,4.4615,4.4615,4.4615,4.4615,4.4615,4.4615,4.4615,4.4615,4.4615,4.4615,4.4615,4.4615,4.4615,4.4615,4.4615,4.4615,4.4615,0.0,0.0,1.6787,1.7628,0.0,0.0,1.9193,1.9497,1.9609,1.9609,1.9609,1.9609,1.9609,1.9609,0.0,1.9543,1.9499,1.9515,1.9486,1.9435,1.9405,1.9398,2.0625,2.1343,2.1519,2.1886,2.1547,2.0503,2.1547,2.2464,2.3263,2.3896,2.5144,2.6869,2.6869,2.5621,2.3456,2.2657,2.1804,2.1025,2.0841,2.0768,2.0841,2.1555,2.1605,0.0,0.0,0.0,0.0,0.0,0.0,0.0,2.0695,2.1448,2.1939,1.9954,2.2037,2.5015,2.5185,2.7841,3.1529,3.552,3.9411,4.2591,4.4012,4.4316,4.4384,4.4581,4.4479,4.4384,0.0,0.0,0.0,0.0,0.0,0.0,0.0,0.0,0.0,0.0,0.0,0.0,0.0,0.0,0.0,0.0,0.0,0.0,0.0,0.0,0.0,0.0,0.0,4.4615,4.4615,4.4615,4.4615,0.0,4.4615,4.4615,4.4615,4.4615,4.4615,4.4615,4.4615,4.4615,4.4615,4.4615,4.4615,4.4615,4.4615,4.4615,4.4615,4.4615,4.4615,4.4615,0.0,0.0,0.0,0.0,0.0,0.0,0.0,0.0,1.9609,1.9609,1.9609,1.9609,1.9609,1.9557,0.0,0.0,1.9456,1.9457,1.9435,1.9398,1.9338,1.9338,2.0527,2.118,2.118,2.1592,2.1592,2.1106,2.1592,2.24,2.3602,2.4777,2.6429,2.8301,2.753,2.6245,2.4584,2.262,2.1767,2.1648,2.129,2.1355,2.1685,2.1776,2.1538,2.1137,2.1075,0.0,0.0,0.0,0.0,0.0,0.0,0.0,2.1812,2.0533,2.2221,2.4745,2.5778,2.8822,3.2949,3.8125,4.117,4.3166,4.4344,4.4615,4.4615,4.4615,4.4615,0.0,0.0,0.0,0.0,0.0,0.0,0.0,0.0,0.0,0.0,0.0,0.0,0.0,0.0,0.0,0.0,0.0,0.0,0.0,0.0,0.0,0.0,0.0,4.4615,4.4615,4.4615,4.4615,4.4615,4.4615,4.4615,4.4615,4.4615,4.4615,4.4615,4.4615,4.4615,4.4615,4.4615,4.4615,4.4615,4.4615,4.4615,4.4615,4.4615,4.4615,4.4615,4.4615,0.0,0.0,0.0,0.0,0.0,0.0,0.0,0.0,0.0,1.9609,1.9609,1.9602,1.9564,1.9543,1.9492,0.0,0.0,0.0,1.9398,1.9331,1.9352,1.9499,2.0299,2.0731,2.0731,2.1445,2.1739,2.1592,2.1592,2.262,2.463,2.5988,2.7886,3.0136,2.8374,2.7053,2.5988,2.3061,2.2033,2.2309,2.1804,2.1877,2.2309,2.1767,2.1135,2.0494,2.0503,2.0124,1.9684,2.0057,0.0,0.0,0.0,0.0,2.1371,2.1334,2.2658,2.4541,2.6505,3.0258,3.4912,4.0358,4.2117,4.2828,4.4079,4.4513,4.4615,4.4615,0.0,0.0,0.0,0.0,0.0,0.0,0.0,0.0,0.0,0.0,0.0,0.0,0.0,0.0,0.0,0.0,0.0,0.0,0.0,0.0,0.0,0.0,4.4615,4.4615,4.4615,4.4615,4.4615,4.4615,4.4615,4.4615,4.4615,4.4615,4.4615,4.4615,4.4615,4.4615,4.4615,4.4615,4.4615,4.4615,4.4615,4.4615,4.4615,4.4615,4.4615,4.4615,4.4615,4.4615,0.0,0.0,0.0,0.0,0.0,0.0,0.0,0.0,0.0,0.0,1.9609,1.9595,1.9536,1.9492,1.9515,1.9516,1.9427,1.9398,1.9398,0.0,0.0,2.0327,2.118,2.1629,2.1629,2.1739,2.1445,2.0658,2.0658,2.2602,2.6272,2.6492,2.7886,3.0099,2.7787,2.5915,2.441,2.2584,2.1005,1.9866,2.0437,2.0335,1.9866,2.0437,2.0596,2.049,2.0506,2.0838,2.107,1.9724,1.9763,0.0,0.0,0.0,2.0767,2.0614,2.1511,2.2801,2.3714,2.9059,3.5148,3.8565,4.1373,4.3308,4.3538,4.4079,4.4615,0.0,0.0,0.0,0.0,0.0,0.0,0.0,0.0,0.0,0.0,0.0,0.0,0.0,0.0,0.0,0.0,0.0,0.0,0.0,0.0,0.0,0.0,4.4615,4.4615,4.4615,4.4615,4.4615,4.4615,4.4615,4.4615,4.4615,4.4615,4.4615,4.4615,4.4615,4.4615,4.4615,4.4615,4.4615,4.4615,4.4615,4.4615,4.4615,4.4615,4.4615,4.4615,4.4615,4.4615,4.4615,0.0,0.0,0.0,0.0,0.0,0.0,0.0,0.0,0.0,0.0,0.0,1.9602,1.955,1.9536,1.9515,1.9509,1.9427,1.939,1.9338,1.9323,1.9462,1.9822,2.0197,2.0601,2.107,2.107,2.1106,2.1216,2.1216,2.3529,2.7923,2.7923,2.9721,3.2766,2.9916,2.8484,2.797,2.4116,2.2318,2.1996,2.1437,2.2097,2.3235,2.1767,2.2337,2.3748,2.2401,2.1761,2.1471,2.0769,2.0434,2.0336,2.0173,0.0,0.0,0.0,2.1547,2.3102,2.5792,2.9533,3.366,3.7922,3.9986,4.1373,4.3003,4.3335,4.3565,0.0,0.0,0.0,0.0,0.0,0.0,0.0,0.0,0.0,0.0,0.0,0.0,0.0,0.0,0.0,0.0,0.0,0.0,0.0,0.0,0.0,4.4615,4.4615,4.4615,4.4615,4.4615,4.4615,4.4615,4.4615,4.4615,4.4615,4.4615,4.4615,4.4615,4.4615,4.4615,4.4615,4.4615,4.4615,4.4615,4.4615,4.4615,4.4615,4.4615,4.4615,4.4615,4.4615,4.4857,4.5196,0.0,0.0,0.0,0.0,0.0,0.0,0.0,0.0,0.0,0.0,0.0,1.9557,1.958,0.0,0.0,0.0,1.9413,1.9338,1.9315,1.9315,1.9315,1.9315,1.9719,2.0013,2.0181,2.0621,2.0923,2.1151,2.1592,2.4263,2.9023,2.9427,3.1885,3.5811,3.2559,3.098,3.0503,2.5868,2.4043,2.4116,2.3134,2.4016,2.5805,2.4226,2.5107,2.6859,2.4253,2.3006,2.2392,2.136,2.0825,2.0608,2.0381,2.0675,0.0,0.0,0.0,2.2924,2.6571,2.8807,3.119,3.5859,3.7719,3.9106,4.1711,0.0,0.0,0.0,0.0,0.0,0.0,0.0,0.0,0.0,0.0,0.0,0.0,0.0,0.0,0.0,0.0,0.0,0.0,0.0,0.0,0.0,0.0,0.0,4.4615,4.4615,4.4615,4.4615,4.4615,4.4615,4.4615,4.4615,4.4615,4.4615,4.4615,4.4615,4.4615,4.4615,4.4615,4.4615,4.4615,4.4615,4.4615,4.4615,4.4615,4.4615,4.4615,4.4615,4.4615,4.4818,4.5229,4.5737,0.0,0.0,0.0,0.0,0.0,0.0,1.9609,1.9609,0.0,0.0,0.0,1.9515,1.9516,1.9435,1.9405,1.9398,1.9338,1.9315,1.9315,1.9315,1.9315,1.9315,2.0821,0.0,1.9389,2.0931,2.0968,1.9426,2.1005,2.4263,2.9023,3.0577,3.3844,3.8358,3.5092,3.1935,2.9023,2.7189,2.5548,2.4263,2.4934,2.486,2.463,2.7519,2.873,2.8473,2.5291,2.4593,2.4593,0.0,2.0346,2.1389,2.0543,2.0668,2.1084,0.0,0.0,0.0,2.311,2.527,2.7672,3.0818,3.429,3.7337,3.887,0.0,0.0,0.0,0.0,0.0,0.0,0.0,0.0,0.0,0.0,0.0,0.0,0.0,0.0,0.0,0.0,0.0,0.0,0.0,0.0,0.0,0.0,0.0,4.4615,4.4615,4.4615,4.4615,4.4615,4.4615,4.4615,4.4615,4.4615,4.4615,4.4615,4.4615,4.4615,4.4615,4.4615,4.4615,4.4615,4.4615,4.4615,4.4615,4.4615,4.4615,4.4615,4.4615,4.4682,4.5365,4.5669,4.5805,0.0,0.0,0.0,0.0,0.0,0.0,1.9609,1.9557,1.955,0.0,0.0,0.0,0.0,1.9493,1.9457,1.9398,1.9331,1.9315,1.9315,1.9315,1.9315,1.9315,2.0372,2.0694,2.0071,2.0658,2.0658,2.0071,2.0152,2.2685,2.7482,2.8044,3.065,3.4747,3.41,3.344,3.2619,2.8925,2.7346,2.7299,2.7592,2.8473,2.9659,3.0283,3.1493,3.2431,2.9722,0.0,0.0,0.0,0.0,0.0,2.2095,2.161,2.143,2.1779,2.1646,2.1695,2.322,2.4604,2.6168,2.847,3.1123,3.3829,3.6265,3.8362,0.0,0.0,0.0,0.0,0.0,0.0,0.0,0.0,0.0,0.0,0.0,0.0,0.0,0.0,0.0,0.0,0.0,0.0,0.0,0.0,0.0,0.0,4.4615,4.4615,4.4615,4.4615,4.4615,4.4615,4.4615,4.4615,4.4615,4.4615,4.4615,4.4615,4.4615,4.4615,4.4615,4.4615,4.4615,4.4615,4.4615,4.4615,4.4615,4.4615,4.4615,4.4615,4.4716,4.5432,4.6007,4.6515,0.0,0.0,1.9609,1.9609,0.0,1.9609,1.9609,1.9557,1.9543,1.9557,0.0,0.0,0.0,0.0,1.9413,1.939,1.9331,1.9315,1.9315,1.9315,1.9426,1.9675,2.0217,2.0503,2.0503,2.0503,2.0364,2.0107,2.0123,2.2216,2.6209,2.6465,2.873,3.2583,3.2045,3.2816,3.4344,3.0613,2.9329,2.9831,3.0087,3.1152,3.2729,3.3844,3.5064,3.5886,0.0,0.0,0.0,0.0,0.0,0.0,2.4262,2.3009,2.1972,2.2203,2.2371,2.2529,2.3028,2.3921,2.521,2.7257,2.8612,3.0496,3.4551,0.0,0.0,0.0,0.0,0.0,0.0,0.0,0.0,0.0,0.0,0.0,0.0,0.0,0.0,0.0,0.0,0.0,0.0,0.0,0.0,0.0,0.0,0.0,4.4615,4.4615,4.4615,4.4615,4.4615,4.4615,4.4615,4.4615,4.4615,4.4615,4.4615,4.4615,4.4615,4.4615,4.4615,4.4615,4.4615,4.4615,4.4615,4.4615,4.4615,4.4615,4.4615,4.475,4.506,4.5805,4.6549,4.7259,1.9609,1.9609,1.9646,1.9646,1.9646,1.9683,1.9676,1.9639,1.9632,1.9566,0.0,0.0,0.0,0.0,0.0,1.9352,1.9352,1.9352,1.9352,1.9352,1.9711,2.0474,2.0503,2.0548,2.0503,2.0503,2.0144,1.9352,2.0968,2.2987,2.5374,2.6172,2.862,3.2289,2.9145,2.9953,3.355,3.1935,3.136,3.1544,3.2265,3.2656,3.328,3.8065,3.9423,0.0,3.6881,3.5754,0.0,3.125,0.0,0.0,2.6835,2.4661,2.2694,2.2393,2.2921,2.3351,0.0,0.0,0.0,2.6964,0.0,0.0,3.3509,0.0,0.0,0.0,0.0,0.0,0.0,0.0,0.0,0.0,0.0,0.0,0.0,0.0,0.0,0.0,0.0,0.0,0.0,0.0,0.0,0.0,0.0,4.4615,4.4615,4.4615,4.4615,4.4615,4.4615,4.4615,4.4615,4.4615,4.4615,4.4615,4.4615,4.4615,4.4615,4.4615,4.4615,4.4615,4.4615,4.4615,4.4615,4.4615,4.4615,4.4615,4.4615,4.5026,4.5805,4.6515,4.7259,4.8007,1.9609,2.0091,2.0455,2.0455,2.0938,2.1339,2.1263,2.0766,2.0603,0.0,0.0,0.0,2.0289,2.0213,2.0181,2.0181,2.0739,2.0858,2.0217,2.0747,2.0923,2.0511,2.1106,2.1143,2.0503,2.0503,2.0694,2.1115,2.0923,2.2134,2.453,2.474,2.6098,2.8216,2.7346,2.8191,3.0234,2.8631,2.9953,3.3036,3.2118,3.3803,3.7043,3.8475,0.0,0.0,0.0,3.9873,3.8704,0.0,3.4287,3.1497,0.0,2.5386,2.4189,2.2963,2.3952,2.4964,2.2792,0.0,0.0,0.0,0.0,0.0,0.0,0.0,0.0,0.0,0.0,0.0,0.0,0.0,0.0,0.0,0.0,0.0,0.0,0.0,0.0,0.0,0.0,0.0,0.0,0.0,0.0,0.0,4.4615,4.4615,4.4615,4.4615,4.4615,4.4615,4.4615,4.4615,4.4615,4.4615,4.4615,4.4615,4.4615,4.4615,4.4615,4.4615,4.4615,4.4615,4.4615,4.4615,4.4615,4.4615,4.4615,4.4615,4.4615,4.5026,4.5805,4.6515,4.7259,4.8007,2.053,2.096,2.1353,2.1731,2.2176,2.2605,2.2842,2.2251,2.2021,0.0,0.0,0.0,2.2067,2.2657,2.2639,2.1648,2.1694,2.1445,2.0548,2.0996,2.1033,2.0503,2.1327,2.1555,2.107,2.1033,2.1106,2.1253,2.0768,2.1245,2.2648,2.2318,2.3382,2.5585,2.4887,2.6062,2.8411,2.6796,2.8888,3.3353,3.4096,3.6018,3.8679,4.043,4.1645,0.0,0.0,0.0,4.1942,4.1034,3.7947,0.0,2.9544,2.7707,2.6702,2.4748,2.586,2.714,2.4604,2.4941,2.5817,0.0,0.0,0.0,0.0,2.818,0.0,0.0,0.0,0.0,0.0,0.0,0.0,0.0,0.0,0.0,0.0,0.0,0.0,0.0,0.0,0.0,0.0,0.0,0.0,0.0,4.4615,4.4615,4.4615,4.4615,4.4615,4.4615,4.4615,4.4615,4.4615,4.4615,4.4615,4.4615,4.4615,4.4615,4.4615,4.4615,4.4615,4.4615,4.4615,4.4615,4.4615,4.4615,4.4615,4.4615,4.4615,4.5229,4.621,4.6616,4.7462,4.8443,0.0,2.2012,2.2321,2.3181,2.3469,2.3849,2.4598,2.4081,2.3868,0.0,2.409,2.4007,2.4897,2.6025,2.5905,2.385,2.2832,2.1914,2.0988,2.0914,2.0804,2.0503,2.1437,2.1812,2.1519,2.1776,2.1473,2.0503,2.0584,2.0658,2.0621,1.9895,2.1078,2.3712,2.229,2.3795,2.7321,2.6072,2.8301,3.306,3.6567,3.8366,0.0,0.0,4.4017,4.3798,4.518,4.5232,4.4556,4.4225,4.0763,3.6002,3.2697,3.1238,0.0,0.0,2.8431,2.9821,2.7381,2.6862,2.7272,0.0,0.0,0.0,2.9055,2.9136,0.0,0.0,0.0,0.0,0.0,0.0,0.0,0.0,0.0,0.0,0.0,0.0,0.0,0.0,0.0,0.0,0.0,0.0,4.4615,4.4615,4.4615,4.4615,4.4615,4.4615,4.4615,4.4615,4.4615,4.4615,4.4615,4.4615,4.4615,4.4615,4.4615,4.4615,4.4615,4.4615,4.4615,4.4615,4.4615,4.4615,4.4615,4.4615,4.4615,4.4615,4.4716,4.5568,4.6819,4.6887,4.78,4.9018,2.1893,2.2477,2.3209,2.4033,2.5208,2.6267,2.7074,2.6522,2.6501,2.7871,2.7934,2.8374,2.9854,2.8532,2.764,2.7813,2.6492,2.5034,2.3566,2.3492,2.2611,2.0584,2.1942,2.184,1.9829,2.173,2.2015,2.0503,2.1216,2.1555,2.1555,2.1372,2.129,2.1208,2.0878,2.2318,2.4961,2.5952,2.9145,3.3623,3.4403,3.7439,4.1638,4.3098,4.4693,4.6168,4.6614,4.6937,4.6864,4.4805,4.2631,4.0229,3.6898,0.0,0.0,0.0,0.0,0.0,0.0,0.0,0.0,0.0,0.0,0.0,0.0,2.6132,0.0,0.0,0.0,0.0,0.0,0.0,0.0,0.0,0.0,0.0,0.0,0.0,0.0,0.0,0.0,0.0,0.0,0.0,4.4615,4.4615,4.4615,4.4615,4.4615,4.4615,4.4615,4.4615,4.4615,4.4615,4.4615,4.4615,4.4615,4.4615,4.4615,4.4615,4.4615,4.4615,4.4615,4.4615,4.4615,4.4615,4.4615,4.4615,4.4615,4.4682,4.5263,4.6007,4.6853,4.7462,4.824,4.9018,2.3627,2.4377,2.5207,2.6029,2.7106,2.829,2.946,2.8993,2.9055,3.0613,3.1849,3.2632,3.2596,3.1898,3.0895,2.9684,2.8117,2.6502,2.4897,2.441,2.3456,2.1832,2.2933,2.2832,2.118,2.2758,2.2969,2.1758,2.1767,2.1592,2.1143,2.0747,2.1408,2.2905,2.2089,2.4006,2.7787,2.7787,2.9867,3.3426,3.6208,0.0,4.294,4.4912,4.6387,4.7365,4.7465,4.766,4.7518,4.4989,4.3468,0.0,0.0,3.8581,3.8231,0.0,3.4806,3.5856,0.0,0.0,0.0,3.1894,0.0,0.0,0.0,0.0,0.0,0.0,0.0,0.0,0.0,0.0,0.0,0.0,0.0,0.0,0.0,0.0,0.0,0.0,0.0,0.0,0.0,0.0,4.3768,4.4547,4.4615,4.4615,4.4615,4.4615,4.472,4.4961,4.4927,4.4927,4.4927,4.4927,4.4927,4.4927,4.4927,4.5089,4.5354,4.5354,4.5354,4.5354,4.5062,4.5089,4.5328,4.5062,4.5089,4.5371,4.5592,4.6316,4.7261,4.7721,4.8376,4.9018,2.5429,2.6016,2.6722,2.7532,2.86,2.9791,3.1176,3.1029,3.1372,3.3073,3.5349,3.6376,3.5312,3.5518,3.4784,3.2509,3.0393,2.8484,2.688,2.5731,2.463,2.3529,2.4226,2.4226,2.3263,2.419,2.4043,2.2749,2.2106,2.1363,2.0511,2.0005,2.1629,2.4897,2.408,2.6465,3.1091,2.9941,3.1225,3.4417,0.0,4.1404,4.2503,4.5964,4.7292,4.7365,4.7818,4.7963,4.7656,4.545,0.0,4.3488,4.1013,4.0903,0.0,0.0,0.0,0.0,0.0,0.0,0.0,0.0,0.0,3.3429,0.0,0.0,0.0,3.2198,0.0,0.0,0.0,0.0,0.0,0.0,0.0,0.0,0.0,0.0,0.0,0.0,0.0,0.0,0.0,0.0,4.2558,4.4177,4.4089,4.4123,4.4483,4.4652,4.4934,4.5294,4.532,4.5372,4.5442,4.5442,4.5442,4.5442,4.5442,4.5673,4.6098,4.6098,4.6098,4.6074,4.5622,4.5699,4.6049,4.5622,4.5775,4.6253,4.6082,4.67,4.7782,4.8094,4.8703,4.9316,2.5748,2.5564,2.5886,2.6686,2.8628,3.0368,3.125,3.1935,3.3183,3.5569,3.7367,3.8909,4.0141,3.9077,3.8726,3.9774,3.6399,3.35,3.1885,2.9684,2.7457,2.5227,2.5915,2.5621,2.4116,2.5548,2.4887,2.1923,2.1849,2.1363,2.0503,2.118,2.2134,2.3373,2.5318,2.775,3.0356,3.0907,3.4211,0.0,4.0545,3.9905,0.0,4.3299,4.504,4.5334,4.7419,4.8207,4.8063,0.0,4.6535,4.6137,0.0,4.3797,4.4342,0.0,0.0,0.0,0.0,0.0,0.0,0.0,3.768,0.0,0.0,0.0,3.227,2.9686,0.0,0.0,0.0,0.0,0.0,0.0,0.0,0.0,0.0,0.0,0.0,0.0,0.0,0.0,0.0,0.0,0.0,4.3021,4.2295,4.2458,4.4053,4.481,4.5241,4.532,4.532,4.552,4.6,4.6,4.6,4.6,4.6,4.6024,4.6098,4.6098,4.6098,4.6098,4.6024,4.6049,4.6098,4.6024,4.6352,4.6824,4.6966,4.756,4.8382,4.9081,4.9816,5.0507,2.6166,2.6901,2.7489,2.7342,2.8936,3.065,3.1898,3.4798,3.7037,3.7624,3.99,4.1735,4.2433,4.1479,4.1075,4.1735,0.0,3.6964,0.0,0.0,3.1127,2.9622,2.8546,2.7666,2.7005,2.6282,2.5227,2.3869,2.2942,2.2318,2.1942,2.1849,2.3456,2.6528,2.7556,3.0638,3.5092,3.4504,3.5913,0.0,0.0,0.0,0.0,4.4381,4.6744,4.6854,4.7841,4.8187,4.7929,0.0,4.6132,0.0,0.0,0.0,0.0,0.0,0.0,0.0,0.0,0.0,0.0,0.0,0.0,0.0,0.0,0.0,3.2596,0.0,0.0,0.0,0.0,0.0,0.0,0.0,0.0,0.0,0.0,0.0,0.0,0.0,0.0,0.0,0.0,0.0,0.0,0.0,0.0,4.1637,4.375,4.4645,4.5421,4.6196,4.622,4.6352,4.6566,4.6566,4.6566,4.6566,4.6566,4.673,4.7039,4.7039,4.7039,4.7017,4.6707,4.673,4.7017,4.6683,4.6868,4.7413,4.7966,4.8461,4.8926,4.931,5.0004,5.0697,2.7152,2.8033,2.8473,2.7897,2.9292,3.1237,3.3293,3.7,3.9606,3.968,4.1735,4.3497,4.4378,4.3754,4.3571,4.4232,4.28,4.0928,0.0,0.0,3.5128,3.4307,3.1739,0.0,2.9977,2.7824,2.6403,2.5742,2.4116,2.3446,2.3639,2.2841,2.4557,2.84,2.9721,3.3183,3.8028,3.7734,3.8469,3.9843,4.0451,4.0855,4.1589,4.57,4.7641,4.8226,4.8226,4.8151,4.7853,4.6482,4.6007,0.0,4.5619,0.0,0.0,0.0,0.0,0.0,4.2213,0.0,0.0,0.0,0.0,0.0,0.0,0.0,0.0,0.0,0.0,0.0,0.0,0.0,0.0,0.0,0.0,0.0,0.0,0.0,0.0,0.0,0.0,0.0,0.0,0.0,0.0,0.0,0.0,0.0,4.3122,4.4237,4.5363,4.6547,4.6783,4.6972,4.7107,4.7107,4.7107,4.7107,4.7107,4.7341,4.7699,4.7699,4.7699,4.7678,4.7298,4.7341,4.7657,4.7298,4.7363,4.7772,4.8583,4.9145,4.9496,4.9856,5.051,5.1209,2.8913,2.8338,2.7835,2.7798,2.9781,3.2462,3.5679,3.7624,3.957,4.1882,4.2286,4.3534,4.6636,0.0,0.0,0.0,0.0,4.6159,4.4544,0.0,3.935,3.8542,3.5385,3.3293,0.0,3.0858,2.8888,2.6565,2.4961,2.4566,2.5301,2.4493,2.5034,2.6859,3.1568,3.4651,3.656,3.9643,4.2763,4.5626,4.5663,4.7572,4.9958,0.0,4.6269,4.8287,4.8287,0.0,0.0,4.7333,4.7076,0.0,0.0,0.0,0.0,0.0,0.0,0.0,0.0,0.0,0.0,3.9588,0.0,0.0,0.0,0.0,3.6415,0.0,0.0,0.0,0.0,0.0,3.2741,3.1184,0.0,0.0,0.0,0.0,0.0,0.0,0.0,0.0,0.0,0.0,0.0,0.0,0.0,0.0,4.1935,4.3629,4.4884,4.5726,4.6475,4.7151,4.7657,4.7678,4.7678,4.7678,4.7678,4.7678,4.7699,4.7699,4.7699,4.7699,4.7678,4.7678,4.7699,4.7678,4.7678,4.7772,4.8583,4.938,5.0198,5.0972,5.1746,5.2434,3.1262,3.1152,3.0454,2.8877,2.9696,3.2082,3.6427,3.9827,4.2543,0.0,0.0,0.0,0.0,4.9297,4.9701,0.0,0.0,4.8857,4.7205,4.4562,0.0,0.0,0.0,3.7147,0.0,3.4247,3.1641,2.9769,2.8143,2.7519,2.7739,2.6429,2.6943,2.9108,3.2375,3.5605,0.0,0.0,0.0,0.0,0.0,4.8343,5.0655,0.0,0.0,4.917,4.917,4.8744,0.0,4.7916,4.7457,4.7072,4.7192,4.6718,4.6172,4.6331,4.6278,0.0,0.0,0.0,4.5455,4.1649,0.0,0.0,0.0,0.0,0.0,0.0,0.0,0.0,0.0,0.0,3.3031,3.1981,3.0908,0.0,0.0,0.0,0.0,0.0,0.0,0.0,0.0,0.0,0.0,0.0,3.574,0.0,0.0,4.3372,4.487,4.6203,4.7032,4.7529,4.7699,4.7699,4.7699,4.7699,4.7699,4.7699,4.7699,4.7699,4.7699,4.7699,4.7699,4.7699,4.7699,4.7699,4.8004,4.8547,4.9365,5.0198,5.0945,5.1176,5.1792,5.248,3.3243,3.2986,3.2106,3.0564,3.1678,3.4137,3.8175,4.2213,0.0,0.0,4.8379,0.0,5.1867,0.0,5.2087,0.0,5.2527,5.1389,4.9738,4.7609,0.0,4.6728,4.324,0.0,0.0,3.8028,3.5165,3.2669,3.1078,3.0124,2.9794,2.7897,2.8154,3.032,3.2706,3.5899,3.968,4.2947,4.5443,0.0,0.0,4.9994,0.0,0.0,5.0986,5.0031,0.0,4.9625,4.9125,4.9125,4.8576,4.8007,4.838,4.7633,4.6741,4.7077,4.6858,4.6462,4.6093,4.6326,0.0,4.305,4.1833,0.0,3.7377,0.0,0.0,0.0,0.0,0.0,0.0,0.0,3.4407,3.361,3.1872,2.9603,0.0,0.0,0.0,0.0,0.0,0.0,0.0,0.0,3.151,3.4009,3.4407,0.0,0.0,0.0,4.4403,4.6033,4.712,4.7699,4.7699,4.7699,4.7699,4.7699,4.7699,4.7699,4.7699,4.7699,4.7699,4.7699,4.7699,4.7699,4.7735,4.8004,4.8438,4.9018,5.009,5.0814,5.1321,5.1611,5.2045,5.248,3.4821,3.3977,3.2949,3.3023,3.5495,3.8374,0.0,0.0,4.7682,0.0,5.0398,5.183,5.4216,5.3775,5.3922,5.5464,5.4913,0.0,5.227,5.0639,0.0,0.0,4.6948,4.5333,4.3845,4.2103,0.0,0.0,3.3573,3.2302,3.147,2.9072,2.8778,3.032,3.2779,3.5679,3.9019,4.3828,4.7352,4.9867,5.1426,5.2527,5.3203,5.3203,5.227,5.0912,5.0875,5.0839,5.0802,5.0802,5.0288,4.9647,4.9647,4.9018,4.8241,4.8105,4.8004,4.7756,4.6977,4.6678,4.6037,4.3849,0.0,0.0,0.0,0.0,4.1379,0.0,0.0,0.0,0.0,0.0,0.0,3.5949,3.3755,3.0785,0.0,0.0,0.0,0.0,0.0,0.0,0.0,2.8359,2.9106,3.2922,3.2632,3.4335,0.0,0.0,4.3534,4.52,4.683,4.7699,4.7699,4.7699,4.7699,4.7699,4.7699,4.7699,4.7699,4.7699,4.7699,4.7699,4.7699,4.7735,4.7844,4.8583,4.8945,4.9162,5.0705,5.1321,5.143,5.2226,5.248,5.248,3.6795,3.7477,3.8212,3.882,3.8138,3.8924,0.0,0.0,0.0,0.0,5.2087,5.3298,5.5097,5.5097,5.5133,5.5537,5.539,0.0,0.0,0.0,0.0,5.2784,4.9517,4.7792,4.8031,4.4635,0.0,3.9517,0.0,3.3977,3.3146,3.1323,3.0356,3.032,3.3353,3.6178,3.8982,4.3204,4.7462,5.1483,5.2491,5.3041,0.0,0.0,5.2968,5.2527,5.1903,5.1316,5.0802,5.0802,5.0655,5.0452,5.0391,4.9781,4.9082,4.8944,4.8543,4.8072,4.7853,4.77,4.7328,4.6147,4.4793,4.3425,0.0,0.0,0.0,0.0,0.0,0.0,0.0,0.0,0.0,3.6202,3.3284,3.0763,0.0,0.0,0.0,0.0,0.0,0.0,0.0,2.8359,2.9603,3.0654,3.2198,3.4661,0.0,0.0,0.0,4.4331,4.654,4.7699,4.7699,4.7699,4.7699,4.7699,4.7699,4.7699,4.7699,4.7699,4.7699,4.7699,4.7699,4.804,4.8619,4.88,4.9619,5.0705,5.114,5.1647,5.2226,5.2408,5.248,5.248,3.8946,0.0,0.0,4.3517,0.0,0.0,4.5883,0.0,0.0,5.2123,5.3518,0.0,5.55,5.6235,5.6638,5.6638,5.6308,0.0,5.5611,0.0,0.0,5.3885,5.2013,5.0875,5.0675,4.7701,0.0,4.2139,0.0,3.5628,3.377,3.2168,3.1176,3.0834,3.372,3.6362,3.9056,4.4488,4.882,5.205,5.2894,0.0,0.0,5.3203,5.3203,5.313,5.2711,5.2234,5.1867,5.1867,5.161,5.1316,5.1255,5.0684,4.9984,4.9846,4.9318,4.8736,4.864,4.8344,4.7882,4.7421,4.6521,4.5441,4.4242,4.4295,4.4367,0.0,0.0,0.0,0.0,0.0,0.0,0.0,0.0,0.0,0.0,0.0,0.0,0.0,0.0,0.0,2.6934,2.8286,2.9264,2.9264,3.1184,3.3429,0.0,0.0,0.0,4.3498,4.5924,4.7337,4.7699,4.7699,4.7699,4.7699,4.7699,4.7699,4.7699,4.7699,4.7699,4.7735,4.8098,4.8475,4.8945,4.9655,5.0488,5.1321,5.1683,5.2082,5.248,5.248,5.248,5.248,4.1425,0.0,0.0,0.0,0.0,0.0,0.0,5.0508,0.0,5.3628,0.0,5.6235,5.6235,5.7483,5.8327,5.8327,0.0,5.6822,5.6124,5.5868,5.5133,5.3717,5.4252,5.3849,5.2344,5.0528,0.0,0.0,4.0377,3.7037,3.377,3.2265,3.1433,3.136,3.3867,3.6655,3.9937,4.6654,5.0472,5.205,5.2894,5.3203,5.3203,5.3203,5.3203,5.3203,5.3203,5.3203,5.3203,5.3203,5.2747,5.216,5.216,5.161,5.0929,5.081,5.022,4.9557,4.9419,4.8851,4.8283,4.8125,4.8068,4.7627,4.6001,4.5655,4.5655,4.5599,4.4512,4.4331,0.0,0.0,0.0,0.0,0.0,0.0,0.0,0.0,0.0,0.0,0.0,0.0,0.0,2.8346,2.8708,2.86,2.9916,0.0,0.0,0.0,0.0,4.2865,4.5236,0.0,4.7678,0.0,4.7699,4.7699,4.7699,4.7699,4.7699,4.7699,4.7772,4.7916,4.8583,4.9018,4.9307,5.0705,5.1357,5.1502,5.2226,5.248,5.248,5.248,5.248,5.248,4.4856,0.0,0.0,0.0,0.0,5.2784,5.4106,5.4546,5.5317,5.6932,5.8547,5.9575,5.9575,5.9795,5.9979,5.9979,5.9221,0.0,0.0,0.0,0.0,5.6198,5.5684,5.495,5.3995,5.1116,4.8252,0.0,4.0928,3.7037,3.377,3.2839,3.1678,3.054,3.3647,3.8233,4.3884,4.7865,0.0,5.205,5.2894,5.3203,5.3203,5.3203,5.3203,5.3203,5.3203,5.3203,5.3203,5.3203,5.3115,5.3004,5.3004,5.2454,5.1793,5.1773,5.1185,5.0521,5.0383,5.0252,4.9976,4.9159,4.8972,4.8696,4.7684,4.7425,4.7404,4.7322,4.7083,4.6649,4.5852,0.0,0.0,0.0,0.0,0.0,0.0,0.0,0.0,0.0,0.0,0.0,0.0,0.0,2.93,0.0,0.0,0.0,0.0,0.0,0.0,0.0,0.0,0.0,0.0,0.0,4.7699,4.7699,4.7699,4.7699,4.7699,4.7699,4.804,4.8692,4.8837,4.9655,5.0886,5.1176,5.1683,5.2299,5.2444,5.248,5.248,5.248,5.248,5.248,0.0,0.0,0.0,0.0,0.0,0.0,0.0,5.8547,0.0,5.8107,5.8657,5.9171,5.9171,5.9905,6.0419,6.0419,6.0052,5.9808,5.9808,5.8707,5.7886,5.7446,5.6638,0.0,5.5023,5.2674,5.0031,4.7131,4.2727,3.8689,3.5055,3.3807,3.2596,3.1629,3.5716,4.0451,4.5516,0.0,0.0,5.205,5.2894,5.3203,5.3203,5.3203,5.3203,5.3203,5.3203,5.3203,5.3203,5.3203,5.3203,5.3203,5.3203,5.2931,5.2637,5.2637,5.205,5.1426,5.1328,5.1014,5.057,4.9966,4.9857,4.9654,4.8659,4.852,4.8395,4.7829,4.7777,4.7291,4.5599,4.3679,0.0,0.0,0.0,0.0,0.0,0.0,0.0,0.0,0.0,0.0,0.0,0.0,0.0,0.0,0.0,0.0,0.0,0.0,0.0,0.0,0.0,0.0,0.0,0.0,0.0,4.7699,4.7699,4.7699,4.7714,4.8113,4.8511,4.8945,4.98,5.056,5.1321,5.1756,5.2154,5.248,5.248,5.248,5.248,5.248,5.248,5.248,0.0,5.3995,0.0,0.0,5.7703,0.0,5.9845,6.1863,6.2291,5.9391,5.9024,5.9024,5.9024,6.0162,6.0933,6.0933,6.075,6.0676,6.0676,5.9905,5.9171,5.8547,5.774,5.6932,5.6124,5.4363,5.194,0.0,0.0,0.0,3.7037,3.5349,3.4431,3.4344,3.8726,0.0,0.0,0.0,5.0729,5.2307,5.2931,5.3203,5.3203,5.3203,5.3203,5.3203,5.3203,5.3203,5.3203,5.3203,5.3203,5.3203,5.3203,5.3203,5.3203,5.3203,5.2747,5.2234,5.2213,5.1773,5.1218,5.079,5.0796,5.0519,4.924,4.9107,4.8915,4.7943,4.784,4.7352,4.5619,4.4548,0.0,0.0,0.0,0.0,0.0,0.0,0.0,0.0,0.0,0.0,0.0,0.0,0.0,0.0,0.0,0.0,0.0,0.0,0.0,0.0,0.0,4.5091,4.7192,0.0,4.7699,0.0,4.7699,4.7787,4.7968,4.8619,4.909,4.9474,5.0741,5.1393,5.1611,5.2226,5.248,5.248,5.248,5.248,5.248,5.248,5.248,5.248,0.0,0.0,0.0,0.0,0.0,0.0,0.0,6.3943,6.442,6.256,6.2365,6.2365,6.2365,6.2511,6.256,6.256,6.1924,6.1484,6.1484,6.075,6.0272,6.0199,5.9404,5.8621,5.7776,5.5464,5.3078,0.0,0.0,0.0,0.0,3.7896,3.7896,3.9313,4.1972,0.0,0.0,4.9958,5.161,5.3093,5.3167,5.3203,5.3203,5.3203,5.3203,5.3203,5.3203,5.3203,5.3203,5.3203,5.3203,5.3203,5.3203,5.3203,5.3203,5.3203,5.313,5.3057,5.295,5.292,5.2742,5.1883,5.1679,5.1255,4.956,4.9175,4.8935,4.8047,4.7881,4.7352,4.5619,4.6359,4.6287,0.0,0.0,0.0,0.0,0.0,0.0,0.0,0.0,0.0,0.0,0.0,0.0,0.0,0.0,0.0,0.0,0.0,0.0,4.1524,0.0,4.4548,4.5526,4.6975,0.0,4.7699,4.7699,4.8076,4.8764,4.8873,4.9691,5.1067,5.1212,5.1719,5.2371,5.248,5.248,5.248,5.248,5.248,5.248,5.248,5.248,5.248,0.0,0.0,0.0,0.0,0.0,0.0,0.0,6.4897,6.5081,6.4383,6.387,6.3576,6.3576,6.3135,6.278,6.278,6.2511,6.2328,6.2328,6.1557,6.1117,6.1117,6.0346,5.9538,5.8767,5.7299,5.5133,0.0,0.0,0.0,0.0,4.1625,4.1972,4.3608,0.0,4.8379,5.0618,5.227,5.3592,5.462,5.462,5.462,5.462,5.462,5.462,5.462,5.462,5.4326,5.3922,5.3922,5.3592,5.3203,5.3203,5.3203,5.3203,5.3203,5.3203,5.3203,5.3124,5.3146,5.3072,5.2636,5.2584,5.2291,5.0952,5.0352,4.9747,4.8816,4.8167,4.7581,4.6948,4.6545,4.6142,0.0,0.0,0.0,0.0,0.0,0.0,0.0,0.0,0.0,0.0,0.0,0.0,0.0,0.0,0.0,0.0,0.0,0.0,4.0166,0.0,4.4476,4.5273,4.6902,4.7699,4.7735,4.8206,4.8583,4.8909,4.9908,5.0959,5.2009,5.2009,5.219,5.248,5.248,5.248,5.248,5.248,5.248,5.248,5.248,5.248,5.248,6.3025,0.0,6.3135,0.0,6.4494,6.464,6.5815,6.5999,6.5999,6.5999,6.5301,6.4714,6.4494,6.3906,6.3466,6.3209,6.3172,6.3062,6.2817,6.2291,6.1961,6.1961,6.119,0.0,5.9942,5.8877,5.7116,5.462,5.2197,0.0,0.0,4.5773,4.614,0.0,4.9701,5.1389,5.2784,5.4179,5.506,5.5596,5.5596,5.5596,5.5596,5.5596,5.5596,5.5596,5.5596,5.5207,5.473,5.473,5.4363,5.3812,5.3371,5.3203,5.3203,5.3203,5.3203,5.3203,5.3203,5.3203,5.3203,5.3082,5.3103,5.2883,5.1871,5.1067,5.0227,4.9003,4.8245,4.7804,4.7881,4.6896,4.6291,4.6902,0.0,0.0,0.0,0.0,0.0,0.0,0.0,3.4718,0.0,0.0,0.0,0.0,0.0,0.0,0.0,0.0,0.0,0.0,0.0,0.0,0.0,4.6902,4.7844,4.804,4.8619,4.9126,4.9655,5.1031,5.1973,5.248,5.248,5.248,5.248,5.248,5.248,5.248,5.248,5.248,5.248,5.248,5.2648,5.2889,6.3906,6.4714,6.5521,6.6329,6.71,6.7677,6.765,6.765,6.765,6.765,6.6953,6.6182,6.5375,6.5301,6.4971,6.4127,6.409,6.3723,6.2853,6.278,6.2805,0.0,0.0,6.1557,6.1557,6.0015,5.8804,5.7923,0.0,0.0,5.1867,5.0271,5.0381,5.194,5.2784,5.3628,5.4436,5.5244,5.5574,5.5596,5.5596,5.5596,5.5596,5.5596,5.5596,5.5596,5.5596,5.5574,5.5574,5.5574,5.5596,5.528,5.3702,5.3203,5.3203,5.3203,5.3203,5.3203,5.3203,5.3203,5.3203,5.3203,5.3103,5.2797,5.1977,5.1067,4.994,4.832,4.7992,4.7988,4.7922,4.7881,4.7316,4.5619,0.0,0.0,0.0,0.0,0.0,0.0,3.5856,3.3719,3.4516,0.0,0.0,0.0,0.0,0.0,0.0,0.0,0.0,4.272,4.444,0.0,4.5309,4.6902,4.8076,4.8873,4.8909,4.9727,5.1285,5.2118,5.248,5.248,5.248,5.248,5.248,5.248,5.248,5.248,5.248,5.248,5.248,5.248,5.308,5.3839,6.6366,6.6733,6.7026,6.7247,6.7504,6.7687,6.7687,6.7687,6.7687,6.7687,6.7467,6.721,6.6953,6.5962,6.5191,0.0,6.4934,6.4787,0.0,6.398,6.3686,6.3686,6.2879,6.2144,6.1594,6.108,6.0162,5.8841,0.0,0.0,0.0,5.3371,5.3445,5.4473,5.5317,5.5794,5.6088,5.6895,5.7226,5.7226,5.7226,5.7226,5.7226,5.7226,5.7226,5.7226,5.7226,5.6895,5.6418,5.6418,5.6051,5.55,5.4987,5.4473,5.4032,5.4032,5.3628,5.3203,5.3203,5.3203,5.3203,5.3203,5.3146,5.3051,5.2794,5.1532,5.0128,4.9151,4.8429,4.7984,4.8068,4.8004,4.7736,4.715,4.698,0.0,0.0,0.0,0.0,0.0,0.0,3.7594,0.0,3.5944,0.0,0.0,0.0,0.0,0.0,0.0,0.0,0.0,4.444,0.0,4.5309,4.7446,4.8656,4.8909,5.0017,5.1104,5.2118,5.2371,5.248,5.248,5.248,5.248,5.248,5.248,5.248,5.248,5.248,5.2912,5.3453,5.3453,5.4031,5.4779,6.8054,6.8385,6.8495,6.8201,6.8128,6.8054,6.7724,6.7687,6.7687,6.7687,6.7687,6.7687,6.7687,6.6806,0.0,6.5778,6.5742,6.5632,6.5338,6.4824,6.453,6.453,6.3759,6.3062,6.2548,0.0,0.0,6.0126,5.9318,5.84,5.7373,5.6895,5.6932,5.7409,5.7923,5.8143,5.818,5.8694,5.8914,5.8914,5.8914,5.8914,5.8877,5.8584,5.8437,5.84,5.8107,5.7666,5.7262,5.7262,5.6932,5.6492,5.6492,5.5941,5.5244,5.495,5.4473,5.4032,5.3739,5.3665,5.3592,5.3277,5.3203,5.3093,5.2758,5.1773,5.0629,4.9553,4.8887,4.8373,4.8145,4.8048,4.7984,4.7902,4.715,4.6291,4.5417,0.0,0.0,0.0,0.0,0.0,0.0,3.9188,0.0,0.0,0.0,0.0,0.0,0.0,0.0,4.2718,4.549,0.0,4.6649,4.8149,4.9199,4.9836,5.114,5.2009,5.248,5.248,5.248,5.248,5.248,5.248,5.248,5.248,5.248,5.2516,5.2842,5.3334,5.3935,5.4189,5.4924,5.572,6.8972,6.9596,0.0,0.0,6.8972,0.0,6.7981,6.7898,6.7898,6.7898,6.7898,6.7834,6.7797,6.776,6.7467,6.6659,0.0,0.0,0.0,6.5411,6.5375,6.5375,6.4604,6.4163,6.4163,6.3392,6.2585,6.1777,6.0896,6.0493,6.0493,6.0419,6.0419,6.0419,6.0419,6.0419,6.0419,6.0419,6.0419,6.0419,6.0419,6.0419,6.0309,5.9551,5.9258,5.9184,5.8437,5.818,5.8143,5.8107,5.807,5.807,5.8033,5.7483,5.6748,5.5904,5.5647,5.5427,5.4693,5.4473,5.4289,5.3482,5.3261,5.2962,5.2108,5.1831,5.1334,4.9711,4.9387,4.9135,4.8251,4.8165,4.8108,4.7943,4.7175,4.6299,4.5437,0.0,0.0,0.0,0.0,0.0,0.0,4.1488,4.223,0.0,0.0,0.0,0.0,0.0,4.2629,4.6395,4.7337,4.8134,4.8873,4.9018,4.9872,5.1393,5.2118,5.248,5.248,5.248,5.248,5.248,5.248,5.2516,5.2589,5.2589,5.2625,5.2757,5.3494,5.3914,5.4176,5.4844,5.5772,5.6676,0.0,0.0,7.0036,6.9853,6.9816,6.9743,6.9559,6.9522,6.9522,6.9522,6.9522,6.9302,6.8678,6.8605,6.8274,6.7467,6.7393,6.732,6.7136,6.6549,6.6219,6.6219,6.5448,6.5007,6.5007,6.4824,6.431,6.3503,6.2034,6.13,6.13,6.0676,6.0419,6.0419,6.0419,6.0419,6.0419,6.0419,6.0419,6.0419,6.0419,6.0419,6.0382,6.0199,6.0126,6.0089,5.9905,5.9832,5.9758,5.9134,5.8914,5.8804,5.818,5.7886,5.7556,5.6748,5.6088,5.5537,5.5354,5.5317,5.5097,5.4326,5.3665,5.313,5.2926,5.2312,5.1705,5.1417,5.0216,4.9241,4.9218,4.857,4.8088,4.8108,4.6822,4.5721,4.5484,4.4498,0.0,0.0,4.3896,4.415,4.415,4.4331,4.4005,0.0,0.0,0.0,0.0,4.4838,4.5526,4.6468,4.788,4.8692,4.8909,5.0126,5.1212,5.2226,5.2408,5.248,5.248,5.248,5.248,5.248,5.248,5.2842,5.3422,5.3422,5.3795,5.441,5.4568,5.5087,5.5845,5.5991,5.6669,5.7517,7.066,7.0954,7.1064,7.0697,7.066,7.0513,7.0146,7.011,7.011,7.011,7.011,6.9926,6.9486,6.9119,6.8715,6.8274,6.7907,6.7687,6.7687,6.7283,6.7026,6.7026,6.6292,6.5852,6.5852,6.5485,6.5081,6.464,6.3356,6.2732,6.2732,6.1887,6.152,6.152,6.152,6.152,6.152,6.152,6.152,6.152,6.152,6.152,6.1484,6.108,6.0933,6.0896,6.0529,6.0419,6.0346,5.9905,5.9758,5.9685,5.9245,5.8841,5.8474,5.8033,5.7336,5.6602,5.6235,5.6161,5.5868,5.4693,5.4069,5.3665,5.3277,5.2815,5.2333,5.1988,5.1156,5.0273,4.9561,4.9049,4.846,4.769,4.6791,4.602,4.5559,4.5064,0.0,4.5164,4.5599,4.5997,4.6359,4.6395,4.6033,4.5164,0.0,0.0,4.6287,4.712,4.7627,4.7627,4.8822,4.9619,4.9981,5.1212,5.2082,5.248,5.248,5.248,5.248,5.248,5.2697,5.3059,5.3059,5.3518,5.429,5.429,5.4602,5.5132,5.5485,5.598,5.651,5.6841,5.7313,5.781,7.1505,7.2055,7.2275,7.1615,7.1505,7.1248,7.055,7.044,7.044,7.044,7.044,7.0403,7.0293,6.9669,6.9229,6.9082,6.8458,6.7944,6.7724,6.7687,6.7687,6.7687,6.7026,6.6659,6.6659,6.5888,6.5485,6.5485,6.4677,6.4273,6.4237,6.3392,6.3025,6.2989,6.2853,6.278,6.278,6.278,6.278,6.278,6.278,6.278,6.2732,6.2034,6.1777,6.1704,6.1006,6.0786,6.075,6.0639,6.0566,6.0566,6.0456,5.9942,5.9368,5.9368,5.8914,5.8143,5.7226,5.6895,5.6492,5.5097,5.4656,5.4363,5.3555,5.3408,5.313,5.2202,5.1988,5.1511,4.9898,4.9598,4.8942,4.7119,4.6922,4.6593,4.5489,0.0,4.59,4.6472,4.6721,4.712,4.7787,4.7989,4.8061,4.8061,4.8061,4.8351,0.0,4.9199,4.9235,4.9235,4.9908,5.0669,5.1466,5.2154,5.248,5.248,5.248,5.2552,5.2661,5.2661,5.3132,5.3892,5.388,5.4386,5.5171,5.5171,5.5374,5.5673,5.633,5.6656,5.6859,5.7375,5.7655,5.7786,7.2312,7.2422,7.2459,7.2349,7.2312,7.2275,7.2165,7.2129,7.2129,7.2129,7.2129,7.1872,7.1211,7.0999,7.066,6.9963,6.9779,6.9155,6.7787,6.7687,6.7687,6.7687,6.7577,6.7504,6.7504,6.6733,6.6329,6.6329,6.5521,6.5118,6.5118,6.4273,6.3906,6.387,6.3135,6.278,6.278,6.278,6.278,6.278,6.278,6.278,6.2805,6.2658,6.2622,6.2622,6.245,6.2438,6.2328,6.163,6.141,6.13,6.0603,6.0309,6.0236,6.0236,6.0126,5.9722,5.8217,5.7336,5.6748,5.6492,5.5904,5.5207,5.4399,5.4216,5.3995,5.3167,5.237,5.1763,5.1605,5.0309,4.8766,4.7217,4.6903,4.6297,4.4783,0.0,4.6557,4.6646,4.7777,4.8583,4.8692,4.9329,4.9749,4.9749,4.9749,4.9785,4.9908,5.056,5.0923,5.0923,5.1031,5.1502,5.2299,5.2444,5.248,5.248,5.248,5.2842,5.3494,5.3494,5.3965,5.4725,5.4749,5.5256,5.6031,5.6126,5.6645,5.7397,5.7412,5.7496,5.7627,5.7594,5.7607,5.7631,7.2496,7.2496,7.2496,7.2496,7.2496,7.2496,7.2496,7.2496,7.2496,7.2496,7.2496,7.2349,7.1982,7.155,7.1174,7.077,7.033,6.9779,6.9045,6.8568,6.8128,6.7724,6.7687,6.7687,6.7687,6.732,6.7136,6.7136,6.6329,6.5962,6.5925,6.5118,6.4751,6.4714,6.387,6.3503,6.3466,6.3025,6.278,6.278,6.278,6.278,6.278,6.278,6.278,6.278,6.278,6.278,6.2743,6.2365,6.2254,6.2181,6.1814,6.141,6.1043,6.1043,6.0419,5.9612,5.8841,5.807,5.7336,5.6932,5.6528,5.6051,5.5207,5.506,5.4803,5.3995,5.3512,5.2941,5.2061,5.1229,5.0183,4.8553,4.8258,0.0,0.0,4.7292,4.7975,4.7975,4.8886,4.9568,4.9633,4.9916,5.0112,5.0112,5.0112,5.0293,5.0728,5.1104,5.1502,5.1937,5.1937,5.2118,5.248,5.248,5.2733,5.3132,5.3132,5.3566,5.4363,5.4363,5.4762,5.5486,5.5523,5.6092,5.6964,5.7012,5.7374,5.7904,5.7857,5.781,5.7786,5.7631,5.7583,5.7583,7.2496,7.2496,7.2496,7.2496,7.2496,7.2496,7.2496,7.2496,7.2496,7.2496,7.2496,7.2496,7.2496,7.1945,7.1578,7.1578,7.1027,7.0587,7.0403,6.9816,6.9119,6.8274,6.8054,6.7981,6.7981,6.7797,6.7687,6.7687,6.7063,6.6769,6.6769,6.5962,6.5595,6.5558,6.4751,6.4383,6.4347,6.3686,6.3367,6.3356,6.3172,6.3099,6.3099,6.2879,6.278,6.278,6.278,6.278,6.278,6.278,6.278,6.278,6.278,6.2401,6.1887,6.1887,6.086,5.9661,5.9294,5.8767,5.8107,5.7299,5.7079,5.6859,5.6051,5.5868,5.5647,5.484,5.4693,5.4194,5.2679,5.2318,5.1621,4.9708,0.0,0.0,0.0,4.8785,4.9356,4.9356,4.996,5.0424,5.0511,5.0627,5.0655,5.0655,5.0655,5.0945,5.1538,5.1574,5.1937,5.2733,5.2589,5.2589,5.277,5.277,5.3168,5.4001,5.4001,5.4399,5.516,5.516,5.5558,5.6283,5.6332,5.6782,5.7534,5.7583,5.7739,5.7904,5.7904,5.7857,5.7763,5.7583,5.7559,5.7583,7.2496,7.2496,7.2496,7.2496,7.2496,7.2496,7.2496,7.2496,7.2496,7.2496,7.2496,7.2496,7.2496,7.2459,7.2422,7.2422,7.2349,7.2018,7.1284,7.1174,7.077,6.9963,6.9229,6.8825,6.8825,6.8091,6.7687,6.7687,6.7614,6.7614,6.7577,6.6769,6.6402,6.6366,6.5595,6.5228,6.5228,6.5154,6.5118,6.5044,6.431,6.398,6.3906,6.3099,6.278,6.278,6.278,6.278,6.278,6.278,6.278,6.278,6.278,6.2768,6.2732,6.2732,6.2108,6.108,5.9588,5.9148,5.8914,5.8107,5.7923,5.7703,5.6895,5.6712,5.6492,5.5684,5.55,5.5244,5.4363,5.3506,5.216,4.9781,0.0,0.0,4.8211,4.9201,5.0119,5.0119,5.0772,5.1235,5.1235,5.1887,5.2299,5.2299,5.2299,5.2335,5.2408,5.2408,5.277,5.3603,5.2878,5.2842,5.3603,5.3603,5.4037,5.4798,5.4798,5.5196,5.5921,5.5921,5.6355,5.7116,5.7241,5.7351,5.7412,5.7534,5.7607,5.7607,5.7607,5.7607,5.7583,5.7461,5.7486,5.7583,7.2496,7.2496,7.2496,7.2496,7.2496,7.2496,7.2496,7.2496,7.2496,7.2496,7.2496,7.2496,7.2496,7.2496,7.2496,7.2496,7.2496,7.2386,7.2055,7.2055,7.1468,7.0146,6.9816,6.9633,6.9633,6.9339,6.8935,6.8458,6.8458,6.8201,6.7687,6.7393,6.7247,6.721,6.6402,6.6035,6.5999,6.5521,6.5301,6.5264,6.4971,6.4861,6.4824,6.4494,6.4347,6.4347,6.4347,6.4016,6.3613,6.3613,6.3246,6.278,6.278,6.278,6.278,6.278,6.2585,6.2108,6.1006,6.0309,5.9758,5.8951,5.8767,5.8547,5.774,5.7556,5.7336,5.6528,5.6345,5.6088,5.528,5.4855,5.4151,5.2742,0.0,5.1615,5.042,5.0656,5.1027,5.1027,5.1606,5.2055,5.2087,5.2345,5.248,5.248,5.248,5.248,5.248,5.2987,5.3603,5.4436,5.4146,5.4146,5.4436,5.4436,5.4834,5.5595,5.5595,5.5993,5.6717,5.6717,5.6899,5.7188,5.7239,5.7313,5.7388,5.7437,5.751,5.7583,5.7679,5.7607,5.7486,5.7619,5.7607,5.7583,7.2496,7.2496,7.2496,7.2496,7.2496,7.2496,7.2496,7.2496,7.2496,7.2496,7.2496,7.2496,7.2496,7.2496,7.2496,7.2496,7.2496,7.2496,7.2496,7.2496,7.2018,7.0881,7.0624,7.0477,7.0477,7.022,6.9816,6.9302,6.9009,6.8605,6.8054,6.7797,6.7687,6.7677,6.71,6.688,6.6843,6.6292,6.6035,6.6035,6.5778,6.5705,6.5668,6.5411,6.5301,6.5301,6.5301,6.4971,6.4494,6.4494,6.409,6.3539,6.3282,6.3025,6.278,6.278,6.278,6.2695,6.2144,6.1557,6.0896,5.9845,5.9588,5.9391,5.8547,5.84,5.8143,5.7336,5.7189,5.6932,5.6124,5.5978,5.5721,5.4913,5.4202,5.3544,5.2872,5.268,5.259,5.259,5.2984,5.3287,5.3321,5.3287,5.3241,5.3241,5.3241,5.3241,5.3241,5.3784,5.4436,5.5233,5.5269,5.5377,5.5631,5.5377,5.5631,5.6355,5.6355,5.6681,5.7188,5.7188,5.7188,5.7188,5.7188,5.7239,5.7338,5.7338,5.7388,5.7461,5.7559,5.751,5.7412,5.7583,5.7655,5.7655,7.2496,7.2496,7.2496,7.2496,7.2496,7.2496,7.2496,7.2496,7.2496,7.2496,7.2496,7.2496,7.2496,7.2496,7.2496,7.2496,7.2496,7.2496,7.2496,7.2496,7.2496,7.2496,7.1762,7.1293,7.1293,7.055,7.011,7.011,6.9302,6.8898,6.8898,6.8091,6.7714,6.7687,6.7687,6.7687,6.7687,6.7687,6.7687,6.7614,6.6843,6.6512,6.6402,6.5632,6.5338,6.5338,6.5338,6.5301,6.5301,6.5301,6.5301,6.5154,6.4347,6.3503,6.2817,6.278,6.278,6.278,6.278,6.278,6.2413,6.0823,6.0419,6.0199,5.9368,5.9184,5.8964,5.818,5.7997,5.7776,5.6969,5.6822,5.6565,5.5721,5.5485,5.5395,5.5395,5.5189,5.5002,5.5002,5.4943,5.4907,5.4907,5.4907,5.4907,5.4907,5.4907,5.4907,5.4907,5.4907,5.5269,5.5993,5.5993,5.6391,5.7188,5.6391,5.6391,5.7188,5.7188,5.7188,5.7188,5.7188,5.7188,5.7188,5.7188,5.7188,5.7188,5.7188,5.7188,5.7188,5.7188,5.7289,5.7388,5.7388,5.7559,5.781,7.2496,7.2496,7.2496,7.2496,7.2496,7.2496,7.2496,7.2496,7.2496,7.2496,7.2496,7.2496,7.2496,7.2496,7.2496,7.2496,7.2496,7.2496,7.2496,7.2496,7.2496,7.2496,7.2275,7.2165,7.2165,7.1908,7.1505,7.0954,7.0697,7.0036,6.8898,6.8641,6.8238,6.7687,6.7687,6.7687,6.7687,6.7687,6.7687,6.7677,6.743,6.732,6.732,6.7063,6.699,6.699,6.699,6.6623,6.6145,6.6145,6.5778,6.5264,6.5007,6.4787,6.4457,6.387,6.3723,6.3576,6.2989,6.278,6.2548,6.1484,6.1227,6.1043,6.0236,6.0052,5.9979,5.9722,5.9245,5.8744,5.8524,5.8033,5.7373,5.6565,5.6432,5.6145,5.5491,5.5259,5.5119,5.5025,5.4943,5.4907,5.4907,5.4907,5.4907,5.4907,5.4907,5.5124,5.5631,5.5667,5.6029,5.6826,5.6826,5.6971,5.7188,5.6971,5.6971,5.7188,5.7188,5.7188,5.7188,5.7188,5.7188,5.7188,5.7188,5.7188,5.7188,5.7289,5.7338,5.7363,5.7534,5.7583,5.7559,5.7763,5.7834,5.7834,7.2496,7.2496,7.2496,7.2496,7.2496,7.2496,7.2496,7.2496,7.2496,7.2496,7.2496,7.2496,7.2496,7.2496,7.2496,7.2496,7.2496,7.2496,7.2496,7.2496,7.2496,7.2496,7.2496,7.2496,7.2496,7.2496,7.2275,7.1798,7.1468,7.0807,6.9853,6.9522,6.8935,6.8164,6.8164,6.7981,6.7687,6.7687,6.7687,6.7687,6.7687,6.7687,6.7687,6.7687,6.7687,6.7687,6.7687,6.7393,6.6953,6.6953,6.6439,6.5778,6.5778,6.5558,6.5191,6.4714,6.4567,6.4383,6.3539,6.3319,6.3099,6.2291,6.2071,6.1851,6.108,6.086,6.0786,6.0456,6.0015,5.9661,5.9661,5.9281,5.8694,5.7886,5.7753,5.746,5.6548,5.6324,5.6207,5.6137,5.597,5.5885,5.5885,5.5837,5.5812,5.5812,5.5812,5.5993,5.6428,5.6464,5.6681,5.7188,5.7188,5.7188,5.7188,5.7188,5.7188,5.7188,5.7188,5.7188,5.7188,5.7188,5.7188,5.7188,5.7188,5.7213,5.7289,5.7363,5.7412,5.7486,5.7667,5.7679,5.7679,5.7881,5.7904,5.7904,7.2582,7.2524,7.2496,7.2496,7.2496,7.2496,7.2496,7.2496,7.2496,7.2496,7.2496,7.2496,7.2496,7.2496,7.2496,7.2496,7.2496,7.2496,7.2496,7.2496,7.2496,7.2496,7.2496,7.2496,7.2496,7.2496,7.2496,7.2496,7.1798,7.1394,7.1256,7.055,6.9779,6.9009,6.9009,6.8605,6.7907,6.7907,6.7907,6.7907,6.7907,6.7907,6.7907,6.7907,6.7907,6.7907,6.7907,6.7871,6.7797,6.7724,6.721,6.6623,6.6623,6.6109,6.5521,6.5448,6.5411,6.5228,6.4497,6.4276,6.4081,6.3223,6.3015,6.2745,6.1912,6.1704,6.1484,6.0786,6.0566,6.0529,6.0529,6.0456,6.0162,5.9404,5.9294,5.9038,5.8327,5.8124,5.7993,5.792,5.7668,5.746,5.7388,5.7264,5.7188,5.7188,5.7188,5.7188,5.7188,5.7261,5.7297,5.7297,5.7369,5.7406,5.7406,5.7406,5.7333,5.7213,5.7213,5.725,5.7322,5.7322,5.7384,5.7456,5.7456,5.7506,5.7631,5.7655,5.7704,5.7826,5.7826,5.7922,5.8053,5.8053,5.8124,5.8217,7.3114,7.2798,7.2496,7.2496,7.2496,7.2496,7.2496,7.2496,7.2496,7.2496,7.2496,7.2496,7.2496,7.2496,7.2496,7.2496,7.2496,7.2496,7.2496,7.2496,7.2496,7.2496,7.2496,7.2496,7.2496,7.2496,7.2496,7.2496,7.2349,7.1945,7.1293,7.1109,7.0624,6.9853,6.9853,6.9743,6.9559,6.9559,6.9559,6.9559,6.9559,6.9559,6.9559,6.9559,6.9559,6.9559,6.9559,6.9155,6.8531,6.7907,6.7577,6.743,6.743,6.732,6.7063,6.6402,6.6256,6.614,6.5705,6.5602,6.5473,6.4977,6.4555,6.4002,6.2831,6.2548,6.2511,6.2328,6.1777,6.1337,6.1337,6.0823,6.0346,6.0162,6.0162,6.0089,5.9905,5.9749,5.9457,5.8835,5.8482,5.8078,5.746,5.7264,5.7188,5.7188,5.7188,5.7188,5.7188,5.7804,5.813,5.813,5.8746,5.9072,5.9072,5.9072,5.8507,5.7338,5.7338,5.7715,5.8432,5.8432,5.8821,5.9404,5.9404,5.9429,5.9454,5.9554,5.9603,5.9652,5.9749,5.9797,5.9821,5.9821,5.9845,5.9795,7.3603,7.3415,7.3235,7.3235,7.3235,7.3235,7.3235,7.3235,7.313,7.2936,7.3087,7.313,7.2908,7.3087,7.3104,7.2908,7.2881,7.2881,7.2881,7.2881,7.298,7.3209,7.3235,7.3235,7.3235,7.3007,7.2742,7.2496,7.2496,7.2275,7.1872,7.1872,7.1431,7.066,7.066,7.0477,7.011,7.011,7.011,7.011,7.011,7.011,7.011,7.011,7.011,7.011,7.011,6.9816,6.9412,6.8972,6.8568,6.8274,6.8274,6.8017,6.7614,6.7173,6.7063,6.7011,6.6677,6.656,6.6491,6.6078,6.579,6.5172,6.3534,6.2941,6.278,6.278,6.2475,6.2181,6.2181,6.1851,6.141,6.1043,6.097,6.086,6.0456,6.031,6.0236,6.0029,5.9816,5.9562,5.9154,5.899,5.8908,5.8908,5.8908,5.8908,5.8908,5.931,5.953,5.953,5.9969,6.0188,6.0188,6.004,5.9602,5.8908,5.8676,5.8844,5.937,5.937,5.9589,5.999,5.999,6.004,6.009,6.0164,6.0237,6.0286,6.0395,6.0419,6.0419,6.0419,6.0419,6.0346,7.4109,7.4079,7.4009,7.4009,7.4009,7.4009,7.4009,7.4009,7.3869,7.3466,7.375,7.3845,7.3466,7.3774,7.3845,7.3441,7.3415,7.3415,7.3415,7.3415,7.3616,7.3986,7.4009,7.4009,7.4009,7.3641,7.3167,7.2638,7.2553,7.2496,7.2496,7.2496,7.2165,7.1541,7.1541,7.1138,7.0513,7.0513,7.0513,7.0513,7.0513,7.0513,7.0513,7.0513,7.0513,7.0513,7.0513,7.0487,7.0422,7.0275,6.9851,6.9342,6.9342,6.8926,6.8336,6.8188,6.8151,6.807,6.7756,6.7612,6.7561,6.7132,6.6987,6.6449,6.455,6.3604,6.3076,6.2929,6.2855,6.283,6.2904,6.2929,6.2696,6.2116,6.2043,6.1785,6.1121,6.101,6.1135,6.1385,6.1156,6.1001,6.0991,6.0907,6.0811,6.0802,6.0802,6.0802,6.0802,6.095,6.1024,6.1024,6.1135,6.1209,6.1217,6.1001,6.094,6.1149,6.0677,6.0382,6.0284,6.0347,6.042,6.0466,6.0466,6.0516,6.0616,6.0616,6.0726,6.0823,6.0823,6.0823,6.0823,6.0823,6.0713,6.0603,7.4623,7.4265,7.4009,7.4009,7.4009,7.4009,7.4009,7.4009,7.3986,7.3916,7.3963,7.3986,7.3916,7.3963,7.3986,7.3916,7.3916,7.3916,7.3916,7.3916,7.394,7.4009,7.4009,7.4009,7.4009,7.394,7.3652,7.3193,7.2714,7.2496,7.2496,7.2496,7.2459,7.2349,7.2349,7.2275,7.2165,7.2165,7.2165,7.2165,7.2165,7.2165,7.2165,7.2165,7.2165,7.2165,7.2165,7.1987,7.1635,7.093,7.0944,7.1246,7.1246,7.1171,7.0908,7.0174,6.9964,6.9888,6.9542,6.9472,6.9342,6.8943,6.8537,6.7978,6.6995,6.5586,6.4239,6.3548,6.3086,6.2929,6.3308,6.34,6.3498,6.3701,6.3763,6.3726,6.3613,6.3576,6.3355,6.2723,6.1931,6.1321,6.1013,6.1007,6.0936,6.0825,6.0802,6.0802,6.0802,6.1445,6.1851,6.1851,6.2479,6.2868,6.3037,6.2845,6.2983,6.3435,6.3193,6.2512,6.1423,6.18,6.216,6.2425,6.2425,6.2425,6.2425,6.2425,6.245,6.245,6.245,6.245,6.245,6.245,6.2034,6.1447,7.5132,7.4999,7.4824,7.4824,7.4824,7.4824,7.4824,7.4824,7.4743,7.4417,7.4644,7.4743,7.4396,7.4644,7.4723,7.4433,7.4374,7.4374,7.4374,7.4374,7.454,7.4824,7.4824,7.4824,7.4824,7.454,7.4287,7.4064,7.3579,7.3364,7.3364,7.3364,7.3364,7.3364,7.3364,7.3364,7.3364,7.3364,7.3364,7.3364,7.3364,7.3364,7.3364,7.3364,7.3364,7.3364,7.3364,7.3255,7.3041,7.2729,7.2459,7.229,7.229,7.1952,7.1523,7.1125,7.069,7.0326,7.0419,7.0157,6.9796,6.9861,6.9692,6.9362,6.8562,6.7581,6.6411,6.4844,6.4405,6.4167,6.3878,6.3846,6.3909,6.4056,6.4096,6.4096,6.4096,6.4096,6.4083,6.3992,6.3706,6.3441,6.3313,6.322,6.3102,6.2956,6.2898,6.2895,6.2769,6.3083,6.3307,6.3307,6.3584,6.3814,6.3883,6.3776,6.3798,6.3888,6.4154,6.3808,6.2984,6.3201,6.3403,6.352,6.352,6.3422,6.3205,6.3205,6.3038,6.278,6.278,6.278,6.278,6.278,6.2585,6.2291]}]]